Date StartTime U_cm/s V_cm/s W_cm/s Ustd_cm/s Vstd_cm/s Wstd_cm/s Uvar_(cm/s)^2 Vvar_(cm/s)^2 Wvar_(cm/s)^2 KE_(m/s)^2 TurbulentKE_(m/s)^2 HorizWindSpeed_cm/s FrictionSpeec_cm/s DragCoef SpeedOfSound_m/s SonicTemperature_C Pressure_mb 
10/26/2014  00:00:00     -343.565     -211.568      -36.132      122.444       91.794       69.236    14992.593     8426.111     4793.636        9.615        1.411      403.482       57.168        0.020      338.236       10.748      861.531
10/26/2014  00:01:00     -408.110     -186.833       -2.332      154.758       96.878       68.804    23949.936     9385.262     4733.935       11.976        1.903      448.843       72.984        0.026      338.287       10.833      861.499
10/26/2014  00:02:00     -270.160     -208.704       -4.240      107.692       73.542       56.808    11597.665     5408.443     3227.179        6.839        1.012      341.385       56.434        0.027      338.294       10.845      861.430
10/26/2014  00:03:00     -243.974     -142.972       -2.113      153.626      111.181       55.496    23600.901    12361.173     3079.831        5.950        1.952      282.780       82.850        0.086      338.239       10.753      861.423
10/26/2014  00:04:00     -261.032     -192.114       -0.533      137.300       96.988       63.436    18851.387     9406.739     4024.176        6.866        1.614      324.107       65.691        0.041      338.185       10.662      861.477
10/26/2014  00:05:00     -278.670     -163.854        0.950      217.442      135.549       87.020    47280.991    18373.600     7572.421        8.885        3.661      323.272       94.260        0.085      338.180       10.653      861.481
10/26/2014  00:06:00     -350.917     -108.789      -13.429      127.268      136.075       69.493    16197.083    18516.527     4829.208        8.734        1.977      367.393       66.054        0.032      338.204       10.693      861.469
10/26/2014  00:07:00     -279.223     -140.980       -5.596      125.103      109.707       62.674    15650.857    12035.541     3928.078        6.474        1.581      312.795       63.095        0.041      338.168       10.632      861.443
10/26/2014  00:08:00     -218.855      -48.738       11.927      133.852      119.548       67.132    17916.372    14291.729     4506.714        4.356        1.836      224.216       70.295        0.098      338.160       10.619      861.440
10/26/2014  00:09:00     -335.181      -73.229       -5.962      143.115      113.337       73.080    20481.798    12845.291     5340.661        7.820        1.933      343.087       77.369        0.051      338.224       10.728      861.463
10/26/2014  00:10:00     -277.075     -180.214       -5.821      147.529      104.781       62.893    21764.729    10978.956     3955.557        7.298        1.835      330.526       71.296        0.047      338.258       10.785      861.480
10/26/2014  00:11:00     -148.525     -119.029       20.011      131.944      113.814       70.221    17409.321    12953.515     4930.935        3.595        1.765      190.336       71.940        0.143      338.254       10.778      861.457
10/26/2014  00:12:00     -325.465     -231.079       -6.878      182.032      140.960       76.976    33135.805    19869.844     5925.373       10.914        2.947      399.155       86.576        0.047      338.401       11.024      861.434
10/26/2014  00:13:00     -228.902     -107.013        6.233      137.437      123.374       69.619    18889.002    15221.174     4846.774        5.141        1.948      252.681       78.346        0.096      338.306       10.865      861.433
10/26/2014  00:14:00     -225.589     -138.020        0.047      107.668      109.488       65.702    11592.469    11987.527     4316.733        4.891        1.395      264.462       58.853        0.050      338.223       10.726      861.444
10/26/2014  00:15:00     -189.197      -92.086       -0.754      117.731       98.342       58.663    13860.542     9671.062     3441.362        3.562        1.349      210.417       45.323        0.046      338.221       10.725      861.413
10/26/2014  00:16:00     -254.194     -142.451       -9.443      149.504       90.309       58.507    22351.529     8155.755     3423.095        5.946        1.697      291.388       60.311        0.043      338.214       10.710      861.378
10/26/2014  00:17:00     -294.061     -131.431       -5.546      163.222       98.004       60.091    26641.275     9604.780     3610.935        7.181        1.993      322.096       49.556        0.024      338.172       10.639      861.376
10/26/2014  00:18:00     -332.179      -97.988       -3.664      175.290      161.803       80.636    30726.712    26180.372     6502.180        9.167        3.170      346.330       84.662        0.060      338.152       10.606      861.380
10/26/2014  00:19:00     -381.686     -120.448       -1.596      185.635      147.680       80.230    34460.238    21809.438     6436.844       11.144        3.135      400.240       81.088        0.041      338.136       10.578      861.379
10/26/2014  00:20:00     -372.546     -153.011       -5.229      178.139      171.627       68.339    31733.503    29455.736     4670.275       11.403        3.293      402.744       68.764        0.029      338.404       11.029      861.415
10/26/2014  00:21:00     -265.498     -127.362      -10.350      155.414      134.427       66.745    24153.599    18070.564     4454.932        6.674        2.334      294.467       62.272        0.045      338.497       11.184      861.419
10/26/2014  00:22:00     -238.334     -227.057       -4.362      134.267       97.934       60.238    18027.537     9591.088     3628.627        6.981        1.562      329.178       53.172        0.026      338.550       11.275      861.437
10/26/2014  00:23:00     -245.700     -142.438       -4.617      147.757       93.485       58.849    21832.005     8739.512     3463.169        5.735        1.702      284.002       69.161        0.059      338.444       11.097      861.401
10/26/2014  00:24:00     -269.197     -135.153      -13.909       95.011       93.841       50.088     9027.132     8806.094     2508.789        5.563        1.017      301.220       45.958        0.023      338.280       10.821      861.365
10/26/2014  00:25:00     -312.358      -89.214       -9.108      230.219      113.171       67.955    53000.923    12807.716     4617.856        8.800        3.521      324.849       94.994        0.086      338.153       10.609      861.296
10/26/2014  00:26:00     -281.944      -76.011      -13.762      111.047      101.817       53.969    12331.411    10366.705     2912.662        5.553        1.281      292.011       52.464        0.032      338.094       10.510      861.265
10/26/2014  00:27:00     -250.841      -82.281        3.355       97.146       94.397       52.616     9437.286     8910.748     2768.391        4.541        1.056      263.991       53.096        0.040      338.057       10.448      861.288
10/26/2014  00:28:00     -228.025     -192.538       -8.042      145.811       97.306       75.760    21260.843     9468.392     5739.601        6.279        1.823      298.440       78.339        0.069      338.109       10.535      861.307
10/26/2014  00:29:00     -266.736     -124.770       -7.415      122.660      103.477       60.615    15045.458    10707.525     3674.125        5.809        1.471      294.475       62.954        0.046      338.133       10.574      861.278
10/26/2014  00:30:00     -309.172     -123.702       -0.364      128.432      111.761       59.214    16494.748    12490.526     3506.347        7.168        1.625      333.001       56.408        0.029      338.132       10.572      861.242
10/26/2014  00:31:00     -227.664     -151.661       13.096      162.837      101.878       67.655    26515.743    10379.033     4577.169        5.823        2.074      273.554       79.174        0.084      338.131       10.572      861.251
10/26/2014  00:32:00     -314.675     -173.605      -12.921      125.561      102.688       60.335    15765.531    10544.840     3640.282        7.963        1.498      359.388       48.182        0.018      338.166       10.630      861.282
10/26/2014  00:33:00     -246.502     -114.791       19.107      154.422      114.967       67.451    23846.191    13217.519     4549.576        5.795        2.081      271.920       73.125        0.072      338.160       10.620      861.324
10/26/2014  00:34:00     -356.998     -157.474      -10.584      126.000      119.997       61.049    15875.993    14399.301     3726.943        9.317        1.700      390.186       48.432        0.015      338.208       10.699      861.370
10/26/2014  00:35:00     -221.564     -132.983       -0.466      123.752       91.286       59.351    15314.599     8333.133     3522.553        4.697        1.359      258.409       61.336        0.056      338.207       10.700      861.371
10/26/2014  00:36:00      -91.565      -81.846        5.561      101.681       69.604       35.291    10339.064     4844.748     1245.479        1.577        0.821      122.813       32.434        0.070      338.189       10.668      861.355
10/26/2014  00:37:00     -195.513     -197.203       -2.130       98.350      100.207       49.399     9672.743    10041.353     2440.216        4.963        1.108      277.694       48.897        0.031      338.180       10.652      861.392
10/26/2014  00:38:00     -219.817     -118.736       -4.674      103.209       66.991       48.785    10652.156     4487.773     2380.007        3.998        0.876      249.835       51.464        0.042      338.135       10.577      861.415
10/26/2014  00:39:00     -187.756     -107.455        2.701       93.678       74.417       34.129     8775.609     5537.890     1164.779        3.114        0.774      216.330       39.737        0.034      338.100       10.518      861.431
10/26/2014  00:40:00     -158.988     -116.507        2.839      101.271       86.895       47.322    10255.770     7550.702     2239.417        2.945        1.002      197.107       45.435        0.053      338.079       10.484      861.433
10/26/2014  00:41:00     -197.712     -115.246        2.559      144.489       89.866       62.288    20877.166     8075.819     3879.840        4.260        1.642      228.848       69.477        0.092      338.113       10.541      861.437
10/26/2014  00:42:00     -249.496     -178.736       13.173      163.158      116.530       69.957    26620.595    13579.220     4894.027        6.972        2.255      306.912       84.107        0.075      338.202       10.690      861.440
10/26/2014  00:43:00     -270.968     -169.200        1.608      187.069      128.756       71.612    34994.856    16578.070     5128.240        7.937        2.835      319.456       78.141        0.060      338.197       10.682      861.424
10/26/2014  00:44:00     -289.607     -170.291      -19.408       86.053       74.519       47.636     7405.174     5553.124     2269.181        6.423        0.761      335.963       27.066        0.006      338.207       10.697      861.461
10/26/2014  00:45:00     -179.748      -79.074        4.517      104.443      101.844       62.595    10908.331    10372.176     3918.178        3.189        1.260      196.372       60.567        0.095      338.157       10.616      861.446
10/26/2014  00:46:00     -225.284     -127.492        1.879      154.575       93.806       53.240    23893.502     8799.612     2834.473        5.126        1.776      258.857       59.431        0.053      338.268       10.802      861.399
10/26/2014  00:47:00     -176.460      -80.953        0.144       70.490       56.375       44.444     4968.845     3178.121     1975.241        2.390        0.506      194.143       40.251        0.043      338.212       10.708      861.405
10/26/2014  00:48:00      -45.828      -63.296        7.356      116.710       66.528       50.809    13621.203     4426.002     2581.586        1.339        1.031       78.145       43.057        0.304      338.179       10.654      861.420
10/26/2014  00:49:00     -229.678     -101.052       -7.626      128.479      107.523       60.232    16506.839    11561.191     3627.954        4.735        1.585      250.925       66.897        0.071      338.231       10.740      861.438
10/26/2014  00:50:00     -253.589     -129.095       -2.458      119.195       78.343       47.711    14207.484     6137.678     2276.307        5.180        1.131      284.558       47.213        0.028      338.227       10.732      861.453
10/26/2014  00:51:00     -137.080      -64.608       12.916      111.810       85.342       53.151    12501.484     7283.241     2825.019        2.287        1.130      151.543       57.312        0.143      338.175       10.646      861.434
10/26/2014  00:52:00     -231.049     -164.916       -5.343      116.716       82.530       51.748    13622.511     6811.198     2677.805        5.186        1.156      283.868       52.088        0.034      338.213       10.709      861.472
10/26/2014  00:53:00     -295.115     -136.368      -15.996      132.439      106.234       59.630    17540.141    11285.735     3555.701        6.916        1.619      325.099       63.012        0.038      338.203       10.691      861.476
10/26/2014  00:54:00     -256.099     -126.175        8.989      144.161      130.207       68.146    20782.372    16953.989     4643.857        6.198        2.119      285.494       75.940        0.071      338.173       10.641      861.497
10/26/2014  00:55:00     -320.295     -190.099       -3.693      120.669       92.616       56.743    14561.011     8577.750     3219.719        8.254        1.318      372.460       59.496        0.026      338.154       10.609      861.540
10/26/2014  00:56:00     -314.556     -214.765      -15.265      132.889      103.753       64.572    17659.565    10764.660     4169.515        8.894        1.630      380.880       60.490        0.025      338.170       10.637      861.529
10/26/2014  00:57:00     -219.877      -60.091       -6.264      126.898      112.900       58.959    16102.985    12746.453     3476.185        4.215        1.616      227.940       62.552        0.075      338.140       10.587      861.505
10/26/2014  00:58:00     -264.880      -97.668      -11.120      132.296       93.228       57.384    17502.298     8691.426     3292.926        5.465        1.474      282.313       64.369        0.052      338.171       10.637      861.509
10/26/2014  00:59:00     -202.758     -146.487       -4.168      123.353      112.010       58.015    15215.888    12546.301     3365.763        4.685        1.556      250.138       52.530        0.044      338.146       10.594      861.527
10/26/2014  01:00:00     -181.939      -94.885      -14.669      109.588      110.120       53.246    12009.527    12126.322     2835.100        3.464        1.349      205.195       49.140        0.057      338.117       10.547      861.554
10/26/2014  01:01:00     -293.929     -195.146      -16.270      131.177      116.745       66.454    17207.438    13629.370     4416.123        7.999        1.763      352.812       63.341        0.032      338.125       10.560      861.570
10/26/2014  01:02:00     -254.027     -125.715       -4.969      117.059      105.535       62.224    13702.820    11137.710     3871.836        5.453        1.436      283.432       65.202        0.053      338.118       10.549      861.558
10/26/2014  01:03:00     -265.800      -80.015      -14.809      126.629      101.957       62.282    16034.962    10395.129     3878.997        5.378        1.515      277.583       66.465        0.057      338.112       10.538      861.564
10/26/2014  01:04:00     -194.837     -126.234       13.036      162.440      125.639       68.989    26386.736    15785.244     4759.455        5.049        2.347      232.157       79.630        0.118      338.161       10.621      861.552
10/26/2014  01:05:00     -253.353     -106.285        0.631      141.904      107.662       64.817    20136.666    11591.032     4201.245        5.570        1.796      274.744       74.497        0.074      338.188       10.667      861.556
10/26/2014  01:06:00     -172.090     -143.396        0.910      119.626       81.228       61.542    14310.270     6598.065     3787.426        3.743        1.235      224.003       60.563        0.073      338.090       10.503      861.608
10/26/2014  01:07:00     -196.926      -99.152        3.666      125.659      112.338       57.904    15790.304    12619.755     3352.902        4.019        1.588      220.479       66.660        0.091      338.127       10.563      861.631
10/26/2014  01:08:00     -269.287     -173.793      -12.276      138.227       91.446       54.564    19106.639     8362.386     2977.281        6.665        1.522      320.499       63.797        0.040      338.183       10.657      861.644
10/26/2014  01:09:00     -222.335     -150.616        7.117      112.267       78.500       54.418    12603.831     6162.185     2961.365        4.694        1.086      268.548       54.742        0.042      338.196       10.679      861.669
10/26/2014  01:10:00     -213.309      -86.398       21.402      145.572       97.474       67.776    21191.313     9501.210     4593.539        4.435        1.764      230.142       71.924        0.098      338.202       10.690      861.666
10/26/2014  01:11:00     -279.884     -212.499       -9.359      160.460      118.812       82.779    25747.408    14116.309     6852.433        8.514        2.336      351.413       93.933        0.071      338.231       10.737      861.640
10/26/2014  01:12:00     -282.036      -93.377      -11.203      134.273      133.957       69.068    18029.169    17944.582     4770.353        6.456        2.037      297.092       73.709        0.062      338.181       10.653      861.662
10/26/2014  01:13:00     -351.462     -204.050      -18.204      176.010      122.141       72.038    30979.551    14918.423     5189.468       10.828        2.554      406.401       70.480        0.030      338.233       10.743      861.710
10/26/2014  01:14:00     -160.271     -121.780       23.731      131.677      134.284       74.487    17338.821    18032.118     5548.316        4.099        2.046      201.289       71.575        0.126      338.251       10.773      861.678
10/26/2014  01:15:00     -219.165     -192.907       -5.301      128.270       96.674       62.310    16453.161     9345.799     3882.548        5.747        1.484      291.969       65.204        0.050      338.205       10.695      861.687
10/26/2014  01:16:00     -182.626     -165.016        5.057      187.071      140.249       85.641    34995.559    19669.770     7334.311        6.129        3.100      246.136       95.365        0.150      338.137       10.581      861.677
10/26/2014  01:17:00     -315.519     -145.000        3.767      177.570      149.701       92.007    31530.991    22410.499     8465.340        9.149        3.120      347.243       95.597        0.076      338.162       10.623      861.677
10/26/2014  01:18:00     -312.294     -144.661        2.551      223.730      135.883       84.239    50055.115    18464.225     7096.245        9.702        3.781      344.172       95.734        0.077      338.279       10.819      861.646
10/26/2014  01:19:00     -218.094      -49.769        9.624      166.937      133.028       79.567    27868.034    17696.338     6330.834        5.100        2.595      223.701       82.636        0.136      338.236       10.749      861.684
10/26/2014  01:20:00     -228.934     -128.529      -17.742      149.476      116.015       61.300    22343.089    13459.593     3757.751        5.439        1.978      262.546       71.684        0.075      338.227       10.733      861.727
10/26/2014  01:21:00     -397.250      -87.384       -4.312      187.123      145.841       79.751    35014.868    21269.517     6360.219       11.404        3.132      406.747       72.854        0.032      338.262       10.791      861.732
10/26/2014  01:22:00     -298.268     -179.101       -3.026      207.752      206.359       93.541    43161.068    42584.161     8749.844       10.775        4.725      347.910      111.204        0.102      338.263       10.794      861.696
10/26/2014  01:23:00     -321.682     -160.788      -19.507      155.810      140.182       81.704    24276.755    19650.923     6675.594        9.015        2.530      359.628       82.343        0.052      338.249       10.769      861.642
10/26/2014  01:24:00     -258.756     -161.968      -19.811      198.355      129.983       85.100    39344.553    16895.691     7242.048        7.852        3.174      305.267       86.078        0.080      338.233       10.743      861.643
10/26/2014  01:25:00     -397.819     -138.288       -3.597      137.107      123.128       79.807    18798.435    15160.424     6369.163       10.885        2.016      421.169       81.041        0.037      338.242       10.757      861.661
10/26/2014  01:26:00     -267.891     -185.145       -1.763      136.191      126.650       68.618    18547.942    16040.220     4708.431        7.266        1.965      325.644       75.335        0.054      338.208       10.700      861.691
10/26/2014  01:27:00     -362.747     -274.421      -11.521      140.908      125.136       73.105    19855.047    15658.954     5344.399       12.393        2.043      454.854       71.088        0.024      338.250       10.770      861.676
10/26/2014  01:28:00     -318.986     -147.588      -11.491      165.387      103.266       59.477    27352.917    10663.910     3537.486        8.260        2.078      351.474       71.122        0.041      338.169       10.635      861.666
10/26/2014  01:29:00     -270.981     -182.680       -5.673      157.174      120.669       70.081    24703.738    14560.990     4911.328        7.550        2.209      326.806       68.332        0.044      338.143       10.590      861.653
10/26/2014  01:30:00     -241.012     -173.830        1.618      151.997      127.372       71.563    23103.136    16223.733     5121.251        6.637        2.222      297.159       82.342        0.077      338.128       10.565      861.676
10/26/2014  01:31:00     -246.317     -218.985        2.074      207.963      139.768       87.243    43248.540    19535.192     7611.271        8.950        3.520      329.586       93.613        0.081      338.154       10.609      861.709
10/26/2014  01:32:00     -404.232     -265.344       -9.817      205.094      154.110       83.097    42063.378    23749.818     6905.029       15.330        3.636      483.540       98.743        0.042      338.233       10.741      861.682
10/26/2014  01:33:00     -271.839     -209.601       -9.308      136.030      135.086       72.954    18504.119    18248.293     5322.300        7.999        2.104      343.262       58.589        0.029      338.222       10.725      861.631
10/26/2014  01:34:00     -245.134     -218.373        2.539      207.299      155.233       92.824    42973.011    24097.407     8616.282        9.172        3.784      328.295      110.021        0.112      338.173       10.640      861.630
10/26/2014  01:35:00     -285.424     -196.080      -11.303      202.536      126.899       85.472    41020.720    16103.416     7305.455        9.222        3.221      346.287      110.277        0.101      338.153       10.608      861.631
10/26/2014  01:36:00     -383.531     -197.002       -4.425      161.452      140.823       76.876    26066.799    19831.191     5909.899       11.886        2.590      431.168       77.239        0.032      338.190       10.670      861.616
10/26/2014  01:37:00     -314.716     -173.357      -15.123      180.151      143.510       88.752    32454.413    20595.173     7876.865        9.511        3.046      359.303      106.018        0.087      338.152       10.607      861.626
10/26/2014  01:38:00     -425.971     -233.852       -6.972      199.564      130.478       99.538    39825.889    17024.511     9907.753       15.146        3.338      485.940       97.301        0.040      338.134       10.576      861.635
10/26/2014  01:39:00     -351.462     -117.813      -14.354      240.413      135.532       81.433    57798.436    18368.898     6631.290       11.019        4.140      370.682      110.250        0.088      338.218       10.718      861.642
10/26/2014  01:40:00     -414.367     -185.396      -19.710      192.069      140.177       81.666    36890.508    19649.706     6669.374       13.482        3.160      453.951       85.124        0.035      338.147       10.596      861.647
10/26/2014  01:41:00     -349.084     -220.511      -10.097      196.133      137.095       89.466    38468.037    18795.151     8004.076       11.791        3.263      412.898      105.070        0.065      338.192       10.673      861.637
10/26/2014  01:42:00     -353.040     -209.475      -15.977      162.703      118.298       80.081    26472.218    13994.373     6412.965       10.782        2.344      410.508       83.986        0.042      338.219       10.719      861.612
10/26/2014  01:43:00     -263.112     -109.762        5.379      212.510      118.148       88.735    45160.550    13958.843     7873.966        7.414        3.350      285.089      109.621        0.148      338.209       10.703      861.596
10/26/2014  01:44:00     -261.543     -180.946       -7.354      139.845      141.460       83.598    19556.552    20011.013     6988.629        7.387        2.328      318.035       80.420        0.064      338.183       10.657      861.620
10/26/2014  01:45:00     -230.576     -181.326       -2.433      165.442      137.624       84.279    27371.061    18940.323     7102.987        6.972        2.671      293.333       91.535        0.097      338.133       10.574      861.655
10/26/2014  01:46:00     -344.228     -163.748        3.769      230.361      165.812       87.627    53066.224    27493.486     7678.510       11.676        4.412      381.191      103.297        0.073      338.170       10.636      861.654
10/26/2014  01:47:00     -464.039     -262.498      -13.117      267.795      206.221      109.500    71714.087    42526.916    11990.166       20.529        6.312      533.139      114.993        0.047      338.266       10.796      861.656
10/26/2014  01:48:00     -371.555     -241.774       11.140      248.361      147.788      100.250    61683.367    21841.370    10049.991       14.508        4.679      443.292      116.065        0.069      338.358       10.951      861.668
10/26/2014  01:49:00     -374.985     -270.534      -10.119      209.804      142.143       92.820    44017.817    20204.729     8615.581       14.336        3.642      462.388       99.142        0.046      338.286       10.831      861.679
10/26/2014  01:50:00     -358.406     -178.513       18.610      221.223      143.194       93.053    48939.511    20504.611     8658.812       11.937        3.905      400.402      103.907        0.067      338.329       10.903      861.710
10/26/2014  01:51:00     -379.343     -269.552       -4.690      209.732      133.138       75.828    43987.483    17725.804     5749.948       14.201        3.373      465.359       91.884        0.039      338.351       10.941      861.711
10/26/2014  01:52:00     -380.008     -242.704       -8.690      113.599      108.830       70.613    12904.680    11843.992     4986.246       11.655        1.487      450.900       56.829        0.016      338.315       10.881      861.717
10/26/2014  01:53:00     -304.766     -209.906        0.970      157.528      123.227       66.745    24815.010    15184.911     4454.861        9.069        2.223      370.058       79.881        0.047      338.238       10.751      861.717
10/26/2014  01:54:00     -356.185     -174.328      -12.634      159.766      106.166       69.624    25525.161    11271.303     4847.495        9.952        2.082      396.558       67.766        0.029      338.231       10.738      861.702
10/26/2014  01:55:00     -434.452     -178.977      -18.588      216.413      187.007       82.843    46834.395    34971.640     6862.880       15.488        4.433      469.874       68.063        0.021      338.315       10.878      861.681
10/26/2014  01:56:00     -356.267     -192.738       12.519      194.957      182.109      100.345    38008.358    33163.610    10069.056       12.272        4.062      405.061      120.322        0.088      338.298       10.851      861.663
10/26/2014  01:57:00     -336.700     -137.915       10.490      213.886      206.161       98.364    45747.190    42502.167     9675.381       11.519        4.896      363.851      116.651        0.103      338.332       10.909      861.690
10/26/2014  01:58:00     -546.984     -172.627      -42.277      209.473      152.754       77.982    43878.832    23333.930     6081.256       20.202        3.665      573.577       65.574        0.013      338.299       10.853      861.718
10/26/2014  01:59:00     -196.646     -115.074        9.291      151.345      133.396       71.487    22905.390    17794.377     5110.389        4.890        2.291      227.842       82.790        0.132      338.210       10.706      861.700
10/26/2014  02:00:00     -359.863     -286.534      -21.233      212.498      175.704       97.733    45155.559    30871.741     9551.818       14.880        4.279      460.004      105.579        0.053      338.197       10.683      861.673
10/26/2014  02:01:00     -329.345     -266.531      -33.989      158.221      136.922       82.828    25033.940    18747.577     6860.533       11.564        2.532      423.683       58.502        0.019      338.232       10.741      861.623
10/26/2014  02:02:00     -304.867     -138.597        4.152      134.191      112.272       67.659    18007.223    12605.049     4577.720        7.367        1.759      334.892       67.543        0.041      338.213       10.708      861.572
10/26/2014  02:03:00     -234.165     -155.064        4.781      104.536      111.034       55.034    10927.747    12328.556     3028.769        5.259        1.314      280.852       43.681        0.024      338.168       10.631      861.587
10/26/2014  02:04:00     -232.627     -133.012      -10.185      171.194      120.413       83.300    29307.484    14499.265     6938.835        6.132        2.537      267.969       81.592        0.093      338.163       10.625      861.591
10/26/2014  02:05:00     -431.193     -271.259      -16.716      224.219      151.275       95.930    50273.958    22884.144     9202.591       17.106        4.118      509.420      108.795        0.046      338.246       10.763      861.573
10/26/2014  02:06:00     -511.685     -242.151      -15.851      189.833      188.322       99.655    36036.520    35465.144     9931.215       20.106        4.072      566.090      106.799        0.036      338.313       10.876      861.575
10/26/2014  02:07:00     -491.455     -279.070      -23.369      217.237      217.011      111.917    47192.045    47093.884    12525.398       21.336        5.341      565.162      107.393        0.036      338.278       10.819      861.546
10/26/2014  02:08:00     -448.105     -283.694       -4.942      217.665      188.392      100.206    47378.140    35491.443    10041.336       18.709        4.646      530.358      103.770        0.038      338.303       10.860      861.587
10/26/2014  02:09:00     -394.287     -192.088      -11.259      207.847      154.393       87.408    43200.464    23837.191     7640.194       13.357        3.734      438.589       97.882        0.050      338.265       10.796      861.595
10/26/2014  02:10:00     -455.287     -291.958      -15.241      235.757      192.848      109.260    55581.452    37190.412    11937.786       19.871        5.235      540.856      126.110        0.054      338.258       10.784      861.594
10/26/2014  02:11:00     -311.527     -211.967       -4.894      200.821      169.390       97.490    40328.878    28692.879     9504.322       11.025        3.926      376.801      109.981        0.085      338.231       10.739      861.630
10/26/2014  02:12:00     -463.736     -242.416      -14.301      210.790      195.411       94.725    44432.339    38185.596     8972.762       18.279        4.580      523.275      103.845        0.039      338.217       10.714      861.668
10/26/2014  02:13:00     -303.700     -229.631        0.076      195.500      159.373       88.116    38220.266    25399.747     7764.350       10.816        3.569      380.742       91.247        0.057      338.227       10.734      861.746
10/26/2014  02:14:00     -372.681     -271.075      -28.073      180.271      146.269       71.595    32497.634    21394.752     5125.779       13.608        2.951      460.840       72.524        0.025      338.259       10.787      861.802
10/26/2014  02:15:00     -261.534     -192.504       -5.411      174.840      120.408       82.145    30568.876    14498.041     6747.822        7.864        2.591      324.743       85.865        0.070      338.228       10.734      861.852
10/26/2014  02:16:00     -505.238     -320.181      -23.269      192.414      161.972      104.895    37023.325    26234.905    11003.025       21.628        3.713      598.148      107.013        0.032      338.208       10.699      861.821
10/26/2014  02:17:00     -377.229     -264.293      -27.861      165.074      142.301       83.872    27249.283    20249.583     7034.531       13.372        2.727      460.600       70.764        0.024      338.199       10.683      861.843
10/26/2014  02:18:00     -314.890     -209.269      -17.172      189.991      151.182       67.446    36096.695    22856.057     4548.926       10.336        3.175      378.086       74.537        0.039      338.201       10.688      861.843
10/26/2014  02:19:00     -408.846     -266.017        2.272      220.171      177.224      105.555    48475.341    31408.518    11141.797       16.446        4.551      487.770      110.688        0.051      338.197       10.681      861.812
10/26/2014  02:20:00     -356.923     -183.514        0.110      304.456      200.146      114.341    92693.511    40058.541    13073.958       15.342        7.291      401.337      142.779        0.127      338.188       10.666      861.810
10/26/2014  02:21:00     -412.116     -215.054      -16.380      174.826      166.543       83.481    30564.054    27736.653     6969.102       14.080        3.263      464.852       75.608        0.026      338.186       10.662      861.825
10/26/2014  02:22:00     -313.084     -230.584        6.987      182.889      181.264       90.379    33448.326    32856.620     8168.304       11.284        3.724      388.832       81.087        0.043      338.197       10.681      861.861
10/26/2014  02:23:00     -376.480     -182.732      -28.961      165.841      158.501       75.612    27503.151    25122.694     5717.233       11.714        2.917      418.483       91.864        0.048      338.242       10.758      861.895
10/26/2014  02:24:00     -357.162     -100.319      -13.851      146.923      140.501       66.262    21586.432    19740.451     4390.668        9.176        2.286      370.983       66.041        0.032      338.222       10.725      861.893
10/26/2014  02:25:00     -351.814     -156.111       -6.962      202.755      138.743       77.901    41109.390    19249.690     6068.571       10.730        3.321      384.894       83.023        0.047      338.247       10.765      861.879
10/26/2014  02:26:00     -319.538     -166.455        1.740      173.929      123.743       75.852    30251.127    15312.418     5753.581        9.056        2.566      360.294       86.064        0.057      338.213       10.709      861.883
10/26/2014  02:27:00     -361.772     -170.280       -1.108      194.192      153.831       70.402    37710.544    23664.078     4956.391       11.309        3.317      399.842       87.488        0.048      338.185       10.662      861.880
10/26/2014  02:28:00     -295.330     -234.585        6.951      206.385      160.117      102.301    42594.876    25637.585    10465.487       11.048        3.935      377.160      113.384        0.090      338.146       10.596      861.873
10/26/2014  02:29:00     -330.478     -243.138      -11.421      186.214      155.138       92.877    34675.793    24067.855     8626.146       11.790        3.368      410.282      106.798        0.068      338.131       10.572      861.915
10/26/2014  02:30:00     -287.508     -129.447       13.205      199.663      129.496       96.845    39865.386    16769.261     9378.946        8.279        3.301      315.305      109.350        0.120      338.102       10.523      861.952
10/26/2014  02:31:00     -347.995     -133.302        3.335      228.905      179.192       94.574    52397.447    32109.675     8944.300       11.615        4.673      372.652      114.843        0.095      338.125       10.560      861.976
10/26/2014  02:32:00     -397.549     -206.724      -17.607      192.198      153.927       92.910    36939.982    23693.381     8632.211       13.516        3.463      448.085       80.188        0.032      338.156       10.612      861.976
10/26/2014  02:33:00     -246.431     -155.563       -1.134      133.228      116.504       65.764    17749.578    13573.138     4324.846        6.028        1.782      291.424       56.485        0.038      338.084       10.491      862.007
10/26/2014  02:34:00     -349.262     -174.525       -7.259      235.941      183.437       97.103    55667.929    33649.029     9428.936       12.560        4.937      390.439      111.928        0.082      338.114       10.544      862.025
10/26/2014  02:35:00     -382.326     -217.935      -25.050      201.488      164.772       90.317    40597.479    27149.904     8157.124       13.509        3.795      440.078      104.451        0.056      338.162       10.622      862.005
10/26/2014  02:36:00     -296.684     -148.973        8.641      211.220      129.896       87.607    44614.035    16873.065     7674.943        8.971        3.458      331.986      101.052        0.093      338.111       10.537      862.002
10/26/2014  02:37:00     -293.374     -188.146       -7.445      176.665      163.631       71.855    31210.436    26775.119     5163.118        9.232        3.157      348.522       91.025        0.068      338.120       10.552      862.022
10/26/2014  02:38:00     -306.322     -145.614        8.786      295.727      157.694       92.361    87454.581    24867.553     8530.486       11.796        6.043      339.171      118.240        0.122      338.157       10.612      861.990
10/26/2014  02:39:00     -508.423     -180.470       -5.875      215.210      160.353       90.602    46315.214    25713.240     8208.688       18.565        4.012      539.502       96.171        0.032      338.158       10.616      862.009
10/26/2014  02:40:00     -480.286     -108.751      -20.764      181.055      121.785       93.231    32780.779    14831.472     8692.096       14.961        2.815      492.444       95.572        0.038      338.106       10.527      862.040
10/26/2014  02:41:00     -317.381     -137.505      -13.811      113.181      119.204       67.722    12809.951    14209.497     4586.312        7.571        1.580      345.888       52.346        0.023      338.070       10.469      862.042
10/26/2014  02:42:00     -215.236      -81.437        7.270      168.804      116.333       66.463    28494.786    13533.287     4417.288        4.972        2.322      230.127       80.836        0.123      338.046       10.428      862.053
10/26/2014  02:43:00     -545.999     -243.046      -23.116      225.084      236.718       97.846    50662.811    56035.285     9573.856       23.697        5.814      597.650      112.800        0.036      338.105       10.526      862.019
10/26/2014  02:44:00     -424.849     -285.433      -18.398      260.958      202.627      118.769    68099.279    41057.835    14106.012       19.276        6.163      511.828      129.368        0.064      338.131       10.571      861.997
10/26/2014  02:45:00     -359.454      -96.975       -7.625      161.905      140.903       74.057    26213.347    19853.733     5484.416        9.510        2.578      372.305       81.431        0.048      338.106       10.528      862.016
10/26/2014  02:46:00     -475.639     -233.168      -11.290      215.134      182.689      103.290    46282.643    33375.107    10668.789       18.551        4.516      529.717      120.299        0.052      338.101       10.520      862.010
10/26/2014  02:47:00     -448.248     -149.854      -12.889      211.882      181.605       89.399    44893.941    32980.330     7992.256       15.469        4.293      472.633       98.188        0.043      338.086       10.495      862.011
10/26/2014  02:48:00     -515.311     -219.569      -20.926      221.089      210.387      104.046    48880.374    44262.747    10825.628       20.906        5.198      560.139      120.793        0.047      338.084       10.492      862.046
10/26/2014  02:49:00     -406.016      -99.230      -12.699      162.900      150.780       82.509    26536.272    22734.536     6807.695       11.546        2.804      417.966       96.537        0.053      338.070       10.468      862.058
10/26/2014  02:50:00     -394.998     -136.278       -9.134      162.012      153.599       68.180    26248.017    23592.585     4648.505       11.457        2.724      417.846       56.782        0.018      338.062       10.455      862.065
10/26/2014  02:51:00     -233.855     -182.267       -5.151      185.822      164.425       77.746    34529.829    27035.690     6044.370        7.776        3.380      296.495       81.445        0.075      338.046       10.430      862.034
10/26/2014  02:52:00     -368.509      -89.746       -5.143      221.847      144.010       77.126    49215.967    20739.001     5948.431       10.988        3.795      379.280      101.040        0.071      338.032       10.405      862.039
10/26/2014  02:53:00     -402.061      -98.148      -17.126      253.743      226.154      107.649    64385.515    51145.416    11588.247       14.932        6.356      413.867      123.249        0.089      338.033       10.405      862.040
10/26/2014  02:54:00     -379.417      -75.768        2.953      217.074      206.838      107.565    47121.294    42781.852    11570.163       12.557        5.074      386.908      115.388        0.089      338.020       10.384      862.049
10/26/2014  02:55:00     -369.725      -96.690       -2.657      215.782      191.135       94.310    46562.031    36532.555     8894.338       11.900        4.599      382.159      108.066        0.080      338.037       10.413      862.082
10/26/2014  02:56:00     -272.932     -142.711       -4.557      153.200      160.628       80.855    23470.362    25801.305     6537.565        7.533        2.790      307.991       71.484        0.054      338.060       10.453      862.117
10/26/2014  02:57:00     -346.984      -74.087      -10.098      208.357      184.794       89.398    43412.493    34148.968     7991.964       10.575        4.278      354.806       98.560        0.077      338.002       10.354      862.127
10/26/2014  02:58:00     -570.245     -184.671      -21.771      219.727      191.084       97.761    48279.898    36513.220     9557.194       22.703        4.718      599.402      106.405        0.032      338.034       10.407      862.110
10/26/2014  02:59:00     -458.354     -116.899       -0.958      202.068      205.076      101.765    40831.396    42056.155    10356.170       15.848        4.662      473.026      107.311        0.051      338.030       10.402      862.143
10/26/2014  03:00:00     -348.583     -112.559       -3.845      202.623      151.675       89.770    41056.191    23005.168     8058.698       10.314        3.606      366.305       96.988        0.070      338.052       10.438      862.146
10/26/2014  03:01:00     -400.027     -119.035      -13.649      174.029      149.347       90.721    30286.142    22304.503     8230.300       11.759        3.041      417.362      110.829        0.071      338.029       10.398      862.142
10/26/2014  03:02:00     -300.131     -132.887      -17.970      188.804      126.508       77.727    35646.816    16004.176     6041.457        8.286        2.885      328.234       92.692        0.080      338.042       10.422      862.094
10/26/2014  03:03:00     -359.101     -258.753      -12.503      246.444      187.604      105.474    60734.773    35195.179    11124.661       15.154        5.353      442.613      121.389        0.075      338.024       10.392      862.079
10/26/2014  03:04:00     -427.333     -244.006      -19.473      272.145      192.995       85.199    74062.763    37247.199     7258.928       18.053        5.928      492.090      106.738        0.047      338.105       10.528      862.059
10/26/2014  03:05:00     -258.728     -189.080        0.717      141.787      136.786       73.944    20103.616    18710.371     5467.667        7.348        2.214      320.455       70.592        0.049      338.054       10.443      862.041
10/26/2014  03:06:00     -388.064      -82.226      -18.108      206.068      130.459       78.335    42463.998    17019.635     6136.350       11.164        3.281      396.680       87.751        0.049      337.993       10.340      862.031
10/26/2014  03:07:00     -387.285      -81.965        0.031      190.877      164.957       96.179    36434.208    27210.801     9250.332       11.479        3.645      395.863       99.553        0.063      338.012       10.372      862.013
10/26/2014  03:08:00     -471.044     -303.607       -7.343      243.678      198.836      120.262    59379.101    39535.854    14463.024       21.372        5.669      560.410      126.115        0.051      338.052       10.438      861.967
10/26/2014  03:09:00     -404.635     -256.597      -26.739      241.615      194.551       85.749    58377.940    37850.137     7352.964       16.691        5.179      479.136       86.009        0.032      338.062       10.455      861.968
10/26/2014  03:10:00     -235.683     -224.427      -17.771      144.998      154.684       74.207    21024.500    23927.162     5506.643        7.833        2.523      325.444       70.000        0.046      338.090       10.502      861.949
10/26/2014  03:11:00     -452.830      -60.944      -14.549      212.449      161.589       83.017    45134.496    26110.850     6891.842       14.354        3.907      456.912       79.680        0.030      338.015       10.377      861.927
10/26/2014  03:12:00     -441.430     -209.710      -28.267      178.678      133.014       76.900    31925.728    17692.633     5913.611       14.757        2.777      488.711       73.178        0.022      338.052       10.438      861.965
10/26/2014  03:13:00     -434.838     -164.582       -7.889      255.964      198.755      107.377    65517.439    39503.401    11529.748       16.637        5.828      464.942      129.344        0.077      338.045       10.426      861.931
10/26/2014  03:14:00     -461.163     -141.305      -35.577      232.661      153.946      109.469    54131.054    23699.450    11983.451       16.184        4.491      482.326      114.505        0.056      338.009       10.368      861.941
10/26/2014  03:15:00     -360.320     -223.080       -1.686      172.255      145.628       91.110    29671.633    21207.424     8300.958       11.938        2.959      423.787       89.507        0.045      337.998       10.348      861.969
10/26/2014  03:16:00     -338.814     -127.611      -26.266      166.796      115.980       64.196    27820.767    13451.378     4121.112        8.857        2.270      362.049       54.852        0.023      337.975       10.309      862.000
10/26/2014  03:17:00     -383.295      -79.449      -14.974      180.812      130.651       83.735    32692.806    17069.797     7011.568       10.510        2.839      391.443       91.766        0.055      337.977       10.313      861.994
10/26/2014  03:18:00     -384.518      -54.538       -8.391      224.235      140.399       85.454    50281.413    19711.873     7302.424       11.408        3.865      388.366       91.373        0.055      338.027       10.396      861.949
10/26/2014  03:19:00     -381.690     -102.914       -2.063      188.354      148.206       92.927    35477.285    21964.979     8635.362       11.117        3.304      395.321      100.737        0.065      338.002       10.356      861.938
10/26/2014  03:20:00     -376.073     -101.894      -11.613      196.543      165.505       85.013    38629.042    27391.823     7227.141       11.258        3.662      389.632       98.226        0.064      337.945       10.259      861.936
10/26/2014  03:21:00     -285.405      -89.045      -18.331      139.746      101.357       60.867    19529.004    10273.264     3704.758        6.161        1.675      298.973       60.240        0.041      337.918       10.214      861.936
10/26/2014  03:22:00     -529.568     -135.685      -28.277      187.774      134.527       86.429    35259.249    18097.616     7469.995       18.023        3.041      546.674       77.308        0.020      337.894       10.173      861.929
10/26/2014  03:23:00     -431.881     -110.222      -12.293      202.498      147.884       87.719    41005.592    21869.606     7694.711       13.468        3.528      445.724       94.122        0.045      337.895       10.173      861.933
10/26/2014  03:24:00     -436.554     -106.002      -16.464      191.200      129.004       90.199    36557.544    16642.129     8135.827       13.170        3.067      449.239      101.816        0.051      337.876       10.142      861.960
10/26/2014  03:25:00     -469.899      -88.915      -35.049      199.820      156.145       80.003    39928.146    24381.116     6400.481       15.031        3.535      478.237       90.225        0.036      337.877       10.145      861.966
10/26/2014  03:26:00     -383.761      -63.897      -17.956      200.977      136.875       83.538    40391.788    18734.807     6978.589       10.888        3.305      389.044      108.734        0.078      337.910       10.201      861.969
10/26/2014  03:27:00     -370.366      -72.581        0.900      155.763      156.036       84.706    24262.236    24347.297     7175.129        9.910        2.789      377.410       91.012        0.058      337.897       10.177      861.993
10/26/2014  03:28:00     -248.815      -78.263       -4.418      171.110      150.625       70.629    29278.608    22687.916     4988.458        6.249        2.848      260.833       76.747        0.087      337.942       10.254      861.997
10/26/2014  03:29:00     -317.951      -49.355      -16.077      150.824      161.919       80.356    22747.976    26217.847     6457.157        7.959        2.771      321.759       72.513        0.051      337.937       10.246      862.017
10/26/2014  03:30:00     -285.541      -83.836      -18.393      191.744      108.193       66.144    36765.579    11705.768     4375.054        7.086        2.642      297.594       80.194        0.073      337.915       10.208      862.029
10/26/2014  03:31:00     -177.111       -3.638        5.762      137.491      111.288       69.026    18903.725    12385.075     4764.617        3.373        1.803      177.148       71.660        0.164      337.876       10.144      862.023
10/26/2014  03:32:00     -404.100       -7.625      -33.564      152.117      113.063       65.739    23139.528    12783.300     4321.644       10.235        2.012      404.171       67.788        0.028      337.884       10.156      862.011
10/26/2014  03:33:00     -383.823      -42.229      -21.040      114.052      105.805       58.981    13007.958    11194.698     3478.709        8.861        1.384      386.139       55.317        0.021      337.854       10.106      862.046
10/26/2014  03:34:00     -372.117       47.583      -27.196      184.045      146.992       70.967    33872.428    21606.746     5036.247       10.098        3.026      375.147       65.795        0.031      337.815       10.041      862.058
10/26/2014  03:35:00     -275.438      -68.666        4.474      120.989      132.972       59.127    14638.430    17681.474     3495.995        5.820        1.791      283.868       64.420        0.052      337.797       10.011      862.088
10/26/2014  03:36:00     -113.932      -53.629       12.946      111.580      101.597       67.944    12450.167    10321.861     4616.343        2.170        1.369      125.923       67.775        0.290      337.801       10.019      862.062
10/26/2014  03:37:00     -361.451     -142.685        2.649      202.438      142.131       93.143    40981.217    20201.082     8675.666       11.042        3.493      388.594      116.450        0.090      337.772        9.967      862.088
10/26/2014  03:38:00     -397.457      -52.348      -19.952      178.032      157.922       76.421    31695.486    24939.321     5840.151       11.178        3.124      400.890       91.397        0.052      337.760        9.950      862.102
10/26/2014  03:39:00     -353.241     -149.928      -17.110      158.430      143.551       84.739    25100.177    20606.855     7180.774       10.021        2.644      383.741       80.091        0.044      337.760        9.949      862.103
10/26/2014  03:40:00     -411.734      -78.187      -17.973      197.206      170.015       90.650    38890.317    28905.171     8217.426       12.597        3.801      419.092       88.203        0.044      337.808       10.030      862.096
10/26/2014  03:41:00     -396.888     -128.686      -11.059      170.406      140.180       77.037    29038.306    19650.437     5934.725       11.440        2.731      417.230       67.833        0.026      337.795       10.007      862.062
10/26/2014  03:42:00     -410.422     -151.693      -23.802      181.848      148.427       71.553    33068.716    22030.625     5119.818       12.611        3.011      437.558       71.368        0.027      337.800       10.016      862.082
10/26/2014  03:43:00     -346.205     -147.608       -6.225      166.773      117.326       67.933    27813.395    13765.330     4614.902        9.393        2.310      376.359       85.931        0.052      337.801       10.016      862.073
10/26/2014  03:44:00     -365.827     -103.670       -1.135      219.904      135.383       76.151    48357.796    18328.687     5798.915       10.852        3.624      380.232       83.672        0.048      337.876       10.142      862.067
10/26/2014  03:45:00     -409.424      -33.812      -17.923      162.342      172.419       79.016    26355.027    29728.172     6243.465       11.570        3.116      410.818       73.867        0.032      337.832       10.069      862.050
10/26/2014  03:46:00     -470.720     -137.027      -21.809      232.521      146.507       85.366    54065.802    21464.280     7287.344       16.181        4.141      490.259      107.037        0.048      337.798       10.012      862.038
10/26/2014  03:47:00     -393.297      -88.780       -7.844      128.310      104.934       58.695    16463.510    11011.155     3445.149        9.677        1.546      403.193       60.592        0.023      337.769        9.965      862.091
10/26/2014  03:48:00     -323.951     -130.029       -7.798      117.626      117.575       67.860    13835.796    13823.863     4604.955        7.708        1.613      349.073       68.115        0.038      337.780        9.982      862.102
10/26/2014  03:49:00     -498.183      -88.224      -31.143      190.300      161.556       82.319    36214.022    26100.272     6776.446       16.300        3.455      505.935       88.788        0.031      337.784        9.989      862.064
10/26/2014  03:50:00     -462.370      -73.096      -20.934      196.533      181.404       81.602    38625.128    32907.551     6658.891       14.886        3.910      468.112       98.295        0.044      337.806       10.026      862.063
10/26/2014  03:51:00     -418.856      -53.083      -13.784      202.791      132.661       80.344    41124.005    17598.870     6455.110       12.180        3.259      422.206       84.029        0.040      337.796       10.009      862.043
10/26/2014  03:52:00     -328.325      -58.884        1.658      221.092      146.365       74.787    48881.878    21422.705     5593.053        9.357        3.795      333.564       84.582        0.064      337.780        9.984      862.036
10/26/2014  03:53:00     -321.067     -102.544      -23.898      130.094      134.681       67.865    16924.354    18139.030     4605.616        7.691        1.983      337.045       61.658        0.033      337.789        9.996      862.034
10/26/2014  03:54:00     -422.817     -161.600      -26.178      329.559      169.424      100.886   108609.263    28704.407    10177.974       17.650        7.375      452.646      116.820        0.067      337.808       10.028      862.028
10/26/2014  03:55:00     -518.217     -130.742      -34.030      238.315      162.040       88.577    56794.101    26256.828     7845.846       18.883        4.545      534.455       93.857        0.031      337.845       10.090      861.997
10/26/2014  03:56:00     -368.989     -107.815      -23.462      190.869      196.719       82.311    36431.074    38698.209     6775.072       11.510        4.095      384.417       78.198        0.041      337.855       10.107      861.993
10/26/2014  03:57:00     -219.160      -96.760        6.949      214.599      131.610       79.685    46052.729    17321.071     6349.648        6.357        3.486      239.569       95.941        0.160      337.839       10.081      862.018
10/26/2014  03:58:00     -527.984     -145.709      -21.393      206.699      149.037       99.781    42724.380    22212.136     9956.196       18.766        3.745      547.721      100.459        0.034      337.899       10.181      862.010
10/26/2014  03:59:00     -344.082     -165.404      -18.235      194.587      220.200       94.636    37864.166    48488.128     8955.947       12.068        4.765      381.774      109.620        0.082      337.888       10.163      862.001
10/26/2014  04:00:00     -521.273      -35.024      -11.639      267.948      163.551       83.474    71795.875    26748.947     6967.932       18.928        5.276      522.449      100.129        0.037      337.854       10.104      862.004
10/26/2014  04:01:00     -403.808     -105.776      -20.705      170.569      149.390       87.482    29093.679    22317.260     7653.142       11.686        2.953      417.432       94.544        0.051      337.826       10.059      862.011
10/26/2014  04:02:00     -245.222     -154.198        7.455      160.815      137.680       82.358    25861.566    18955.746     6782.783        6.777        2.580      289.674       80.116        0.076      337.808       10.029      861.995
10/26/2014  04:03:00     -235.590     -118.545       18.566      178.559      130.199       79.352    31883.286    16951.850     6296.755        6.251        2.757      263.734       95.388        0.131      337.803       10.021      862.006
10/26/2014  04:04:00     -306.296     -146.450      -23.738      142.272      134.745       64.799    20241.184    18156.201     4198.905        7.920        2.130      339.507       55.265        0.026      337.840       10.081      862.002
10/26/2014  04:05:00     -424.824     -149.572      -22.785      227.636      158.723       82.972    51818.263    25193.041     6884.430       14.361        4.195      450.386      104.101        0.053      337.843       10.087      861.966
10/26/2014  04:06:00     -482.873     -178.945      -26.446      231.351      127.390       79.745    53523.436    16228.241     6359.210       17.098        3.806      514.964       67.274        0.017      337.805       10.023      861.970
10/26/2014  04:07:00     -370.072      -13.811      -12.139      286.583      124.273       89.172    82130.029    15443.899     7951.700       12.139        5.276      370.330      114.386        0.095      337.777        9.977      861.998
10/26/2014  04:08:00     -347.829     -122.595      -25.198      175.537      191.074       75.477    30813.095    36509.114     5696.819       10.482        3.651      368.801       74.509        0.041      337.898       10.180      861.983
10/26/2014  04:09:00     -277.842     -137.766        9.053      238.376      175.516       90.672    56823.207    30805.953     8221.332        9.603        4.793      310.122      108.493        0.122      337.892       10.171      861.979
10/26/2014  04:10:00     -431.189     -236.428      -26.152      286.478      175.344      114.213    82069.858    30745.435    13044.684       18.416        6.293      491.755      138.031        0.079      338.023       10.390      861.960
10/26/2014  04:11:00     -278.144     -177.067        9.031      197.996      158.456       81.981    39202.479    25108.237     6720.814        8.990        3.552      329.722       85.817        0.068      337.944       10.257      861.981
10/26/2014  04:12:00     -333.370     -173.871       -8.100      138.746      123.249       67.529    19250.377    15190.293     4560.100        9.021        1.950      375.987       72.508        0.037      337.934       10.241      862.004
10/26/2014  04:13:00     -295.405     -145.882       -3.537      182.557      165.613       80.404    33326.983    27427.749     6464.865        8.788        3.361      329.463       93.692        0.081      337.934       10.240      862.028
10/26/2014  04:14:00     -403.756     -185.122      -22.018      151.849      128.577       76.490    23058.234    16531.997     5850.678       12.160        2.272      444.173       73.093        0.027      337.986       10.328      862.040
10/26/2014  04:15:00     -251.426     -206.596       -2.105      152.952      122.080       67.357    23394.395    14903.532     4536.917        7.436        2.142      325.418       70.625        0.047      337.971       10.301      862.046
10/26/2014  04:16:00     -228.961     -218.400       22.742      172.720      153.108       94.632    29832.151    23442.212     8955.293        8.142        3.111      316.420       94.599        0.089      337.931       10.235      862.005
10/26/2014  04:17:00     -229.616      -89.524       -5.737      171.042      133.942       77.365    29255.292    17940.522     5985.328        5.697        2.659      246.451       86.910        0.124      337.870       10.133      862.022
10/26/2014  04:18:00     -196.704      -46.650        5.738      120.133      130.406       63.751    14431.876    17005.643     4064.196        3.819        1.775      202.160       68.850        0.116      337.847       10.094      862.034
10/26/2014  04:19:00     -228.532      -54.348        6.992      141.302      100.323       63.157    19966.148    10064.671     3988.839        4.462        1.701      234.905       67.402        0.082      337.834       10.072      862.046
10/26/2014  04:20:00     -201.461      -99.980       21.289      179.487      119.641       84.757    32215.643    14314.031     7183.672        5.236        2.686      224.906       81.953        0.133      337.884       10.157      862.031
10/26/2014  04:21:00     -442.685       -5.284      -16.064      279.816      179.109       94.990    78296.973    32079.877     9023.069       15.780        5.970      442.717      107.084        0.059      337.916       10.211      862.057
10/26/2014  04:22:00     -172.596     -124.922       10.053      160.880      120.691       73.929    25882.517    14566.231     5465.530        4.570        2.296      213.061       77.420        0.132      337.905       10.193      862.086
10/26/2014  04:23:00     -302.024     -167.128       -0.138      249.697      120.856       69.708    62348.826    14606.176     4859.271       10.047        4.091      345.181      101.701        0.087      337.932       10.237      862.086
10/26/2014  04:24:00     -284.523     -164.347       -8.207      190.986      159.851       83.312    36475.716    25552.262     6940.901        8.849        3.448      328.578       94.874        0.083      337.870       10.134      862.061
10/26/2014  04:25:00     -345.963     -146.893      -13.244      178.118      140.434       74.855    31726.146    19721.601     5603.281        9.924        2.853      375.856       66.669        0.031      337.955       10.276      862.088
10/26/2014  04:26:00     -133.731     -133.092        2.687      153.359      132.366       65.248    23518.979    17520.768     4257.360        4.044        2.265      188.672       80.827        0.184      337.908       10.197      862.116
10/26/2014  04:27:00     -369.937     -136.457       -7.224      222.179      173.322       73.676    49363.608    30040.380     5428.196       12.016        4.242      394.302       87.179        0.049      337.895       10.175      862.091
10/26/2014  04:28:00     -282.606     -155.239       -9.426      121.757      121.207       66.097    14824.797    14691.143     4368.855        6.896        1.694      322.436       69.242        0.046      337.938       10.247      862.090
10/26/2014  04:29:00     -136.638      -65.921       -2.899      109.174       90.291       46.439    11918.947     8152.444     2156.546        2.262        1.111      151.708       44.981        0.088      337.884       10.158      862.100
10/26/2014  04:30:00     -123.869      -30.050        3.645       83.276       69.070       37.768     6934.848     4770.696     1426.426        1.469        0.657      127.462       34.313        0.072      337.841       10.086      862.110
10/26/2014  04:31:00     -182.081       25.855       -4.961       73.557       96.285       39.318     5410.669     9270.731     1545.927        2.503        0.811      183.907       33.206        0.033      337.854       10.106      862.104
10/26/2014  04:32:00     -185.553      -67.962      -17.810       72.121       72.247       38.905     5201.386     5219.640     1513.628        2.565        0.597      197.608       33.588        0.029      337.872       10.136      862.087
10/26/2014  04:33:00     -292.610      -86.614      -11.324      121.490      117.831       56.261    14759.769    13884.256     3165.284        6.252        1.590      305.160       55.177        0.033      337.900       10.183      862.089
10/26/2014  04:34:00     -313.284     -119.172       -4.102      142.425       83.720       51.782    20284.832     7009.098     2681.352        7.116        1.499      335.185       53.154        0.025      337.919       10.215      862.095
10/26/2014  04:35:00     -312.401     -146.548       -9.768      165.660      114.366       64.350    27443.165    13079.670     4140.933        8.191        2.233      345.066       66.184        0.037      337.899       10.181      862.105
10/26/2014  04:36:00     -208.521     -167.849       -3.774      146.934      132.438       70.081    21589.613    17539.862     4911.332        5.785        2.202      267.683       60.210        0.051      337.951       10.269      862.146
10/26/2014  04:37:00     -184.971      -81.940       17.910      113.778      116.448       56.189    12945.441    13560.129     3157.247        3.545        1.483      202.308       57.740        0.081      337.944       10.256      862.133
10/26/2014  04:38:00     -225.172      -50.990       -1.407      146.457      137.297       75.857    21449.518    18850.554     5754.352        4.967        2.303      230.874       77.347        0.112      337.968       10.298      862.143
10/26/2014  04:39:00     -190.410      -59.959        7.041      112.999       89.783       56.831    12768.701     8060.910     3229.744        3.198        1.203      199.627       60.599        0.092      337.908       10.196      862.166
10/26/2014  04:40:00     -120.362      -53.649        3.148       83.893       70.222       37.483     7037.961     4931.115     1404.955        1.537        0.669      131.777       40.526        0.095      337.873       10.141      862.194
10/26/2014  04:41:00     -116.149      -90.368        1.220       98.370       59.946       38.518     9676.605     3593.538     1483.633        1.820        0.738      147.163       53.582        0.133      337.889       10.167      862.210
10/26/2014  04:42:00      -44.501      -87.824        2.983       42.733       64.346       25.576     1826.104     4140.408      654.125        0.816        0.331       98.455       26.228        0.071      337.935       10.247      862.222
10/26/2014  04:43:00      -79.549     -143.226       -0.041       57.836      100.789       29.119     3344.974    10158.462      847.892        2.059        0.718      163.834       21.690        0.018      337.915       10.212      862.255
10/26/2014  04:44:00     -170.450     -177.367      -18.742      103.778       73.125       40.020    10769.867     5347.254     1601.623        3.929        0.886      245.993       47.327        0.037      337.921       10.219      862.284
10/26/2014  04:45:00     -113.484     -226.975       -7.906       69.754      111.524       35.981     4865.676    12437.549     1294.645        4.152        0.930      253.765       43.265        0.029      337.951       10.269      862.311
10/26/2014  04:46:00     -117.200      -41.245       -8.075       73.533       47.110       28.129     5407.039     2219.359      791.213        1.196        0.421      124.245       32.480        0.068      337.849       10.100      862.333
10/26/2014  04:47:00     -179.297      -40.769       -3.540       96.199       50.213       38.618     9254.225     2521.368     1491.332        2.354        0.663      183.874       47.873        0.068      337.781        9.984      862.386
10/26/2014  04:48:00     -125.554      -68.339       -9.048      111.370       46.563       34.825    12403.302     2168.079     1212.792        1.815        0.789      142.948       24.360        0.029      337.782        9.989      862.404
10/26/2014  04:49:00        2.578       39.534       51.722       22.313       30.230       18.659      497.885      913.877      348.173        0.300        0.088       39.618       15.915        0.161      337.671        9.803      862.407
10/26/2014  04:50:00       10.240       23.312       21.973       35.836       38.551       28.000     1284.249     1486.166      784.006        0.234        0.178       25.462       31.490        1.530      337.689        9.831      862.417
10/26/2014  04:51:00      -45.540        4.309       -1.955       54.183       43.981       31.130     2935.822     1934.353      969.080        0.397        0.292       45.743       36.715        0.644      337.803       10.024      862.418
10/26/2014  04:52:00      -45.058      -98.429      -14.045       37.127       66.452       28.867     1378.428     4415.866      833.307        0.927        0.331      108.252       29.754        0.076      338.007       10.365      862.460
10/26/2014  04:53:00      -24.996      -44.491        4.080       48.238       52.566       25.104     2326.891     2763.146      630.199        0.417        0.286       51.031       24.042        0.222      337.845       10.094      862.473
10/26/2014  04:54:00      -40.860      -38.441       10.550       51.479       42.757       19.717     2650.059     1828.150      388.779        0.406        0.243       56.100       14.797        0.070      337.856       10.112      862.487
10/26/2014  04:55:00     -107.364      -55.799      -11.681       50.454       48.561       28.933     2545.617     2358.142      837.104        1.026        0.287      120.998       26.991        0.050      337.964       10.295      862.493
10/26/2014  04:56:00     -108.997      -54.515      -10.372       27.128       52.501       23.451      735.921     2756.347      549.944        0.950        0.202      121.870       16.412        0.018      337.908       10.199      862.518
10/26/2014  04:57:00      -63.840       20.761       -7.621       52.804       44.490       16.361     2788.307     1979.369      267.690        0.480        0.252       67.131       24.235        0.130      337.787        9.997      862.540
10/26/2014  04:58:00      -26.911       40.801      -13.006       22.837       18.709       19.296      521.522      350.017      372.339        0.190        0.062       48.877        7.444        0.023      337.907       10.197      862.555
10/26/2014  04:59:00       -9.259       60.671      -16.199       37.405       37.222       18.160     1399.128     1385.447      329.782        0.357        0.156       61.374       16.284        0.070      337.799       10.017      862.563
10/26/2014  05:00:00      -58.794       48.644       -4.323       35.672       32.161       20.515     1272.460     1034.332      420.860        0.428        0.136       76.309       13.156        0.030      337.872       10.140      862.572
10/26/2014  05:01:00      -22.263       24.657       -6.616       23.107       30.309       15.983      533.946      918.638      255.448        0.143        0.085       33.221       17.265        0.270      337.723        9.890      862.602
10/26/2014  05:02:00      -26.472       79.669       -9.462       34.416       51.350       20.755     1184.480     2636.859      430.768        0.569        0.213       83.952       12.181        0.021      337.728        9.898      862.649
10/26/2014  05:03:00      -39.542      123.232      -20.577       24.933       56.695       17.048      621.675     3214.347      290.629        1.065        0.206      129.420        8.516        0.004      337.738        9.915      862.679
10/26/2014  05:04:00      -33.133      108.666      -12.615       26.583       40.112       19.147      706.653     1608.948      366.603        0.787        0.134      113.605       18.643        0.027      337.769        9.968      862.702
10/26/2014  05:05:00      -58.216       39.870      -10.615       23.349       32.225       19.488      545.163     1038.472      379.769        0.353        0.098       70.560       16.659        0.056      337.720        9.885      862.712
10/26/2014  05:06:00      -68.551       58.407      -17.487       17.923       24.431       16.586      321.239      596.863      275.100        0.480        0.060       90.059       15.482        0.030      337.673        9.807      862.723
10/26/2014  05:07:00       -7.138       45.472        1.077       29.869       30.336       17.063      892.139      920.249      291.162        0.211        0.105       46.029       14.844        0.104      337.678        9.814      862.727
10/26/2014  05:08:00       18.770       76.178      -12.998       30.226       41.144       19.163      913.618     1692.799      367.214        0.465        0.149       78.456       18.111        0.053      337.693        9.840      862.749
10/26/2014  05:09:00       25.819       64.022       -4.858       27.032       36.955       26.537      730.735     1365.705      704.207        0.379        0.140       69.032       24.857        0.130      337.623        9.721      862.758
10/26/2014  05:10:00       65.815       33.601       15.329       41.888       38.193       30.336     1754.602     1458.732      920.284        0.491        0.207       73.896       15.229        0.042      337.597        9.680      862.781
10/26/2014  05:11:00        9.194       79.952      -10.840       31.283       31.661       23.532      978.598     1002.434      553.765        0.456        0.127       80.479       22.086        0.075      337.581        9.651      862.802
10/26/2014  05:12:00        4.783       97.200      -11.314       37.059       37.903       20.838     1373.376     1436.661      434.204        0.642        0.162       97.317       20.112        0.043      337.592        9.670      862.805
10/26/2014  05:13:00       39.232       99.854      -11.985       29.946       53.898       34.271      896.765     2904.980     1174.506        0.831        0.249      107.284       31.751        0.088      337.593        9.672      862.793
10/26/2014  05:14:00       36.399      134.755      -22.274       28.850       45.516       21.546      832.329     2071.672      464.219        1.167        0.168      139.584       21.318        0.023      337.656        9.779      862.792
10/26/2014  05:15:00       25.562       99.343      -17.210       22.443       29.657       17.187      503.709      879.558      295.399        0.625        0.084      102.579       14.687        0.020      337.687        9.830      862.811
10/26/2014  05:16:00       -9.233       72.920      -11.952       18.027       24.416       10.853      324.965      596.126      117.794        0.329        0.052       73.502        7.587        0.011      337.776        9.978      862.829
10/26/2014  05:17:00      -23.743       80.256       -6.621       26.784       37.196       20.442      717.400     1383.553      417.865        0.478        0.126       83.694       16.909        0.041      337.858       10.117      862.854
10/26/2014  05:18:00        8.418      123.781      -17.885       23.952       34.175       19.056      573.684     1167.948      363.143        0.891        0.105      124.067       18.181        0.021      337.788        9.999      862.884
10/26/2014  05:19:00       -1.349       89.169      -17.517       25.173       40.063       20.133      633.689     1605.047      405.323        0.545        0.132       89.179       23.570        0.070      337.761        9.954      862.905
10/26/2014  05:20:00      -38.490       81.867      -11.491       39.270       20.300       14.332     1542.157      412.090      205.408        0.524        0.108       90.463       10.388        0.013      337.736        9.912      862.905
10/26/2014  05:21:00      -40.954       58.677       -9.724       38.126       27.860       16.085     1453.589      776.165      258.724        0.385        0.124       71.555       17.972        0.063      337.859       10.118      862.892
10/26/2014  05:22:00       28.912       94.985       -5.796       30.299       27.804       20.640      918.024      773.064      426.000        0.600        0.106       99.288       19.428        0.038      337.825       10.061      862.895
10/26/2014  05:23:00       25.424      126.002      -17.768       25.442       33.726       19.915      647.315     1137.447      396.610        0.951        0.109      128.542       18.279        0.020      337.812       10.039      862.895
10/26/2014  05:24:00       -9.638       96.332      -19.460       31.928       27.232       14.648     1019.428      741.603      214.567        0.586        0.099       96.813       17.188        0.032      337.894       10.178      862.913
10/26/2014  05:25:00      -82.983       -1.946      -15.378       23.416       32.919       16.867      548.293     1083.668      284.499        0.452        0.096       83.006       16.386        0.039      337.833       10.074      862.942
10/26/2014  05:26:00     -106.037       -9.041      -12.764       40.305       31.621       19.179     1624.476      999.890      367.848        0.724        0.150      106.421       19.751        0.034      337.744        9.926      862.968
10/26/2014  05:27:00     -124.241       40.518      -28.675       31.688       43.148       22.526     1004.150     1861.718      507.429        1.064        0.169      130.681       22.304        0.029      337.813       10.040      862.985
10/26/2014  05:28:00     -152.142       50.291      -29.615       35.854       85.688       29.788     1285.511     7342.477      887.316        1.803        0.476      160.238       16.349        0.010      337.821       10.053      862.999
10/26/2014  05:29:00      -32.738      -30.435        8.743       58.608       49.790       28.425     3434.952     2479.005      807.978        0.440        0.336       44.700       27.427        0.376      337.722        9.888      863.013
10/26/2014  05:30:00     -139.878       -8.371       -8.786       75.613       63.478       32.995     5717.395     4029.511     1088.664        1.527        0.542      140.128       37.578        0.072      337.837       10.080      863.006
10/26/2014  05:31:00      -42.238      -53.437       -3.747       51.308       35.762       23.115     2632.472     1278.908      534.305        0.455        0.222       68.114       14.320        0.044      337.940       10.255      862.984
10/26/2014  05:32:00      -37.807       -0.945       21.147       43.182       67.025       45.800     1864.712     4492.295     2097.611        0.516        0.423       37.819       15.427        0.166      337.885       10.161      862.941
10/26/2014  05:33:00      -24.976      -44.318      -16.817       43.724       28.934       23.585     1911.760      837.168      556.268        0.309        0.165       50.872       13.207        0.067      337.926       10.231      862.962
10/26/2014  05:34:00      -35.091       41.720      -13.099       55.256       72.738       26.703     3053.276     5290.841      713.066        0.610        0.453       54.515       38.032        0.487      337.885       10.162      862.971
10/26/2014  05:35:00     -116.796      111.540      -22.882       49.358       56.644       29.354     2436.252     3208.568      861.661        1.656        0.325      161.501       27.062        0.028      337.905       10.194      862.999
10/26/2014  05:36:00     -131.372       57.366      -18.524       44.951       45.824       31.914     2020.576     2099.826     1018.518        1.301        0.257      143.350       23.056        0.026      337.881       10.155      863.013
10/26/2014  05:37:00      -73.118      142.334      -16.423       38.617       58.779       23.749     1491.244     3454.937      564.007        1.569        0.276      160.016       25.404        0.025      337.936       10.246      863.020
10/26/2014  05:38:00      -58.451      145.725      -16.626       48.972       41.038       35.748     2398.220     1684.148     1277.919        1.514        0.268      157.010       30.560        0.038      337.900       10.186      863.008
10/26/2014  05:39:00      -40.364       87.268      -19.247       33.470       60.937       20.305     1120.274     3713.340      412.282        0.743        0.262       96.151        9.774        0.010      337.862       10.121      863.024
10/26/2014  05:40:00     -162.682      -40.833      -12.975       56.518       54.592       22.858     3194.265     2980.283      522.500        1.750        0.335      167.728       17.829        0.011      337.880       10.150      863.056
10/26/2014  05:41:00     -238.064     -105.845       -2.967      100.947       73.653       43.439    10190.316     5424.719     1886.977        4.269        0.875      260.533       37.803        0.021      337.835       10.074      863.101
10/26/2014  05:42:00     -105.506     -234.510       -5.196       94.790      109.104       61.135     8985.055    11903.615     3737.528        4.538        1.231      257.151       42.208        0.027      337.993       10.339      863.121
10/26/2014  05:43:00      -79.617     -118.289      -18.145       74.704       51.783       35.520     5580.722     2681.459     1261.639        1.509        0.476      142.588       23.730        0.028      338.013       10.376      863.069
10/26/2014  05:44:00     -253.104     -172.813       -3.517      130.688       88.950       54.475    17079.345     7912.017     2967.502        6.094        1.398      306.473       62.419        0.041      337.971       10.303      863.097
10/26/2014  05:45:00     -193.053     -214.115       -6.411      134.300      122.329       61.254    18036.492    14964.293     3752.046        5.995        1.838      288.296       75.687        0.069      337.998       10.350      863.096
10/26/2014  05:46:00     -133.044     -149.390       -7.885      107.946       98.268       50.887    11652.415     9656.692     2589.461        3.198        1.195      200.046       45.371        0.051      338.020       10.386      863.058
10/26/2014  05:47:00     -299.720     -158.676        8.804      156.462      114.075       76.975    24480.430    13013.161     5925.123        7.924        2.171      339.132       86.923        0.066      337.983       10.325      863.066
10/26/2014  05:48:00     -361.610     -194.036        0.713      160.215       85.726       63.790    25668.992     7348.994     4069.101       10.274        1.854      410.380       63.510        0.024      337.977       10.314      863.086
10/26/2014  05:49:00     -170.467      -58.177        8.151      148.145       74.957       48.028    21946.965     5618.563     2306.696        3.119        1.494      180.121       65.339        0.132      337.920       10.217      863.071
10/26/2014  05:50:00      -91.309     -112.478       -0.147       76.870       95.561       42.288     5908.937     9131.884     1788.251        1.891        0.841      144.875       37.353        0.066      337.952       10.272      863.052
10/26/2014  05:51:00     -145.011     -161.605      -11.123       44.393       77.783       30.274     1970.701     6050.183      916.491        2.810        0.447      217.127       16.983        0.006      337.987       10.331      863.044
10/26/2014  05:52:00     -160.309     -135.595       -4.097       95.479       63.564       41.254     9116.189     4040.374     1701.852        2.948        0.743      209.964       31.585        0.023      337.966       10.296      863.031
10/26/2014  05:53:00     -176.980     -130.916       10.078      103.977       80.243       55.044    10811.196     6438.943     3029.864        3.442        1.014      220.138       59.812        0.074      337.911       10.202      863.021
10/26/2014  05:54:00     -232.390     -168.438        2.113      133.075      116.517       63.727    17708.977    13576.104     4061.182        5.886        1.767      287.013       73.636        0.066      337.876       10.143      863.023
10/26/2014  05:55:00     -369.338     -182.104       -7.629      128.697      131.027       72.754    16562.883    17168.025     5293.111       10.432        1.951      411.792       77.234        0.035      337.840       10.082      862.991
10/26/2014  05:56:00     -321.317     -190.179       -5.681      153.596      105.108       61.755    23591.642    11047.786     3813.665        8.894        1.923      373.380       71.175        0.036      337.806       10.026      862.984
10/26/2014  05:57:00     -274.785     -206.660       -5.421      144.470      100.668       72.036    20871.458    10134.033     5189.140        7.721        1.810      343.824       80.358        0.055      337.758        9.945      862.968
10/26/2014  05:58:00     -251.801     -162.610        0.799      124.831      111.013       69.128    15582.704    12323.923     4778.669        6.126        1.634      299.743       66.256        0.049      337.815       10.042      862.918
10/26/2014  05:59:00     -292.810     -210.353      -18.706      131.890       81.095       50.940    17395.091     6576.444     2594.865        7.845        1.328      360.536       44.420        0.015      337.834       10.073      862.900
10/26/2014  06:00:00     -224.479     -135.177        0.795      122.967      110.641       65.588    15120.866    12241.380     4301.801        5.016        1.583      262.038       63.291        0.058      337.773        9.970      862.907
10/26/2014  06:01:00     -260.044     -106.621       -6.735      121.453      115.068       59.918    14750.948    13240.579     3590.180        5.530        1.579      281.053       65.386        0.054      337.705        9.857      862.881
10/26/2014  06:02:00     -348.653     -204.467        3.084      140.284      125.514       69.379    19679.534    15753.750     4813.508       10.180        2.012      404.185       70.177        0.030      337.721        9.882      862.866
10/26/2014  06:03:00     -278.165     -202.475      -18.547      108.486      129.218       62.732    11769.295    16697.323     3935.344        7.555        1.620      344.053       64.362        0.035      337.788        9.996      862.829
10/26/2014  06:04:00     -210.051     -151.508        8.597      133.244      123.031       60.629    17754.037    15136.532     3675.935        5.185        1.828      258.990       71.837        0.077      337.735        9.907      862.791
10/26/2014  06:05:00     -345.480     -161.742      -14.267      184.726      140.219       79.260    34123.604    19661.311     6282.125       10.288        3.003      381.467       87.218        0.052      337.729        9.896      862.772
10/26/2014  06:06:00     -392.010     -180.340      -13.262      190.927      141.934       78.322    36453.007    20145.165     6134.374       12.454        3.137      431.503       86.979        0.041      337.732        9.902      862.782
10/26/2014  06:07:00     -300.819     -102.054        2.266      157.114      153.736       74.630    24684.854    23634.654     5569.573        7.739        2.694      317.659       90.610        0.081      337.700        9.848      862.781
10/26/2014  06:08:00     -225.127     -156.214        5.974      167.745      123.961       69.902    28138.472    15366.340     4886.226        6.175        2.420      274.017       78.247        0.082      337.681        9.816      862.757
10/26/2014  06:09:00     -345.107     -113.430       -9.086      131.821      123.634       66.592    17376.804    15285.374     4434.497        8.456        1.855      363.271       74.079        0.042      337.655        9.773      862.760
10/26/2014  06:10:00     -225.984     -102.155        1.360      158.209       99.126       56.940    25030.153     9826.038     3242.130        4.979        1.905      248.001       77.684        0.098      337.613        9.703      862.781
10/26/2014  06:11:00     -325.527     -156.475      -27.586       96.840       81.323       55.036     9377.985     6613.433     3028.957        7.511        0.951      361.182       50.425        0.019      337.654        9.772      862.780
10/26/2014  06:12:00     -273.355     -107.785       -8.482      108.586       79.312       55.363    11790.903     6290.342     3065.081        5.378        1.057      293.838       50.181        0.029      337.641        9.749      862.806
10/26/2014  06:13:00     -228.481     -106.319       12.004      178.259      113.950       77.763    31776.445    12984.661     6047.123        5.722        2.540      252.007       90.464        0.129      337.642        9.752      862.836
10/26/2014  06:14:00     -285.300     -102.834       -3.882      130.199       82.911       62.515    16951.804     6874.182     3908.107        5.985        1.387      303.267       62.027        0.042      337.604        9.687      862.842
10/26/2014  06:15:00     -202.949     -139.555        0.302      153.842      128.900       65.591    23667.383    16615.255     4302.230        5.262        2.229      246.300       63.780        0.067      337.652        9.769      862.856
10/26/2014  06:16:00     -305.005     -237.586      -12.272      161.746      169.413       78.485    26161.678    28700.855     6159.916       10.531        3.051      386.620       79.076        0.042      337.665        9.790      862.827
10/26/2014  06:17:00     -340.234     -132.606      -27.067      163.676      136.146       76.208    26789.928    18535.636     5807.677        9.259        2.557      365.162       77.408        0.045      337.667        9.791      862.837
10/26/2014  06:18:00     -413.254     -215.254      -10.895      162.646      139.310       69.828    26453.689    19407.144     4875.915       13.397        2.537      465.954       70.431        0.023      337.665        9.790      862.853
10/26/2014  06:19:00     -204.775     -112.774       -3.876      150.123      107.707       68.798    22537.061    11600.808     4733.131        4.676        1.944      233.775       66.826        0.082      337.605        9.690      862.876
10/26/2014  06:20:00     -250.876     -108.145       -0.823      135.515      118.598       68.855    18364.451    14065.389     4740.948        5.590        1.859      273.192       75.920        0.077      337.572        9.634      862.875
10/26/2014  06:21:00     -246.752      -79.492       -0.833      128.689       97.467       63.699    16560.790     9499.897     4057.554        4.866        1.506      259.241       71.667        0.076      337.516        9.538      862.874
10/26/2014  06:22:00     -300.998     -123.165       -8.319      101.954       82.949       44.967    10394.664     6880.495     2022.075        6.256        0.965      325.222       40.664        0.016      337.464        9.452      862.882
10/26/2014  06:23:00     -286.403      -76.297       -7.953      129.514      105.961       55.446    16773.852    11227.765     3074.219        5.949        1.554      296.392       67.261        0.051      337.457        9.440      862.886
10/26/2014  06:24:00     -326.962      -44.699      -17.110       95.373      104.838       50.862     9095.954    10990.998     2586.945        6.593        1.134      330.004       45.271        0.019      337.491        9.497      862.875
10/26/2014  06:25:00     -259.728     -100.820        0.266      132.894      102.257       59.586    17660.883    10456.439     3550.442        5.464        1.583      278.609       64.526        0.054      337.426        9.387      862.909
10/26/2014  06:26:00     -235.494     -201.094      -15.320      107.897       90.217       51.306    11641.773     8139.173     2632.264        5.927        1.121      309.671       50.659        0.027      337.476        9.473      862.905
10/26/2014  06:27:00     -296.618     -103.444      -11.193       91.157       73.697       47.612     8309.630     5431.297     2266.887        5.740        0.800      314.139       46.418        0.022      337.379        9.311      862.892
10/26/2014  06:28:00     -232.744      -91.821       -7.267       74.338       55.878       42.720     5526.180     3122.306     1824.968        3.656        0.524      250.201       35.350        0.020      337.307        9.188      862.897
10/26/2014  06:29:00     -187.933     -109.001        2.847      141.845      104.243       60.447    20119.956    10866.683     3653.784        4.092        1.732      217.256       66.296        0.093      337.298        9.176      862.888
10/26/2014  06:30:00     -215.313      -89.702       -5.338      122.571      111.118       51.684    15023.558    12347.155     2671.220        4.223        1.502      233.251       55.680        0.057      337.292        9.164      862.897
10/26/2014  06:31:00     -366.890     -173.709      -19.748      128.128      129.673       67.612    16416.691    16815.042     4571.429       10.148        1.890      405.934       65.850        0.026      337.397        9.340      862.898
10/26/2014  06:32:00     -330.506     -114.560       -4.345      137.378       94.849       62.579    18872.652     8996.335     3916.079        7.707        1.589      349.798       67.836        0.038      337.357        9.275      862.913
10/26/2014  06:33:00     -329.196      -98.438       -7.136      126.094       98.841       54.711    15899.742     9769.629     2993.275        7.338        1.433      343.599       61.646        0.032      337.329        9.227      862.932
10/26/2014  06:34:00     -414.331      -91.969      -28.478      159.722      141.415       64.730    25511.254    19998.175     4190.030       11.531        2.485      424.416       62.515        0.022      337.402        9.347      862.949
10/26/2014  06:35:00     -296.483     -102.934       -0.214      137.807      113.657       64.047    18990.783    12917.992     4102.017        6.725        1.801      313.843       65.058        0.043      337.375        9.303      862.960
10/26/2014  06:36:00     -299.531     -112.044       -5.052      107.641      100.272       57.400    11586.560    10054.383     3294.775        6.361        1.247      319.801       61.144        0.037      337.428        9.391      862.973
10/26/2014  06:37:00     -198.022      -57.037        3.486       94.035      100.334       53.274     8842.633    10066.832     2838.085        3.211        1.087      206.073       40.778        0.039      337.361        9.282      862.986
10/26/2014  06:38:00     -248.563     -103.790      -13.034       96.671       72.054       47.613     9345.240     5191.784     2267.045        4.476        0.840      269.362       45.640        0.029      337.318        9.209      862.989
10/26/2014  06:39:00     -237.435      -11.326        2.311      119.157       82.340       58.351    14198.276     6779.809     3404.850        4.044        1.219      237.705       67.232        0.080      337.275        9.137      862.996
10/26/2014  06:40:00     -262.712      -46.250       -2.070      126.785       92.963       55.546    16074.555     8642.132     3085.339        4.948        1.390      266.752       61.704        0.054      337.260        9.110      863.018
10/26/2014  06:41:00     -224.982      -22.159        2.837      113.166       99.604       57.602    12806.550     9920.918     3318.013        3.858        1.302      226.071       57.528        0.065      337.232        9.066      863.032
10/26/2014  06:42:00     -294.004      -12.904      -18.903      108.859      100.980       59.890    11850.200    10196.948     3586.816        5.629        1.282      294.287       53.987        0.034      337.290        9.160      863.039
10/26/2014  06:43:00     -256.691      -24.055      -17.705      120.407      107.995       64.464    14497.795    11663.015     4155.654        4.854        1.516      257.816       56.399        0.048      337.326        9.221      863.044
10/26/2014  06:44:00     -214.070      -75.558      -11.284       93.138       92.009       48.101     8674.752     8465.726     2313.674        3.555        0.973      227.013       44.912        0.039      337.311        9.197      863.054
10/26/2014  06:45:00     -102.335      -21.101        8.894      163.673       78.906       61.757    26788.948     6226.157     3813.947        2.391        1.841      104.488       75.904        0.528      337.324        9.221      863.045
10/26/2014  06:46:00     -350.667     -101.867      -20.553       94.765       98.454       51.751     8980.361     9693.182     2678.154        7.756        1.068      365.164       46.373        0.016      337.328        9.225      863.032
10/26/2014  06:47:00     -388.939      -55.687      -11.161      124.281      112.539       51.694    15445.704    12665.134     2672.284        9.263        1.539      392.905       51.951        0.017      337.307        9.191      863.016
10/26/2014  06:48:00     -341.603     -131.039       -5.602      114.857      137.320       61.554    13192.058    18856.908     3788.852        8.486        1.792      365.874       62.003        0.029      337.309        9.194      863.010
10/26/2014  06:49:00     -241.667      -94.845        7.917      124.340      129.653       71.592    15460.352    16810.009     5125.449        5.242        1.870      259.612       77.167        0.088      337.267        9.123      863.004
10/26/2014  06:50:00     -330.332      -62.977      -17.116      115.447       95.757       54.837    13327.959     9169.310     3007.049        6.944        1.275      336.282       59.849        0.032      337.269        9.126      863.011
10/26/2014  06:51:00     -224.044      -63.290        1.255       82.243       87.095       47.844     6763.909     7585.549     2289.041        3.542        0.832      232.812       41.780        0.032      337.218        9.041      863.027
10/26/2014  06:52:00     -197.658      -65.366       21.133      183.088      102.182       60.939    33521.191    10441.128     3713.549        4.572        2.384      208.186       83.515        0.161      337.252        9.099      863.031
10/26/2014  06:53:00     -224.548      -65.500       -0.099      110.646       83.050       45.964    12242.437     6897.316     2112.646        3.798        1.063      233.906       49.282        0.044      337.218        9.041      863.042
10/26/2014  06:54:00     -249.464     -131.246      -14.236       99.748       80.493       54.990     9949.686     6479.088     3023.950        4.955        0.973      281.883       60.158        0.046      337.274        9.134      863.039
10/26/2014  06:55:00     -211.539      -83.009       -3.736      106.856       93.082       51.544    11418.107     8664.254     2656.806        3.719        1.137      227.243       55.689        0.060      337.233        9.066      863.039
10/26/2014  06:56:00     -187.707      -98.324        1.252      118.405      122.024       62.329    14019.674    14889.849     3884.940        3.884        1.640      211.900       64.805        0.094      337.245        9.086      863.039
10/26/2014  06:57:00     -183.322      -93.827        9.923      103.416      141.078       52.987    10694.858    19902.911     2807.628        3.795        1.670      205.938       50.304        0.060      337.259        9.110      863.052
10/26/2014  06:58:00     -212.509      -40.275        2.141      167.888      110.790       63.361    28186.250    12274.469     4014.648        4.562        2.224      216.292       75.981        0.123      337.251        9.097      863.059
10/26/2014  06:59:00     -247.565      -71.078       -9.442      188.041       69.471       61.896    35359.366     4826.181     3831.151        5.521        2.201      257.566       81.276        0.100      337.329        9.228      863.070
10/26/2014  07:00:00     -142.203      -45.779       -0.195      115.428       83.974       44.114    13323.671     7051.551     1946.082        2.231        1.116      149.390       49.974        0.112      337.241        9.081      863.095
10/26/2014  07:01:00     -320.944      -78.030      -35.074      126.054      119.182       63.985    15889.586    14204.277     4094.124        7.225        1.709      330.293       60.213        0.033      337.327        9.223      863.113
10/26/2014  07:02:00     -232.250      -79.009       -8.937      112.186      120.170       58.026    12585.642    14440.770     3366.993        4.532        1.520      245.321       56.234        0.053      337.329        9.226      863.130
10/26/2014  07:03:00     -230.964      -55.118       -7.230      100.214       62.402       45.567    10042.778     3894.013     2076.387        3.622        0.801      237.450       47.189        0.039      337.329        9.226      863.141
10/26/2014  07:04:00     -192.320      -61.552       -5.237       75.917       64.902       41.202     5763.353     4212.311     1697.623        2.624        0.584      201.930       41.022        0.041      337.306        9.190      863.177
10/26/2014  07:05:00     -105.615      -87.314       -1.721       97.412       76.514       53.104     9489.057     5854.433     2820.054        1.847        0.908      137.034       37.794        0.076      337.328        9.226      863.200
10/26/2014  07:06:00     -198.733      -71.044      -13.733       62.978       69.469       37.254     3966.192     4825.945     1387.871        2.745        0.509      211.050       29.712        0.020      337.340        9.246      863.207
10/26/2014  07:07:00     -156.222      -68.724       -4.996       60.290       58.578       33.888     3634.859     3431.336     1148.382        1.868        0.411      170.670       19.355        0.013      337.290        9.163      863.219
10/26/2014  07:08:00     -141.066      -28.967        2.922       78.868       50.074       32.123     6220.229     2507.403     1031.898        1.525        0.488      144.009       36.890        0.066      337.259        9.112      863.243
10/26/2014  07:09:00     -110.143      -43.799        8.577       95.937       77.754       42.233     9203.849     6045.740     1783.665        1.557        0.852      118.532       47.806        0.163      337.262        9.117      863.253
10/26/2014  07:10:00     -100.498      -39.595      -12.923       85.939       70.159       38.539     7385.544     4922.332     1485.228        1.281        0.690      108.017       39.133        0.131      337.244        9.087      863.265
10/26/2014  07:11:00      -59.159      -13.145        2.412       41.294       47.999       23.878     1705.206     2303.919      570.180        0.413        0.229       60.602       24.245        0.160      337.207        9.026      863.269
10/26/2014  07:12:00      -74.269      -45.565        5.188       71.333       55.679       39.665     5088.421     3100.192     1573.291        0.869        0.488       87.132       29.940        0.118      337.238        9.077      863.263
10/26/2014  07:13:00     -130.878      -81.510       -7.089       65.968       58.753       33.178     4351.759     3451.930     1100.751        1.636        0.445      154.185       33.825        0.048      337.252        9.101      863.280
10/26/2014  07:14:00      -40.554      -16.797        8.425       45.176       44.915       29.588     2040.905     2017.344      875.429        0.346        0.247       43.895       30.612        0.486      337.139        8.912      863.283
10/26/2014  07:15:00     -164.902      -63.942      -13.854       89.254       68.583       38.716     7966.235     4703.652     1498.892        2.282        0.708      176.865       35.717        0.041      337.276        9.137      863.282
10/26/2014  07:16:00     -214.792      -58.910      -12.528      108.777       68.139       50.523    11832.327     4642.946     2552.526        3.439        0.951      222.724       49.709        0.050      337.235        9.071      863.294
10/26/2014  07:17:00     -258.063       -5.839      -18.994      134.373       89.360       44.633    18056.130     7985.239     1992.106        4.751        1.402      258.129       46.112        0.032      337.279        9.143      863.285
10/26/2014  07:18:00     -316.444      -53.420      -16.015      124.519       98.233       45.686    15505.079     9649.739     2087.249        6.524        1.362      320.921       39.815        0.015      337.268        9.124      863.291
10/26/2014  07:19:00     -236.735      -82.511       -8.609      107.426       75.717       42.284    11540.435     5732.998     1787.969        4.099        0.953      250.702       35.999        0.021      337.185        8.987      863.291
10/26/2014  07:20:00     -210.146      -96.992       -1.197       91.259       89.537       45.848     8328.139     8016.927     2102.060        3.600        0.922      231.449       44.025        0.036      337.201        9.013      863.294
10/26/2014  07:21:00     -233.056     -115.653      -11.329       65.625       68.721       44.593     4306.625     4722.599     1988.566        3.942        0.551      260.174       27.580        0.011      337.302        9.180      863.278
10/26/2014  07:22:00     -222.640      -76.902       -8.500       78.522       65.586       41.877     6165.645     4301.537     1753.680        3.389        0.611      235.547       40.980        0.030      337.259        9.109      863.271
10/26/2014  07:23:00     -149.168      -29.244        7.059       72.170       74.572       40.018     5208.505     5560.993     1601.408        1.776        0.619      152.008       39.539        0.068      337.225        9.055      863.276
10/26/2014  07:24:00     -163.937      -93.398       -1.495      123.021      122.862       67.633    15134.187    15095.175     4574.175        3.520        1.740      188.676       73.669        0.152      337.269        9.126      863.276
10/26/2014  07:25:00     -281.380      -44.796      -23.496       86.967       98.448       36.196     7563.318     9692.022     1310.125        5.015        0.928      284.924       27.727        0.009      337.334        9.235      863.282
10/26/2014  07:26:00     -279.496     -137.927      -19.205      105.895       83.475       49.027    11213.763     6968.055     2403.652        5.904        1.029      311.676       23.105        0.005      337.325        9.219      863.287
10/26/2014  07:27:00     -214.030     -101.285       -5.167       85.095      103.629       44.878     7241.152    10738.900     2014.009        3.804        1.000      236.786       34.348        0.021      337.250        9.096      863.289
10/26/2014  07:28:00     -205.531      -56.132        0.141      112.834       73.087       41.811    12731.471     5341.723     1748.175        3.260        0.991      213.058       50.534        0.056      337.267        9.124      863.286
10/26/2014  07:29:00     -170.996      -36.690       -4.387       78.829       69.151       38.265     6213.959     4781.831     1464.237        2.153        0.623      174.888       34.770        0.040      337.154        8.936      863.275
10/26/2014  07:30:00     -278.775      -82.609      -11.844      110.017       76.896       42.063    12103.637     5912.924     1769.320        5.223        0.989      290.758       29.789        0.010      337.201        9.013      863.261
10/26/2014  07:31:00     -244.547      -66.263       -9.602       87.008       62.235       39.628     7570.417     3873.158     1570.354        3.865        0.651      253.366       43.646        0.030      337.207        9.021      863.248
10/26/2014  07:32:00     -232.037      -41.058       -6.733      103.461       66.133       47.267    10704.269     4373.569     2234.183        3.644        0.866      235.642       47.776        0.041      337.129        8.893      863.237
10/26/2014  07:33:00     -283.061      -44.252      -25.295       79.591       62.594       40.446     6334.733     3917.982     1635.885        4.730        0.594      286.499       37.705        0.017      337.117        8.872      863.237
10/26/2014  07:34:00     -239.650      -46.099      -10.255       94.155       58.286       45.869     8865.230     3397.259     2103.950        3.701        0.718      244.043       49.008        0.040      337.115        8.867      863.234
10/26/2014  07:35:00     -216.227      -45.902       -3.017       90.262       82.270       44.721     8147.235     6768.328     1999.960        3.289        0.846      221.046       37.705        0.029      337.080        8.809      863.250
10/26/2014  07:36:00     -226.692      -52.427        1.991       92.740       77.278       42.153     8600.673     5971.821     1776.875        3.524        0.817      232.675       39.011        0.028      337.049        8.757      863.259
10/26/2014  07:37:00     -295.129      -31.787      -23.595       97.580       62.784       49.971     9521.940     3941.832     2497.144        5.231        0.798      296.836       47.332        0.025      337.042        8.746      863.252
10/26/2014  07:38:00     -321.115      -83.526      -19.950      129.042      107.549       60.364    16651.789    11566.891     3643.815        7.117        1.593      331.800       64.821        0.038      337.063        8.781      863.237
10/26/2014  07:39:00     -383.589      -51.101      -21.658      142.693       99.981       64.810    20361.254     9996.168     4200.359        9.238        1.728      386.978       73.550        0.036      337.127        8.888      863.220
10/26/2014  07:40:00     -304.918     -131.563      -16.059      108.228       81.031       47.926    11713.358     6565.962     2296.869        6.555        1.029      332.090       50.077        0.023      337.113        8.866      863.205
10/26/2014  07:41:00     -263.500      -44.246        7.057      126.202       93.934       60.929    15926.996     8823.635     3712.398        4.995        1.423      267.189       67.135        0.063      337.092        8.829      863.202
10/26/2014  07:42:00     -285.500      -66.959       -3.319      112.717       79.437       50.935    12705.066     6310.232     2594.418        5.380        1.080      293.247       58.201        0.039      337.095        8.835      863.181
10/26/2014  07:43:00     -334.474      -69.221      -19.847      126.504      101.983       61.755    16003.203    10400.552     3813.625        7.363        1.511      341.561       56.734        0.028      337.086        8.818      863.181
10/26/2014  07:44:00     -321.533      -36.239      -12.120      132.148       98.290       58.291    17463.094     9660.951     3397.844        6.768        1.526      323.569       66.372        0.042      337.042        8.746      863.233
10/26/2014  07:45:00     -347.302      -21.707      -17.344      143.258      111.684       70.628    20522.932    12473.357     4988.347        7.968        1.899      347.979       71.835        0.043      337.061        8.777      863.264
10/26/2014  07:46:00     -336.306      -69.465      -10.433      151.689      100.682       61.848    23009.684    10136.917     3825.192        7.750        1.849      343.405       70.264        0.042      337.090        8.824      863.290
10/26/2014  07:47:00     -251.751      -68.847      -18.709       85.562       92.869       53.318     7320.815     8624.640     2842.811        4.362        0.939      260.995       44.143        0.029      337.075        8.800      863.299
10/26/2014  07:48:00     -260.664      -50.014       -2.786       97.136       88.153       61.173     9435.320     7771.039     3742.108        4.570        1.047      265.419       58.070        0.048      337.070        8.792      863.306
10/26/2014  07:49:00     -284.621      -42.362       -5.838      135.218       90.762       65.352    18283.961     8237.800     4270.897        5.681        1.540      287.756       70.063        0.059      337.050        8.759      863.322
10/26/2014  07:50:00     -233.057      -55.462       -0.628      140.986       90.978       57.383    19877.175     8277.042     3292.834        4.441        1.572      239.566       67.165        0.079      337.033        8.731      863.332
10/26/2014  07:51:00     -340.159      -32.531      -18.194      108.762       85.454       52.966    11829.263     7302.412     2805.428        6.951        1.097      341.712       61.706        0.033      337.034        8.730      863.345
10/26/2014  07:52:00     -234.636      -54.557       -1.379      114.594       84.117       56.473    13131.749     7075.634     3189.190        4.071        1.170      240.895       62.683        0.068      337.020        8.709      863.346
10/26/2014  07:53:00     -177.418      -69.836        1.223       98.338       85.227       44.612     9670.427     7263.601     1990.232        2.764        0.946      190.668       49.048        0.066      337.027        8.721      863.349
10/26/2014  07:54:00     -277.242      -34.983      -23.597      133.185       76.320       51.787    17738.336     5824.756     2681.901        5.244        1.312      279.441       45.168        0.026      336.999        8.674      863.363
10/26/2014  07:55:00     -227.913      -42.365       -0.304      120.885       78.776       58.592    14613.300     6205.595     3432.979        3.899        1.213      231.817       63.614        0.075      336.999        8.673      863.364
10/26/2014  07:56:00     -173.788      -28.337        7.830      140.192       70.829       49.050    19653.750     5016.678     2405.880        2.907        1.354      176.083       60.256        0.117      337.004        8.681      863.373
10/26/2014  07:57:00     -198.969      -87.675      -13.245       75.161       73.132       39.376     5649.228     5348.350     1550.492        3.000        0.627      217.430       41.780        0.037      337.003        8.680      863.400
10/26/2014  07:58:00     -196.095      -84.292      -11.119       67.407       67.340       41.406     4543.741     4534.714     1714.493        2.824        0.540      213.444       31.489        0.022      337.019        8.708      863.417
10/26/2014  07:59:00     -265.505      -29.453      -24.139       89.031       78.205       47.953     7926.549     6115.966     2299.525        4.414        0.817      267.133       42.417        0.025      337.018        8.706      863.418
10/26/2014  08:00:00     -219.248      -84.333       -1.561      101.636       79.829       48.425    10329.871     6372.654     2345.015        3.711        0.952      234.908       47.462        0.041      337.018        8.706      863.445
10/26/2014  08:01:00     -163.382      -42.343        6.255      122.285       79.350       48.634    14953.579     6296.480     2365.290        2.607        1.181      168.780       57.067        0.114      337.051        8.761      863.454
10/26/2014  08:02:00     -284.676        1.506      -12.373       93.949       86.112       55.263     8826.322     7415.280     3054.005        5.024        0.965      284.680       48.628        0.029      337.085        8.817      863.459
10/26/2014  08:03:00     -235.232      -20.189       -8.348       98.113       69.784       44.240     9626.235     4869.835     1957.210        3.613        0.823      236.097       46.696        0.039      337.096        8.836      863.481
10/26/2014  08:04:00     -128.145      -19.364        5.682       85.707       61.102       38.057     7345.702     3733.511     1448.329        1.468        0.626      129.600       38.569        0.089      337.135        8.903      863.528
10/26/2014  08:05:00     -157.159      -50.542       -7.032       88.538       71.625       39.063     7838.898     5130.194     1525.905        2.090        0.725      165.086       40.790        0.061      337.183        8.984      863.544
10/26/2014  08:06:00     -184.721      -46.592       10.138      131.162      119.836       60.721    17203.532    14360.688     3687.026        3.582        1.763      190.506       68.230        0.128      337.250        9.097      863.568
10/26/2014  08:07:00     -183.477      -42.402       -0.949      136.465       90.255       56.268    18622.822     8146.039     3166.097        3.269        1.497      188.313       65.885        0.122      337.296        9.172      863.564
10/26/2014  08:08:00     -317.400      -76.076      -17.471      138.154       77.353       63.986    19086.418     5983.436     4094.152        6.799        1.458      326.390       56.053        0.029      337.317        9.207      863.583
10/26/2014  08:09:00     -294.087      -89.942      -15.458      103.231       95.281       44.077    10656.660     9078.513     1942.757        5.824        1.084      307.534       50.830        0.027      337.349        9.259      863.619
10/26/2014  08:10:00     -236.993      -61.107       -8.118       88.613       75.594       44.617     7852.279     5714.505     1990.682        3.776        0.778      244.744       40.220        0.027      337.378        9.309      863.634
10/26/2014  08:11:00     -297.173       21.766      -29.908       89.243       57.582       39.046     7964.353     3315.718     1524.612        5.124        0.640      297.970       44.438        0.022      337.344        9.252      863.649
10/26/2014  08:12:00     -186.030      -67.453      -12.868       82.780       68.853       41.514     6852.567     4740.677     1723.414        2.632        0.666      197.881       38.489        0.038      337.398        9.343      863.674
10/26/2014  08:13:00     -199.413      -90.320       -1.020       83.680       65.968       37.297     7002.406     4351.786     1391.063        3.033        0.637      218.914       34.486        0.025      337.422        9.381      863.700
10/26/2014  08:14:00     -253.180      -43.393        1.122       90.259       72.842       45.913     8146.735     5306.006     2107.972        4.077        0.778      256.872       45.466        0.031      337.407        9.358      863.732
10/26/2014  08:15:00     -270.476      -90.438       -9.115       64.738       53.095       32.445     4191.012     2819.123     1052.688        4.474        0.403      285.195       34.381        0.015      337.429        9.393      863.746
10/26/2014  08:16:00     -262.298      -67.122      -10.283       69.199       58.397       38.734     4788.446     3410.186     1500.351        4.155        0.485      270.750       38.609        0.020      337.472        9.465      863.774
10/26/2014  08:17:00     -246.534      -55.181      -17.511       60.966       59.196       35.487     3716.873     3504.165     1259.353        3.630        0.424      252.634       32.489        0.017      337.454        9.434      863.782
10/26/2014  08:18:00     -303.540       59.486      -34.446      102.969       61.241       40.818    10602.645     3750.512     1666.118        5.644        0.801      309.314       43.206        0.020      337.379        9.311      863.805
10/26/2014  08:19:00     -297.515     -112.289      -20.958      107.567       83.499       53.565    11570.685     6972.097     2869.236        6.148        1.071      318.000       52.535        0.027      337.430        9.395      863.795
10/26/2014  08:20:00     -184.139      -12.796      -19.154       71.267       53.460       37.090     5078.995     2857.928     1375.703        2.187        0.466      184.583       39.140        0.045      337.452        9.434      863.808
10/26/2014  08:21:00     -157.989       -7.279      -24.004       51.663       65.878       39.794     2669.042     4339.922     1583.601        1.709        0.430      158.157       16.708        0.011      337.497        9.509      863.803
10/26/2014  08:22:00     -117.036      -10.053       -0.005       57.405       59.601       35.421     3295.310     3552.298     1254.676        1.095        0.405      117.467       35.561        0.092      337.541        9.584      863.792
10/26/2014  08:23:00     -182.543      -36.182      -22.109       81.268       89.694       36.238     6604.495     8044.973     1313.219        2.554        0.798      186.094       30.641        0.027      337.499        9.513      863.786
10/26/2014  08:24:00     -108.012      -11.564       -5.299       93.287       87.595       54.610     8702.505     7672.963     2982.282        1.559        0.968      108.629       52.273        0.232      337.521        9.549      863.790
10/26/2014  08:25:00     -204.473      -79.806      -16.855       79.707       65.390       39.190     6353.193     4275.831     1535.846        3.031        0.608      219.495       27.855        0.016      337.514        9.537      863.793
10/26/2014  08:26:00     -241.950      -30.176      -23.996      103.357       97.952       43.829    10682.745     9594.547     1920.943        4.111        1.110      243.824       40.158        0.027      337.511        9.530      863.808
10/26/2014  08:27:00     -151.268      -17.551      -27.127       62.657       85.560       41.143     3925.924     7320.435     1692.736        1.843        0.647      152.282       27.598        0.033      337.550        9.597      863.829
10/26/2014  08:28:00     -234.778      -75.012      -13.937       60.886       61.312       37.382     3707.144     3759.212     1397.377        3.490        0.443      246.471       32.056        0.017      337.580        9.645      863.825
10/26/2014  08:29:00     -285.330      -71.476      -22.907       71.179       58.556       33.967     5066.428     3428.785     1153.760        4.835        0.482      294.146       28.186        0.009      337.578        9.641      863.838
10/26/2014  08:30:00     -183.592      -25.251      -20.351       81.161       60.343       38.297     6587.097     3641.248     1466.683        2.322        0.585      185.320       27.621        0.022      337.596        9.675      863.855
10/26/2014  08:31:00      -86.069       -1.116       -8.480       48.727       53.071       29.735     2374.300     2816.559      884.196        0.678        0.304       86.076        9.815        0.013      337.620        9.717      863.853
10/26/2014  08:32:00     -189.085        6.261      -33.836       57.216      100.338       37.121     3273.637    10067.780     1377.938        2.583        0.736      189.188       26.754        0.020      337.507        9.525      863.843
10/26/2014  08:33:00     -167.743      147.975      -31.329       87.910       99.805       55.395     7728.245     9960.949     3068.635        3.588        1.038      223.683       67.713        0.092      337.506        9.524      863.876
10/26/2014  08:34:00     -216.995      171.032      -44.120      109.583      130.145       73.610    12008.443    16937.793     5418.495        5.632        1.718      276.295       76.758        0.077      337.456        9.438      863.873
10/26/2014  08:35:00     -150.589       90.889      -29.274       69.912       84.015       48.339     4887.679     7058.469     2336.628        2.304        0.714      175.892       52.759        0.090      337.470        9.464      863.861
10/26/2014  08:36:00     -228.586     -116.667       -9.825      134.667       83.037       44.583    18135.114     6895.076     1987.628        4.648        1.351      256.637       50.819        0.039      337.514        9.537      863.854
10/26/2014  08:37:00     -236.358      -43.493      -28.730       76.279       85.256       46.410     5818.485     7268.525     2153.856        3.691        0.762      240.327       25.923        0.012      337.501        9.514      863.848
10/26/2014  08:38:00     -267.709      -89.440      -24.352       81.397       80.874       45.214     6625.439     6540.673     2044.263        4.773        0.761      282.255       25.544        0.008      337.563        9.617      863.858
10/26/2014  08:39:00     -185.115      -59.067      -23.061       78.028       59.595       45.501     6088.357     3551.600     2070.375        2.500        0.586      194.310       26.442        0.019      337.613        9.703      863.857
10/26/2014  08:40:00     -233.458      -76.007       -7.271      171.299       89.603       56.019    29343.355     8028.655     3138.150        5.041        2.026      245.519       53.164        0.047      337.678        9.812      863.838
10/26/2014  08:41:00     -224.137      -38.951      -25.980      115.779       71.737       40.205    13404.875     5146.266     1616.477        3.629        1.008      227.496       43.678        0.037      337.718        9.880      863.851
10/26/2014  08:42:00     -236.205     -100.488       -8.379       79.707       86.393       47.709     6353.227     7463.800     2276.195        4.102        0.805      256.692       42.651        0.028      337.747        9.926      863.853
10/26/2014  08:43:00     -140.411      -34.721       12.655      120.460       95.265       59.458    14510.668     9075.446     3535.258        2.410        1.356      144.640       64.394        0.198      337.846       10.096      863.867
10/26/2014  08:44:00     -390.876      -21.853      -36.417      101.074       84.978       47.598    10215.895     7221.226     2265.580        8.714        0.985      391.486       49.513        0.016      337.783        9.987      863.869
10/26/2014  08:45:00     -303.928      -58.583       -2.278      147.916      107.383       75.414    21879.088    11531.171     5687.289        6.745        1.955      309.523       89.940        0.084      337.756        9.943      863.860
10/26/2014  08:46:00     -322.238      -15.946      -25.647      104.279       95.851       55.968    10874.035     9187.396     3132.396        6.397        1.160      322.632       53.845        0.028      337.775        9.974      863.849
10/26/2014  08:47:00     -459.486      -52.404      -52.728      137.718       71.920       52.712    18966.293     5172.489     2778.566       12.178        1.346      462.465       60.600        0.017      337.643        9.752      863.817
10/26/2014  08:48:00     -369.959     -144.797      -26.956      108.830      105.663       65.696    11844.042    11164.751     4316.016        9.294        1.366      397.286       57.985        0.021      337.708        9.861      863.803
10/26/2014  08:49:00     -426.590      -35.084      -42.403      109.875      117.576       51.285    12072.563    13824.049     2630.196       10.676        1.426      428.030       42.483        0.010      337.746        9.924      863.795
10/26/2014  08:50:00     -422.131      -69.475      -29.863      141.895      104.414       63.640    20134.214    10902.207     4050.111       10.949        1.754      427.810       66.379        0.024      337.742        9.918      863.802
10/26/2014  08:51:00     -396.758     -111.851      -36.379      140.915      135.928       70.819    19857.134    18476.415     5015.288       10.729        2.167      412.222       64.383        0.024      337.765        9.957      863.788
10/26/2014  08:52:00     -354.248     -114.739       -0.801      184.404      139.886       61.527    34004.985    19568.046     3785.632        9.800        2.868      372.367       74.596        0.040      337.799       10.014      863.799
10/26/2014  08:53:00     -450.762     -102.305      -15.510      142.515      124.446       70.638    20310.594    15486.912     4989.705       12.733        2.039      462.226       66.353        0.021      337.736        9.909      863.813
10/26/2014  08:54:00     -438.775     -120.050       -2.699      168.082      172.107       86.750    28251.505    29620.975     7525.478       13.616        3.270      454.901       90.098        0.039      337.692        9.834      863.821
10/26/2014  08:55:00     -565.453      -89.772      -38.596      180.889      139.548       87.756    32720.724    19473.586     7701.129       19.458        2.995      572.534       85.833        0.022      337.675        9.808      863.807
10/26/2014  08:56:00     -433.475     -125.300      -35.045      193.981      172.900       73.286    37628.608    29894.299     5370.834       13.885        3.645      451.222       75.715        0.028      337.736        9.908      863.793
10/26/2014  08:57:00     -357.420      -71.186      -29.197      138.684      157.644       79.149    19233.215    24851.684     6264.622        9.200        2.517      364.440       67.558        0.034      337.775        9.974      863.779
10/26/2014  08:58:00     -321.563      -64.078      -39.344      161.628      135.725       80.003    26123.586    18421.161     6400.523        7.999        2.547      327.885       50.006        0.023      337.754        9.940      863.780
10/26/2014  08:59:00     -452.352      -23.018      -32.692      186.836      127.853       79.376    34907.818    16346.456     6300.605       13.188        2.878      452.937       87.067        0.037      337.737        9.910      863.800
10/26/2014  09:00:00     -442.744      -42.216      -25.101      141.452      125.462       69.323    20008.751    15740.608     4805.618       11.949        2.028      444.752       63.307        0.020      337.713        9.870      863.811
10/26/2014  09:01:00     -326.658      -78.721      -42.792      143.289      119.266       67.783    20531.739    14224.294     4594.580        7.703        1.968      336.010       39.647        0.014      337.767        9.961      863.788
10/26/2014  09:02:00     -329.140      -66.992      -20.786      120.760       94.686       44.526    14583.044     8965.403     1982.587        6.939        1.277      335.888       38.451        0.013      337.828       10.063      863.798
10/26/2014  09:03:00     -237.703      -50.937      -12.718      115.964      105.117       53.668    13447.614    11049.574     2880.280        4.331        1.369      243.099       57.696        0.056      337.898       10.179      863.804
10/26/2014  09:04:00     -217.374      -79.145       -9.445      156.606      106.764       53.052    24525.579    11398.465     2814.482        4.616        1.937      231.334       52.608        0.052      337.953       10.273      863.800
10/26/2014  09:05:00     -360.503     -143.907      -14.217      145.253      101.606       73.226    21098.306    10323.684     5362.006        9.382        1.839      388.164       69.722        0.032      337.886       10.160      863.779
10/26/2014  09:06:00     -259.461      -94.211       -9.960      140.918      145.765       66.105    19857.978    21247.465     4369.913        6.088        2.274      276.036       65.393        0.056      337.959       10.282      863.764
10/26/2014  09:07:00     -477.100      -37.751      -21.233      147.315      175.862       79.043    21701.818    30927.572     6247.873       14.418        2.944      478.591       81.137        0.029      337.799       10.012      863.782
10/26/2014  09:08:00     -322.117      -45.662      -14.931      156.032      117.504       77.908    24345.913    13807.243     6069.600        7.514        2.211      325.338       90.785        0.078      337.870       10.134      863.770
10/26/2014  09:09:00     -266.893      -73.103      -19.267      114.242      134.022       54.355    13051.348    17961.940     2954.512        5.545        1.698      276.724       46.417        0.028      337.921       10.218      863.759
10/26/2014  09:10:00     -194.354      -61.858        8.944      107.884      122.603       51.989    11639.002    15031.507     2702.830        3.552        1.469      203.960       51.446        0.064      338.030       10.402      863.772
10/26/2014  09:11:00     -334.310     -132.933        1.033      124.670      108.238       59.015    15542.611    11715.563     3482.818        8.008        1.537      359.770       59.754        0.028      337.943       10.256      863.779
10/26/2014  09:12:00     -243.755      -14.391      -12.965      115.737       91.831       61.156    13395.071     8432.880     3740.071        4.267        1.278      244.180       64.443        0.070      337.976       10.312      863.793
10/26/2014  09:13:00     -292.668      -74.721      -13.320      117.808      107.660       53.819    13878.650    11590.723     2896.492        5.989        1.418      302.056       54.191        0.032      337.981       10.319      863.756
10/26/2014  09:14:00     -253.630     -116.536       -0.534      161.364      131.520       75.633    26038.207    17297.488     5720.336        6.347        2.453      279.122       82.456        0.087      338.051       10.436      863.762
10/26/2014  09:15:00     -307.362      -34.289      -19.741      148.138      126.337       78.456    21944.766    15961.088     6155.348        7.004        2.203      309.268       82.973        0.072      338.002       10.354      863.729
10/26/2014  09:16:00     -383.677       21.337      -18.898      209.024      132.694       73.949    43690.964    17607.826     5468.442       10.738        3.338      384.270       83.571        0.047      337.988       10.330      863.728
10/26/2014  09:17:00     -339.209     -112.829       -2.409      189.091      137.971       68.148    35755.340    19036.061     4644.115        9.361        2.972      357.482       73.443        0.042      338.002       10.354      863.704
10/26/2014  09:18:00     -368.597     -171.628      -16.587      139.402      122.971       64.813    19432.857    15121.932     4200.766       10.217        1.938      406.595       58.357        0.021      338.043       10.424      863.721
10/26/2014  09:19:00     -368.899      -60.999      -13.143      201.951      141.585       81.471    40784.150    20046.329     6637.577       10.371        3.373      373.908      100.093        0.072      338.061       10.455      863.739
10/26/2014  09:20:00     -291.103      -60.066      -14.927      146.060      105.997       61.187    21333.668    11235.426     3743.906        6.244        1.816      297.236       60.725        0.042      338.038       10.415      863.746
10/26/2014  09:21:00     -423.484      -13.959      -22.583      173.843      104.792       63.775    30221.247    10981.283     4067.192       11.265        2.263      423.714       75.809        0.032      337.976       10.312      863.761
10/26/2014  09:22:00     -418.589     -100.414      -27.494      160.593      116.984       53.201    25790.042    13685.333     2830.324       11.417        2.115      430.464       35.433        0.007      337.911       10.202      863.759
10/26/2014  09:23:00     -411.292      -86.553       -4.527      157.321      128.715       69.973    24750.015    16567.580     4896.167       11.143        2.311      420.300       80.323        0.037      337.893       10.172      863.756
10/26/2014  09:24:00     -341.047       -3.025      -12.172      151.746      107.756       71.256    23026.833    11611.321     5077.359        7.809        1.986      341.060       78.308        0.053      338.089       10.501      863.766
10/26/2014  09:25:00     -386.342       86.170      -35.177      203.957      100.801       79.739    41598.510    10160.845     6358.268       10.801        2.906      395.835       91.597        0.054      338.026       10.395      863.783
10/26/2014  09:26:00     -228.670      -43.255       -6.012      134.557      111.960       65.332    18105.494    12535.075     4268.303        4.455        1.745      232.725       53.782        0.053      338.127       10.565      863.762
10/26/2014  09:27:00     -428.955       56.965      -43.039      146.987      130.579       68.500    21605.229    17050.771     4692.258       11.622        2.167      432.721       53.454        0.015      337.933       10.237      863.786
10/26/2014  09:28:00     -399.014      -71.523      -21.766      171.746      107.802       64.715    29496.813    11621.168     4187.991       10.504        2.265      405.374       79.431        0.038      337.967       10.296      863.766
10/26/2014  09:29:00     -493.195      -26.995      -30.674      206.737      181.592       84.873    42740.380    32975.830     7203.443       16.390        4.146      493.933       88.804        0.032      337.978       10.315      863.757
10/26/2014  09:30:00     -433.483      -78.474       -7.295      230.446      173.619       87.476    53105.444    30143.389     7652.058       14.249        4.545      440.529      105.175        0.057      338.010       10.368      863.741
10/26/2014  09:31:00     -462.615      -90.537      -46.316      165.571      170.572       76.542    27413.618    29094.840     5858.676       14.335        3.118      471.391       78.168        0.027      337.945       10.257      863.750
10/26/2014  09:32:00     -413.202     -145.404      -28.665      173.126      122.076       71.799    29972.738    14902.668     5155.081       12.136        2.502      438.039       49.307        0.013      337.965       10.292      863.724
10/26/2014  09:33:00     -395.752     -130.162      -20.627      167.585      135.431       70.024    28084.747    18341.431     4903.344       11.265        2.566      416.607       68.172        0.027      338.007       10.364      863.748
10/26/2014  09:34:00     -507.463     -115.758      -13.218      158.371      185.257       80.285    25081.276    34320.205     6445.663       16.846        3.292      520.499       85.895        0.027      337.967       10.296      863.729
10/26/2014  09:35:00     -331.857      -58.523      -27.988      150.413      111.234       66.467    22624.141    12373.113     4417.861        7.687        1.971      336.978       81.385        0.058      338.095       10.511      863.746
10/26/2014  09:36:00     -269.562      -75.570       -8.277      191.975      105.458       65.280    36854.531    11121.416     4261.491        6.533        2.612      279.954       69.928        0.062      338.134       10.575      863.735
10/26/2014  09:37:00     -318.387      -47.204       -6.431      217.131      103.763       76.442    47145.904    10766.741     5843.424        8.369        3.188      321.868      100.507        0.098      338.192       10.674      863.731
10/26/2014  09:38:00     -214.041      -55.630        5.329      143.332      112.734       58.957    20544.062    12708.906     3475.973        4.283        1.836      221.153       64.635        0.085      338.284       10.829      863.709
10/26/2014  09:39:00     -173.617      -34.207       11.182      191.577      109.254       77.421    36701.611    11936.545     5994.055        4.302        2.732      176.955       97.011        0.301      338.330       10.905      863.689
10/26/2014  09:40:00     -168.271      -83.287       -1.944      167.977      120.782       73.270    28216.327    14588.311     5368.536        4.170        2.409      187.754       78.614        0.175      338.191       10.673      863.659
10/26/2014  09:41:00      -60.868      -32.945       28.303      159.067      100.117       80.675    25302.431    10023.319     6508.501        2.370        2.092       69.212       91.119        1.733      338.424       11.064      863.648
10/26/2014  09:42:00      -44.997      -63.976        0.603      103.653       64.562       38.765    10743.967     4168.222     1502.702        1.126        0.821       78.216       44.950        0.330      338.445       11.102      863.655
10/26/2014  09:43:00      -32.449      -53.849        9.788       82.101       63.160       47.838     6740.585     3989.175     2288.491        0.853        0.651       62.870       47.135        0.562      338.496       11.186      863.659
10/26/2014  09:44:00     -200.130       61.534        0.647      164.444       94.303       53.857    27041.849     8893.110     2900.607        4.133        1.942      209.376       50.163        0.057      338.355       10.950      863.675
10/26/2014  09:45:00     -320.448      -66.840      -38.426      180.574      133.759       71.147    32607.068    17891.338     5061.935        8.208        2.778      327.345       84.824        0.067      338.233       10.742      863.703
10/26/2014  09:46:00     -150.185     -137.346       13.583      144.544       99.055       67.087    20892.847     9811.856     4500.624        3.840        1.760      203.518       82.529        0.164      338.399       11.021      863.723
10/26/2014  09:47:00      -65.283      -31.320       18.913       98.333       56.031       59.263     9669.283     3139.444     3512.129        1.096        0.816       72.407       56.423        0.607      338.467       11.140      863.729
10/26/2014  09:48:00      -44.893      -23.306      -13.147      103.016       87.724       42.228    10612.305     7695.573     1783.189        1.141        1.005       50.582       52.126        1.062      338.537       11.255      863.750
10/26/2014  09:49:00      -72.078     -102.018       32.482      110.458      102.433       60.753    12200.924    10492.500     3690.950        2.152        1.319      124.911       61.289        0.241      338.596       11.354      863.775
10/26/2014  09:50:00     -148.534      -15.046        1.802      159.285       85.505       55.856    25371.692     7311.062     3119.941        2.904        1.790      149.294       68.815        0.212      338.540       11.258      863.790
10/26/2014  09:51:00     -167.128      -47.727        4.620      116.768       81.410       51.372    13634.856     6627.554     2639.132        2.656        1.145      173.809       56.985        0.107      338.455       11.117      863.811
10/26/2014  09:52:00     -299.912      -79.864      -16.868      195.591      128.278       75.683    38255.747    16455.335     5727.991        7.851        3.022      310.363       82.346        0.070      338.323       10.895      863.808
10/26/2014  09:53:00     -279.520     -149.107       -6.038      145.733       98.734       63.614    21238.131     9748.415     4046.744        6.771        1.752      316.803       50.162        0.025      338.267       10.799      863.822
10/26/2014  09:54:00     -293.124     -207.771      -14.274      158.094      116.960       65.935    24993.652    13679.599     4347.406        8.615        2.151      359.291       70.393        0.038      338.210       10.703      863.823
10/26/2014  09:55:00     -270.567     -133.627       -1.513      174.624      119.024       73.889    30493.383    14166.612     5459.588        7.058        2.506      301.766       77.545        0.066      338.292       10.839      863.816
10/26/2014  09:56:00     -250.303     -187.917        3.816      195.203      130.514       93.565    38104.219    17033.979     8754.474        8.092        3.195      312.993      115.757        0.137      338.279       10.821      863.812
10/26/2014  09:57:00     -267.611     -216.579      -12.421      164.563      120.275       73.876    27080.842    14466.071     5457.726        8.283        2.350      344.270       76.040        0.049      338.304       10.861      863.803
10/26/2014  09:58:00     -233.529     -183.719       -1.705      140.488      105.568       66.698    19736.820    11144.530     4448.611        6.180        1.766      297.133       70.500        0.056      338.422       11.061      863.818
10/26/2014  09:59:00     -242.403     -139.762      -15.277       80.768       96.038       40.480     6523.521     9223.384     1638.655        4.795        0.869      279.808       35.163        0.016      338.407       11.033      863.839
10/26/2014  10:00:00     -229.928     -109.874       -3.701      145.428      103.302       49.606    21149.329    10671.246     2460.740        4.961        1.714      254.831       57.835        0.052      338.404       11.030      863.828
10/26/2014  10:01:00     -307.544     -128.395       -2.636      137.101      110.188       63.504    18796.644    12141.402     4032.783        7.302        1.749      333.270       71.111        0.046      338.430       11.072      863.811
10/26/2014  10:02:00     -228.544      -87.568       -4.426       93.642       87.632       54.161     8768.749     7679.362     2933.440        3.965        0.969      244.746       51.786        0.045      338.504       11.198      863.814
10/26/2014  10:03:00     -154.501      -12.337       15.104       94.174       87.410       51.267     8868.703     7640.585     2628.333        2.169        0.957      154.993       55.426        0.128      338.617       11.389      863.818
10/26/2014  10:04:00     -203.432      -37.875      -13.707      134.527       77.327       56.533    18097.581     5979.526     3195.948        3.513        1.364      206.927       68.413        0.109      338.416       11.050      863.827
10/26/2014  10:05:00     -233.443      -55.675       -6.667      118.941      105.555       51.248    14146.900    11141.939     2626.404        4.277        1.396      239.990       44.209        0.034      338.390       11.005      863.840
10/26/2014  10:06:00     -172.235      -57.969       12.460      195.783      117.634       74.307    38330.944    13837.860     5521.579        4.542        2.885      181.728       99.354        0.299      338.461       11.128      863.837
10/26/2014  10:07:00     -193.766      -93.827      -11.772      210.332       98.506       64.796    44239.703     9703.501     4198.491        5.230        2.907      215.287       91.160        0.179      338.489       11.174      863.823
10/26/2014  10:08:00     -249.982      -42.676      -19.086      164.540       96.340       61.818    27073.551     9281.422     3821.405        5.242        2.009      253.598       77.735        0.094      338.343       10.927      863.825
10/26/2014  10:09:00     -415.313      -43.691      -26.128      149.238      117.017       67.950    22272.032    13692.918     4617.163       10.782        2.029      417.605       67.778        0.026      338.195       10.679      863.814
10/26/2014  10:10:00     -209.194     -101.597      -18.711      160.435      103.796       62.040    25739.477    10773.507     3849.011        4.739        2.018      232.559       54.035        0.054      338.403       11.028      863.789
10/26/2014  10:11:00     -253.719      -65.768       -7.197      127.607       92.431       51.846    16283.658     8543.425     2688.035        4.813        1.376      262.105       55.122        0.044      338.399       11.021      863.799
10/26/2014  10:12:00     -394.060     -124.698      -35.766      120.303      124.532       53.060    14472.839    15508.283     2815.340       10.245        1.640      413.319       29.496        0.005      338.322       10.891      863.814
10/26/2014  10:13:00     -288.282       40.721      -40.752       97.111      112.154       53.287     9430.551    12578.464     2839.550        5.563        1.242      291.143       44.700        0.024      338.395       11.014      863.846
10/26/2014  10:14:00     -383.407      -58.937      -53.877      115.967       79.973       56.390    13448.426     6395.608     3179.846        8.820        1.151      387.910       50.363        0.017      338.173       10.640      863.845
10/26/2014  10:15:00     -208.735      -59.565        6.380      136.294      123.314       57.616    18576.154    15206.413     3319.620        4.212        1.855      217.067       73.154        0.114      338.498       11.188      863.844
10/26/2014  10:16:00     -163.974        9.276      -32.745      109.874      103.238       51.253    12072.292    10658.023     2626.898        2.670        1.268      164.236       54.285        0.109      338.451       11.109      863.847
10/26/2014  10:17:00     -246.472       68.845      -32.731       92.801       67.107       48.536     8612.063     4503.393     2355.742        4.101        0.774      255.906       46.173        0.033      338.415       11.048      863.853
10/26/2014  10:18:00     -308.054      -37.221      -34.876      126.758       75.238       48.519    16067.533     5660.816     2354.085        6.079        1.204      310.294       48.879        0.025      338.311       10.872      863.864
10/26/2014  10:19:00     -335.969     -127.499       -1.586      144.973      104.437       59.413    21017.130    10906.986     3529.925        8.229        1.773      359.348       65.600        0.033      338.313       10.877      863.849
10/26/2014  10:20:00     -178.258      -41.699      -14.334       83.499       94.660       38.920     6972.165     8960.547     1514.728        2.558        0.872      183.071       32.389        0.031      338.353       10.945      863.839
10/26/2014  10:21:00     -103.473      132.344       -6.309      123.687      107.112       65.458    15298.462    11473.035     4284.764        2.965        1.553      167.993       64.377        0.147      338.676       11.488      863.841
10/26/2014  10:22:00     -103.273       95.981       -2.476       79.104       96.748       58.237     6257.464     9360.096     3391.498        1.944        0.950      140.988       39.230        0.077      338.591       11.345      863.823
10/26/2014  10:23:00     -141.727       -3.036      -19.384       57.732       78.024       36.299     3332.976     6087.759     1317.608        1.560        0.537      141.760       16.758        0.014      338.635       11.420      863.822
10/26/2014  10:24:00     -168.207      -35.720      -32.846       72.411       78.687       45.485     5243.381     6191.691     2068.849        2.207        0.675      171.958       29.603        0.030      338.567       11.302      863.825
10/26/2014  10:25:00      -50.716       28.344       23.926       51.051       73.758       47.933     2606.239     5440.281     2297.538        0.714        0.517       58.099       30.463        0.275      339.017       12.063      863.829
10/26/2014  10:26:00      -95.595      -19.246      -32.424      109.842       69.689       36.902    12065.359     4856.506     1361.724        1.442        0.914       97.513       22.341        0.052      338.562       11.299      863.849
10/26/2014  10:27:00     -214.198      -90.984       -1.725      109.527       93.710       50.000    11996.142     8781.526     2499.983        3.872        1.164      232.721       53.480        0.053      338.554       11.281      863.863
10/26/2014  10:28:00     -171.075     -121.152        0.285      106.198       66.683       37.421    11277.942     4446.686     1400.322        3.053        0.856      209.629       40.755        0.038      338.320       10.888      863.852
10/26/2014  10:29:00      -23.538     -127.431       -7.787       32.343       33.738       19.511     1046.094     1138.269      380.696        0.971        0.128      129.587       15.152        0.014      338.226       10.731      863.837
10/26/2014  10:30:00     -193.568        3.093      -16.835       63.877       65.819       34.277     4080.208     4332.167     1174.880        2.367        0.479      193.593       29.694        0.024      338.350       10.940      863.856
10/26/2014  10:31:00      -77.552       -9.689        8.390       75.375       59.644       33.950     5681.385     3557.387     1152.609        0.828        0.520       78.155       37.869        0.235      338.808       11.711      863.845
10/26/2014  10:32:00     -160.477       29.693      -28.341       74.146       51.033       37.055     5497.574     2604.385     1373.073        1.845        0.474      163.201       32.291        0.039      338.495       11.185      863.853
10/26/2014  10:33:00      -65.445       91.939       -6.439       59.677       90.667       40.705     3561.329     8220.494     1656.879        1.311        0.672      112.853       36.477        0.104      338.865       11.807      863.850
10/26/2014  10:34:00      -74.523       49.690       -7.187       67.939       59.778       35.132     4615.692     3573.372     1234.247        0.875        0.471       89.569       39.595        0.195      338.866       11.808      863.838
10/26/2014  10:35:00      -18.364      -48.472       -4.190       53.755       58.494       24.217     2889.650     3421.491      586.474        0.480        0.345       51.834       15.420        0.089      338.779       11.664      863.820
10/26/2014  10:36:00     -133.116     -115.978       -7.818      119.391       67.010       44.286    14254.183     4490.298     1961.225        2.596        1.035      176.553       37.475        0.045      338.647       11.438      863.811
10/26/2014  10:37:00     -210.363     -118.882      -13.756       69.920       73.760       42.822     4888.766     5440.486     1833.734        3.537        0.608      241.631       38.621        0.026      338.664       11.466      863.826
10/26/2014  10:38:00     -122.931      -19.990       15.382      136.964       89.662       65.335    18759.022     8039.256     4268.706        2.340        1.553      124.546       68.008        0.298      338.946       11.944      863.823
10/26/2014  10:39:00     -254.517      -30.106      -16.975      169.278       79.661       59.120    28654.949     6345.941     3495.163        5.223        1.925      256.291       75.812        0.087      338.700       11.527      863.838
10/26/2014  10:40:00     -154.562      -43.882      -12.395      120.128       68.337       47.129    14430.682     4669.959     2221.117        2.364        1.066      160.670       51.091        0.101      338.517       11.221      863.855
10/26/2014  10:41:00     -132.853     -101.660      -13.083       75.947       56.996       35.165     5767.992     3248.489     1236.557        1.920        0.513      167.286       29.008        0.030      338.580       11.326      863.852
10/26/2014  10:42:00     -115.875      -55.639       11.734       78.544       79.935       42.971     6169.234     6389.533     1846.475        1.553        0.720      128.540       49.084        0.146      339.049       12.116      863.843
10/26/2014  10:43:00     -122.020       52.215        8.254       67.828       41.080       47.125     4600.667     1687.573     2220.800        1.309        0.425      132.722       45.325        0.117      339.017       12.063      863.828
10/26/2014  10:44:00     -341.129     -137.470      -44.870       99.393      112.911       47.549     9878.999    12748.897     2260.937        8.108        1.244      367.787       20.419        0.003      338.593       11.347      863.807
10/26/2014  10:45:00     -275.928      -11.979      -16.997       98.679       76.375       47.570     9737.558     5833.214     2262.921        4.720        0.892      276.188       45.134        0.027      338.563       11.296      863.812
10/26/2014  10:46:00     -261.140     -152.521       -0.742      110.035       93.025       51.240    12107.789     8653.605     2625.487        5.742        1.169      302.418       56.081        0.034      338.417       11.050      863.803
10/26/2014  10:47:00     -151.888     -122.476        2.133       86.344       66.260       49.616     7455.331     4390.408     2461.710        2.619        0.715      195.116       40.538        0.043      338.436       11.082      863.794
10/26/2014  10:48:00     -146.698      -50.278       12.788      110.631       64.815       41.723    12239.317     4201.036     1740.833        2.119        0.909      155.075       52.906        0.116      338.879       11.829      863.771
10/26/2014  10:49:00     -219.725     -110.960      -18.497      125.268       70.963       51.127    15692.146     5035.678     2613.971        4.213        1.167      246.153       41.608        0.029      338.809       11.710      863.761
10/26/2014  10:50:00     -355.054     -178.116      -13.690      115.150      102.721       68.857    13259.447    10551.503     4741.309        9.326        1.428      397.226       63.670        0.026      338.655       11.451      863.774
10/26/2014  10:51:00     -192.743     -146.480       21.069      102.197       80.570       62.207    10444.295     6491.518     3869.653        3.992        1.040      242.088       60.632        0.063      338.748       11.607      863.785
10/26/2014  10:52:00      -38.419      -30.373        5.826      105.408       65.656       46.584    11110.818     4310.664     2170.079        1.001        0.880       48.974       36.737        0.563      339.189       12.351      863.779
10/26/2014  10:53:00      -72.367       11.118        0.540       86.490       52.744       36.164     7480.451     2781.964     1307.861        0.846        0.579       73.216       18.813        0.066      338.920       11.899      863.788
10/26/2014  10:54:00     -170.953      -32.392      -13.186       71.745      103.541       37.246     5147.402    10720.828     1387.253        2.385        0.863      173.995       29.354        0.028      338.762       11.631      863.777
10/26/2014  10:55:00      -71.800      -38.130        8.224       82.138       60.628       33.977     6746.587     3675.757     1154.426        0.912        0.579       81.296       31.930        0.154      339.040       12.100      863.769
10/26/2014  10:56:00      -99.565     -115.550       -5.805       79.306       72.442       28.175     6289.445     5247.775      793.832        1.781        0.617      152.529       23.924        0.025      338.776       11.656      863.781
10/26/2014  10:57:00      -99.905      -98.475       -8.027       55.048       65.967       33.487     3030.316     4351.696     1121.346        1.412        0.425      140.279       35.621        0.064      338.556       11.288      863.769
10/26/2014  10:58:00      -88.559      -99.327        1.195       70.043       51.477       35.502     4906.079     2649.836     1260.369        1.326        0.441      133.074       33.778        0.064      338.781       11.666      863.758
10/26/2014  10:59:00     -109.091      -29.827       -5.980       45.644       41.154       27.966     2083.364     1693.631      782.075        0.869        0.228      113.095       25.794        0.052      338.854       11.788      863.745
10/26/2014  11:00:00     -164.527        1.969       -7.926       75.161       88.543       41.354     5649.220     7839.816     1710.176        2.116        0.760      164.539       35.352        0.046      338.789       11.678      863.745
10/26/2014  11:01:00     -190.369     -128.742       -0.877       87.100      102.840       43.502     7586.334    10576.060     1892.456        3.643        1.003      229.815       46.855        0.042      338.808       11.708      863.743
10/26/2014  11:02:00      -94.201     -118.218       -1.727       68.102       53.665       32.254     4637.830     2879.925     1040.313        1.570        0.428      151.160       18.690        0.015      338.459       11.123      863.737
10/26/2014  11:03:00     -126.627      -77.225       -4.137       71.690       47.938       31.340     5139.513     2298.088      982.194        1.522        0.421      148.318       28.499        0.037      338.550       11.276      863.716
10/26/2014  11:04:00     -134.663      -65.098        4.530       70.823       50.526       33.624     5015.960     2552.887     1130.591        1.554        0.435      149.573       37.253        0.062      338.810       11.712      863.703
10/26/2014  11:05:00     -121.330      -97.090       -6.800       52.956       45.123       21.349     2804.383     2036.124      455.790        1.474        0.265      155.395       17.348        0.012      338.633       11.416      863.701
10/26/2014  11:06:00      -28.416      -32.926       -3.482       28.605       22.848       21.299      818.225      522.009      453.659        0.185        0.090       43.492        8.999        0.043      338.760       11.631      863.682
10/26/2014  11:07:00      -49.762      -24.883        7.770       50.377       28.307       24.127     2537.857      801.306      582.099        0.354        0.196       55.636       26.181        0.221      339.031       12.086      863.671
10/26/2014  11:08:00     -214.536      -41.405       -7.618      133.434       67.767       44.350    17804.628     4592.413     1966.940        3.608        1.218      218.495       44.719        0.042      338.928       11.911      863.675
10/26/2014  11:09:00      -97.459     -120.815       -5.386       85.114       42.918       29.906     7244.372     1841.991      894.343        1.705        0.499      155.224       21.430        0.019      338.565       11.303      863.704
10/26/2014  11:10:00       -7.566      -16.295       16.506       72.711       71.062       38.957     5286.839     5049.837     1517.623        0.622        0.593       17.965       40.471        5.075      339.145       12.279      863.695
10/26/2014  11:11:00       62.255       42.436        3.530       58.108       41.327       40.297     3376.534     1707.927     1623.868        0.620        0.335       75.342       36.691        0.237      339.081       12.172      863.669
10/26/2014  11:12:00      -71.136      -65.237       10.186       78.711       61.283       44.075     6195.375     3755.589     1942.564        1.065        0.595       96.520       40.034        0.172      339.045       12.110      863.661
10/26/2014  11:13:00      -48.099      -39.548        8.576       56.872       53.048       36.014     3234.445     2814.080     1297.027        0.565        0.367       62.270       41.150        0.437      339.059       12.135      863.651
10/26/2014  11:14:00     -120.261      -73.005       -4.387       73.700       52.092       32.918     5431.742     2713.627     1083.614        1.452        0.461      140.685       26.342        0.035      338.882       11.835      863.633
10/26/2014  11:15:00      -77.609      -63.337        4.154       80.473       58.811       36.893     6475.829     3458.685     1361.057        1.067        0.565      100.174       32.791        0.107      339.129       12.250      863.624
10/26/2014  11:16:00      -50.656      -73.113        1.031       69.137       55.651       34.289     4779.896     3096.980     1175.745        0.848        0.453       88.947       19.496        0.048      339.048       12.115      863.609
10/26/2014  11:17:00     -101.890      -62.172       10.065       77.847      100.875       40.329     6060.084    10175.704     1626.413        1.610        0.893      119.360       26.264        0.048      339.159       12.301      863.603
10/26/2014  11:18:00      -35.876      -47.856       20.062       94.894       60.673       40.503     9004.934     3681.252     1640.465        0.915        0.716       59.810       39.630        0.439      339.432       12.760      863.595
10/26/2014  11:19:00      -72.836      -58.868       -4.224       76.449       57.431       31.007     5844.487     3298.332      961.464        0.944        0.505       93.651       26.094        0.078      339.339       12.605      863.597
10/26/2014  11:20:00     -114.637       10.683       10.671       70.855       79.940       34.387     5020.422     6390.443     1182.463        1.298        0.630      115.134       32.894        0.082      339.351       12.625      863.602
10/26/2014  11:21:00     -203.833        3.893      -19.149       93.279       51.311       39.079     8701.028     2632.854     1527.165        2.739        0.643      203.871       48.780        0.057      338.966       11.972      863.612
10/26/2014  11:22:00     -102.282        2.897      -26.382      104.646       41.521       29.741    10950.832     1724.001      884.512        1.236        0.678      102.323       40.059        0.153      338.934       11.923      863.617
10/26/2014  11:23:00       -5.960      -60.808        8.627       80.868       41.929       33.341     6539.713     1758.041     1111.617        0.661        0.470       61.100       25.656        0.176      339.173       12.324      863.599
10/26/2014  11:24:00      -63.059     -214.312        2.168       62.400       46.291       35.028     3893.766     2142.818     1226.962        2.859        0.363      223.397       31.912        0.020      338.894       11.852      863.595
10/26/2014  11:25:00     -158.405     -138.220        0.435       81.798       70.353       37.453     6690.889     4949.533     1402.692        2.862        0.652      210.231       32.940        0.025      338.999       12.030      863.579
10/26/2014  11:26:00      -61.912     -132.153        4.695      106.194       74.056       37.544    11277.163     5484.362     1409.558        1.974        0.909      145.937       46.433        0.101      338.941       11.932      863.571
10/26/2014  11:27:00      -59.983     -134.769       -1.456       73.937       70.520       35.415     5466.742     4973.050     1254.193        1.673        0.585      147.515       32.861        0.050      339.174       12.326      863.556
10/26/2014  11:28:00     -274.493     -136.331      -11.370      106.411      101.997       60.524    11323.288    10403.447     3663.178        5.972        1.269      306.484       54.384        0.031      339.067       12.145      863.550
10/26/2014  11:29:00     -261.474     -111.585        1.009      132.554      102.213       58.903    17570.468    10447.463     3469.535        5.615        1.574      284.288       66.955        0.055      339.046       12.108      863.548
10/26/2014  11:30:00     -247.458     -110.099       -7.303       90.806      117.151       57.686     8245.807    13724.402     3327.634        4.935        1.265      270.845       42.108        0.024      339.060       12.130      863.552
10/26/2014  11:31:00     -308.135      -78.491        7.006      148.688      119.251       68.605    22108.252    14220.710     4706.613        7.109        2.052      317.975       72.909        0.053      339.114       12.223      863.554
10/26/2014  11:32:00     -185.540      -79.555        4.729      156.215       88.383       51.529    24403.270     7811.561     2655.281        3.782        1.744      201.877       74.372        0.136      339.159       12.301      863.550
10/26/2014  11:33:00     -144.612     -136.592       -4.439      131.103      114.826       45.063    17188.013    13185.054     2030.667        3.599        1.620      198.922       50.952        0.066      339.151       12.287      863.532
10/26/2014  11:34:00     -218.556     -113.248       -9.023      135.275      109.403       52.160    18299.311    11969.057     2720.683        4.682        1.649      246.154       64.310        0.068      338.921       11.898      863.545
10/26/2014  11:35:00     -172.652     -116.955        8.073       95.801       66.703       42.106     9177.832     4449.250     1772.883        2.947        0.770      208.536       40.816        0.038      339.022       12.068      863.525
10/26/2014  11:36:00      -57.000     -190.080       18.761       88.636       76.339       49.256     7856.374     5827.621     2426.145        2.792        0.806      198.443       34.691        0.031      338.864       11.802      863.527
10/26/2014  11:37:00      -77.947     -185.109      -13.832       44.858       52.251       29.000     2012.267     2730.199      840.982        2.306        0.279      200.851       23.208        0.013      338.704       11.536      863.512
10/26/2014  11:38:00      -49.435     -121.633        6.369       61.873       53.168       42.942     3828.260     2826.844     1844.020        1.289        0.425      131.296       19.815        0.023      339.328       12.585      863.471
10/26/2014  11:39:00       -7.447      -30.707       18.201       56.929       49.532       40.776     3240.901     2453.393     1662.648        0.434        0.368       31.597       28.500        0.814      339.435       12.766      863.450
10/26/2014  11:40:00      -35.987      -18.314        9.709       30.698       38.927       26.748      942.390     1515.312      715.446        0.245        0.159       40.379       27.448        0.462      339.665       13.152      863.448
10/26/2014  11:41:00       13.199       56.910       24.255       21.482       34.734       42.923      461.495     1206.425     1842.345        0.376        0.176       58.420       21.892        0.140      339.495       12.866      863.438
10/26/2014  11:42:00      -21.093      100.443      -11.865       38.603       46.794       30.760     1490.157     2189.668      946.191        0.765        0.231      102.634       18.827        0.034      339.466       12.819      863.450
10/26/2014  11:43:00     -105.306       22.728       -0.803       73.920      117.468       37.513     5464.113    13798.823     1407.259        1.613        1.034      107.731       42.111        0.153      339.445       12.782      863.439
10/26/2014  11:44:00     -197.215      -57.831       -6.669       62.567       53.592       34.086     3914.646     2872.114     1161.877        2.511        0.397      205.519       29.098        0.020      339.354       12.628      863.452
10/26/2014  11:45:00      -65.458      -96.245       -0.183       48.670       76.431       31.325     2368.739     5841.695      981.240        1.137        0.460      116.395       23.343        0.040      339.337       12.599      863.460
10/26/2014  11:46:00      -67.240      -59.560        8.886       66.132       60.554       34.645     4373.421     3666.770     1200.281        0.869        0.462       89.826       34.755        0.150      339.391       12.693      863.464
10/26/2014  11:47:00      -60.064      -61.374      -14.942       35.837       39.889       26.358     1284.269     1591.101      694.740        0.558        0.179       85.874       19.575        0.052      339.238       12.434      863.456
10/26/2014  11:48:00      -69.708       47.471       -0.234       71.651      100.277       47.048     5133.811    10055.421     2213.524        1.225        0.870       84.337       48.572        0.332      339.513       12.899      863.446
10/26/2014  11:49:00      -61.008       86.595       -0.761       81.047       70.086       40.719     6568.583     4912.036     1658.068        1.218        0.657      105.928       35.291        0.111      339.638       13.108      863.436
10/26/2014  11:50:00      -69.064      109.407       -8.851       66.491       69.039       32.638     4421.032     4766.392     1065.219        1.353        0.513      129.382       26.933        0.043      339.548       12.957      863.421
10/26/2014  11:51:00      -15.531       61.326       11.761       42.665       69.852       33.987     1820.278     4879.317     1155.095        0.600        0.393       63.262       32.120        0.258      339.736       13.273      863.410
10/26/2014  11:52:00       -2.536      154.195       -4.320       40.865      131.017       41.922     1669.955    17165.334     1757.428        2.219        1.030      154.216       59.953        0.151      339.661       13.146      863.392
10/26/2014  11:53:00       69.324      171.840      -15.353       70.252      124.610       57.268     4935.394    15527.580     3279.592        2.915        1.187      185.296       64.268        0.120      339.398       12.702      863.405
10/26/2014  11:54:00       39.460       57.563       23.496       68.162       37.962       36.424     4646.017     1441.079     1326.711        0.642        0.371       69.789       21.063        0.091      339.665       13.153      863.358
10/26/2014  11:55:00      110.073      115.851       13.003       81.302       48.846       37.305     6609.987     2385.969     1391.632        1.805        0.519      159.805       24.785        0.024      339.702       13.216      863.322
10/26/2014  11:56:00      164.528      111.449       20.600       64.260       59.513       40.499     4129.342     3541.789     1640.188        2.461        0.466      198.721       14.941        0.006      339.511       12.892      863.303
10/26/2014  11:57:00        7.558       35.538       19.993       60.538       74.136       44.431     3664.833     5496.189     1974.140        0.643        0.557       36.332       39.157        1.162      340.242       14.128      863.327
10/26/2014  11:58:00      -37.391      190.310      -28.186       46.315       96.729       35.648     2145.057     9356.505     1270.782        2.559        0.639      193.948       36.367        0.035      339.495       12.866      863.353
10/26/2014  11:59:00      -49.094      147.063      -14.821       49.222       94.215       40.145     2422.811     8876.467     1611.647        1.858        0.646      155.041       42.789        0.076      339.402       12.709      863.354
10/26/2014  12:00:00      -24.339      169.010      -21.110       59.186      102.469       43.171     3502.977    10499.831     1863.709        2.273        0.793      170.753       51.899        0.092      339.382       12.677      863.360
10/26/2014  12:01:00      -24.719      299.064      -37.256       47.430       95.025       38.568     2249.575     9029.702     1487.504        5.210        0.638      300.084       36.051        0.014      339.049       12.115      863.350
10/26/2014  12:02:00      -60.720      145.679       -5.883       63.249       81.745       41.277     4000.404     6682.272     1703.755        1.866        0.619      157.827       41.477        0.069      339.444       12.781      863.331
10/26/2014  12:03:00       99.225       80.059       11.348      120.397       56.745       64.140    14495.465     3220.043     4113.922        1.910        1.091      127.496       37.310        0.086      339.479       12.841      863.310
10/26/2014  12:04:00      115.817      123.996       22.618       99.974       87.481       66.293     9994.741     7652.923     4394.741        2.567        1.102      169.672       51.387        0.092      339.458       12.804      863.287
10/26/2014  12:05:00      141.770       93.775        3.689       96.235       64.639       55.285     9261.246     4178.225     3056.482        2.270        0.825      169.978       27.418        0.026      339.682       13.182      863.270
10/26/2014  12:06:00      144.782      140.939       28.959      126.911       76.851       70.875    16106.452     5906.126     5023.266        3.434        1.352      202.054       63.865        0.100      339.275       12.494      863.271
10/26/2014  12:07:00      181.566      100.005       23.787       71.813       59.884       57.212     5157.145     3586.133     3273.163        2.777        0.601      207.285       44.728        0.047      339.103       12.205      863.247
10/26/2014  12:08:00      170.537       92.514       28.611       90.302       60.202       52.751     8154.486     3624.251     2782.668        2.651        0.728      194.014       38.828        0.040      339.234       12.425      863.238
10/26/2014  12:09:00      112.142       89.952       16.954       71.850       56.711       47.947     5162.437     3216.166     2298.874        1.581        0.534      143.761       45.658        0.101      339.596       13.036      863.223
10/26/2014  12:10:00       66.387      181.796      -23.340       61.917      119.304       47.351     3833.657    14233.443     2242.112        2.915        1.015      193.538       61.455        0.101      339.407       12.717      863.208
10/26/2014  12:11:00     -111.665      215.802      -36.565       91.948       86.322       41.246     8454.382     7451.488     1701.200        3.899        0.880      242.981       39.103        0.026      339.344       12.610      863.214
10/26/2014  12:12:00      -43.801      106.379      -15.591       72.213       49.049       34.442     5214.708     2405.806     1186.222        1.114        0.440      115.043       25.235        0.048      339.510       12.892      863.204
10/26/2014  12:13:00       -5.957       99.648       -8.128       51.603       57.390       39.249     2662.872     3293.599     1540.488        0.876        0.375       99.826       40.315        0.163      339.677       13.173      863.209
10/26/2014  12:14:00      -25.310      244.629       -8.158       76.800      178.388       60.959     5898.180    31822.330     3716.059        5.099        2.072      245.935       78.691        0.102      339.488       12.853      863.217
10/26/2014  12:15:00      -40.145      260.753      -27.291       59.110       95.711       41.515     3493.949     9160.676     1723.515        4.236        0.719      263.825       52.586        0.040      339.323       12.575      863.225
10/26/2014  12:16:00       24.613       83.152       -4.247       44.475       61.965       37.251     1978.067     3839.683     1387.636        0.737        0.360       86.719       37.428        0.186      339.424       12.748      863.202
10/26/2014  12:17:00       -7.446       24.369       -6.287       31.372       29.452       19.568      984.218      867.410      382.912        0.146        0.112       25.481        9.586        0.142      339.474       12.833      863.185
10/26/2014  12:18:00      -94.833       86.853       -8.764       58.747       63.263       31.927     3451.152     4002.189     1019.316        1.254        0.424      128.595       24.216        0.035      339.484       12.848      863.172
10/26/2014  12:19:00      -28.254      174.173      -15.250       49.835       90.833       40.457     2483.514     8250.665     1636.807        2.187        0.619      176.450       49.683        0.079      339.472       12.828      863.167
10/26/2014  12:20:00        8.179      317.174      -43.087       62.259       87.004       38.902     3876.177     7569.660     1513.385        5.774        0.648      317.280       30.620        0.009      339.379       12.669      863.148
10/26/2014  12:21:00      -91.640      257.205      -25.841       64.560       90.244       46.378     4167.954     8144.029     2150.926        4.484        0.723      273.042       47.428        0.030      339.462       12.808      863.142
10/26/2014  12:22:00      -96.870      238.767      -23.781       61.554      107.671       47.091     3788.946    11592.946     2217.592        4.228        0.880      257.669       48.891        0.036      339.473       12.828      863.141
10/26/2014  12:23:00       -0.099      314.849      -33.351       42.286       57.507       37.957     1788.071     3307.015     1440.744        5.339        0.327      314.849       30.842        0.010      339.164       12.305      863.134
10/26/2014  12:24:00       -4.894      355.616      -44.798       60.839       59.547       38.012     3701.429     3545.875     1444.937        6.859        0.435      355.650       30.693        0.007      339.092       12.186      863.120
10/26/2014  12:25:00      -16.246      135.519       -3.062       60.615       71.535       44.119     3674.143     5117.233     1946.499        1.469        0.537      136.489       43.268        0.100      339.525       12.918      863.119
10/26/2014  12:26:00       87.754      174.978      -15.512       76.874       92.337       56.506     5909.689     8526.127     3192.960        2.809        0.881      195.750       59.123        0.091      339.470       12.822      863.074
10/26/2014  12:27:00       98.410       98.546      -18.803       50.267       67.488       43.818     2526.794     4554.697     1920.003        1.437        0.450      139.269       40.695        0.085      339.277       12.498      863.037
10/26/2014  12:28:00      127.926       67.638        9.520       64.052       44.020       33.043     4102.708     1937.777     1091.852        1.408        0.357      144.706        9.691        0.004      339.237       12.432      862.967
10/26/2014  12:29:00      104.787       98.029       11.939       80.445       63.333       61.270     6471.355     4011.023     3753.989        1.748        0.712      143.492       43.175        0.091      339.450       12.792      862.918
10/26/2014  12:30:00       56.590      154.603        4.591       65.960       84.608       62.274     4350.777     7158.492     3878.046        2.125        0.769      164.635       57.003        0.120      339.472       12.827      862.877
10/26/2014  12:31:00      203.304      115.693       20.884       77.668       70.250       61.619     6032.372     4934.995     3796.932        3.496        0.738      233.917       42.871        0.034      339.616       13.069      862.851
10/26/2014  12:32:00      127.555      101.232        8.713       84.498       56.235       46.111     7139.873     3162.342     2126.181        1.951        0.621      162.844       35.775        0.048      339.402       12.710      862.851
10/26/2014  12:33:00      265.133      173.165       29.729       99.561       83.068       70.075     9912.325     6900.258     4910.505        6.144        1.086      316.672       54.960        0.030      339.567       12.986      862.847
10/26/2014  12:34:00      209.310      157.125       25.717       77.096       61.846       72.287     5943.787     3824.905     5225.380        4.207        0.750      261.723       37.391        0.020      339.398       12.701      862.851
10/26/2014  12:35:00      137.308      116.696       25.726      117.331       65.225       49.380    13766.465     4254.241     2438.382        2.679        1.023      180.198       41.628        0.053      339.397       12.701      862.847
10/26/2014  12:36:00      177.585       78.975       -1.092       85.745       60.230       48.600     7352.202     3627.611     2361.974        2.556        0.667      194.354       19.253        0.010      339.408       12.718      862.854
10/26/2014  12:37:00      126.199      115.958        8.761       80.219       51.864       52.376     6435.107     2689.828     2743.225        2.066        0.593      171.384       37.233        0.047      339.686       13.188      862.840
10/26/2014  12:38:00       31.635      108.177        1.300       83.569       49.242       36.267     6983.761     2424.765     1315.291        1.171        0.536      112.708       18.150        0.026      339.720       13.246      862.830
10/26/2014  12:39:00      -31.493      151.466      -33.280       62.424       52.323       34.753     3896.720     2737.746     1207.742        1.644        0.392      154.706       17.177        0.012      339.431       12.758      862.816
10/26/2014  12:40:00      -52.031       93.395      -32.624       27.633       61.235       28.206      763.602     3749.709      795.573        0.890        0.265      106.910       24.094        0.051      339.291       12.524      862.793
10/26/2014  12:41:00      -38.171        3.032        1.278       37.021       32.481       26.397     1370.563     1055.030      696.803        0.229        0.156       38.291       19.309        0.254      339.721       13.250      862.770
10/26/2014  12:42:00      -65.139       52.401       -4.860       61.726       34.475       35.451     3810.056     1188.515     1256.753        0.663        0.313       83.600       37.325        0.199      339.579       13.010      862.756
10/26/2014  12:43:00      -42.410      173.404       -6.065       68.477       95.518       47.621     4689.094     9123.768     2267.723        2.399        0.804      178.515       48.008        0.072      339.858       13.478      862.762
10/26/2014  12:44:00     -161.511      207.728      -39.004       63.760       68.187       45.541     4065.317     4649.422     2073.938        4.077        0.539      263.129       42.163        0.026      339.638       13.105      862.756
10/26/2014  12:45:00      -56.903       85.541        4.809       59.015       66.854       40.956     3482.786     4469.482     1677.364        1.010        0.481      102.739       32.722        0.101      340.032       13.774      862.746
10/26/2014  12:46:00       12.764      157.999       -5.731       77.186      114.817       53.465     5957.716    13182.944     2858.508        2.357        1.100      158.514       65.718        0.172      339.799       13.379      862.731
10/26/2014  12:47:00      171.539      131.402       19.333      107.508       61.957       61.665    11558.076     3838.658     3802.618        3.313        0.960      216.084       32.973        0.023      339.610       13.058      862.714
10/26/2014  12:48:00      213.701      134.118       42.315       67.482       62.323       54.155     4553.843     3884.172     2932.729        3.841        0.569      252.301       26.005        0.011      339.499       12.870      862.694
10/26/2014  12:49:00       87.370      119.040       99.107       84.628       67.159       64.150     7161.818     4510.393     4115.225        2.370        0.789      147.662       53.771        0.133      339.767       13.325      862.655
10/26/2014  12:50:00      196.823      166.074       18.962       88.154       72.992       59.172     7771.196     5327.892     3501.356        4.164        0.830      257.527       36.642        0.020      339.487       12.849      862.637
10/26/2014  12:51:00       59.626      210.926       -2.863       78.767       91.048       76.133     6204.285     8289.781     5796.164        3.417        1.015      219.192       65.277        0.089      339.679       13.174      862.654
10/26/2014  12:52:00       45.490      222.501      -18.731       76.209       95.630       54.883     5807.768     9145.058     3012.192        3.494        0.898      227.104       52.321        0.053      339.624       13.081      862.667
10/26/2014  12:53:00      -26.418      295.795      -26.144       67.899      130.863       49.247     4610.290    17125.144     2425.278        5.651        1.208      296.973       59.150        0.040      339.635       13.100      862.672
10/26/2014  12:54:00      -55.523      352.731      -39.735       47.039       68.386       34.976     2212.628     4676.587     1223.355        6.859        0.406      357.074       33.251        0.009      339.373       12.658      862.674
10/26/2014  12:55:00       -1.876      243.326      -25.056       36.845       98.429       33.430     1357.527     9688.298     1117.535        3.600        0.608      243.333       35.811        0.022      339.366       12.648      862.682
10/26/2014  12:56:00       38.300      117.319      -14.974       41.592       42.925       34.815     1729.917     1842.558     1212.070        1.012        0.239      123.413       31.312        0.064      339.700       13.213      862.661
10/26/2014  12:57:00       33.702       35.172        4.414       28.319       37.518       22.309      801.977     1407.627      497.681        0.255        0.135       48.712       12.374        0.065      339.877       13.512      862.638
10/26/2014  12:58:00       31.133       56.853       -4.801       24.699       36.605       28.908      610.022     1339.947      835.661        0.350        0.139       64.819        8.095        0.016      339.700       13.212      862.587
10/26/2014  12:59:00       -2.049       50.673       13.099       64.456       54.981       39.654     4154.596     3022.942     1572.475        0.575        0.438       50.715       33.699        0.442      340.084       13.861      862.593
10/26/2014  13:00:00       14.360       -0.294       12.698       43.616       46.535       32.958     1902.326     2165.500     1086.247        0.276        0.258       14.363       26.374        3.372      340.225       14.099      862.571
10/26/2014  13:01:00       21.819      192.801      -18.764       68.719      118.387       53.505     4722.269    14015.489     2862.814        2.980        1.080      194.031       59.796        0.095      339.955       13.641      862.569
10/26/2014  13:02:00       49.711      171.454      -16.934       68.596       81.799       57.775     4705.346     6691.136     3337.932        2.344        0.737      178.515       49.866        0.078      339.964       13.657      862.531
10/26/2014  13:03:00       51.112      100.309       -2.543       63.868       70.881       54.508     4079.131     5024.128     2971.172        1.238        0.604      112.581       36.533        0.105      339.906       13.558      862.509
10/26/2014  13:04:00      -54.131      136.527       -8.377       42.996       63.600       31.267     1848.623     4044.977      977.624        1.425        0.344      146.866       32.240        0.048      340.049       13.801      862.479
10/26/2014  13:05:00      -60.112      261.128      -34.975       52.186      110.873       44.534     2723.354    12292.827     1983.284        4.501        0.850      267.957       50.465        0.035      339.862       13.483      862.532
10/26/2014  13:06:00      -68.203      236.645      -20.452      120.162      104.846       59.742    14438.966    10992.715     3569.115        4.503        1.450      246.278       59.958        0.059      339.843       13.451      862.523
10/26/2014  13:07:00       24.760      249.058      -24.483       88.063      142.352       70.633     7755.040    20264.080     4989.075        4.812        1.650      250.286       79.869        0.102      339.934       13.605      862.514
10/26/2014  13:08:00       -5.328      209.818      -15.480       60.480      113.774       59.213     3657.890    12944.528     3506.231        3.220        1.005      209.885       69.456        0.110      339.981       13.685      862.524
10/26/2014  13:09:00        1.238      317.402      -31.054       80.419      104.519       57.828     6467.264    10924.151     3344.121        6.122        1.037      317.404       61.583        0.038      339.719       13.242      862.514
10/26/2014  13:10:00       -4.369      220.770       -9.772       90.575      104.785       50.222     8203.805    10979.815     2522.250        3.528        1.085      220.814       46.802        0.045      339.631       13.094      862.505
10/26/2014  13:11:00       37.545      135.647      -11.805       56.013      107.615       56.304     3137.418    11580.930     3170.143        1.892        0.894      140.747       57.885        0.169      339.795       13.372      862.472
10/26/2014  13:12:00      -56.473       36.684       -1.639       71.072      126.396       49.867     5051.269    15975.823     2486.761        1.402        1.176       67.342       33.539        0.248      340.234       14.113      862.463
10/26/2014  13:13:00     -107.906      180.717      -17.968       68.740      101.626       51.673     4725.226    10327.743     2670.150        3.117        0.886      210.481       42.019        0.040      340.101       13.886      862.459
10/26/2014  13:14:00     -223.587        9.006      -25.643      103.181      104.918       56.830    10646.339    11007.815     3229.654        3.780        1.244      223.768       48.319        0.047      340.018       13.748      862.412
10/26/2014  13:15:00     -201.026      140.829      -27.150       82.008      118.183       45.893     6725.341    13967.136     2106.168        4.189        1.140      245.447       51.133        0.043      339.618       13.072      862.411
10/26/2014  13:16:00     -124.103       90.605       -4.968      113.864       97.967       55.349    12964.972     9597.602     3063.555        2.463        1.281      153.658       66.303        0.186      340.043       13.788      862.406
10/26/2014  13:17:00      -66.893       91.728      -10.959       73.151       99.945       37.875     5351.133     9988.954     1434.523        1.489        0.839      113.528       45.915        0.164      340.052       13.806      862.429
10/26/2014  13:18:00     -122.962      153.728      -26.666       76.228       97.972       49.955     5810.712     9598.570     2495.540        2.868        0.895      196.855       43.397        0.049      339.956       13.642      862.400
10/26/2014  13:19:00     -179.126        5.414      -10.571      154.429      121.978       68.395    23848.410    14878.643     4677.808        3.781        2.170      179.207       82.537        0.212      340.253       14.145      862.377
10/26/2014  13:20:00     -271.709      -50.680      -26.593      179.280      103.814       57.932    32141.166    10777.433     3356.061        6.168        2.314      276.395       78.495        0.081      339.664       13.149      862.371
10/26/2014  13:21:00     -209.439      194.332      -45.986      128.698      138.865       69.922    16563.264    19283.526     4889.102        6.223        2.037      285.709       93.492        0.107      339.843       13.452      862.405
10/26/2014  13:22:00     -202.710      143.073      -26.997       91.924       85.788       51.372     8450.087     7359.629     2639.126        4.037        0.922      248.115       41.412        0.028      339.790       13.360      862.417
10/26/2014  13:23:00     -212.689      -45.815      -29.664       72.093       65.473       38.797     5197.342     4286.685     1505.243        2.960        0.549      217.568       39.595        0.033      339.512       12.892      862.382
10/26/2014  13:24:00      -59.027      -43.049       -5.173       54.688       55.665       32.451     2990.823     3098.549     1053.097        0.625        0.357       73.057       20.880        0.082      339.627       13.089      862.341
10/26/2014  13:25:00      -92.937      -31.060       17.688       83.900       86.200       54.099     7039.173     7430.419     2926.704        1.365        0.870       97.990       41.638        0.181      340.087       13.866      862.289
10/26/2014  13:26:00      -23.940      208.337      -28.903       56.684       70.898       45.127     3213.069     5026.554     2036.425        2.754        0.514      209.708       25.009        0.014      339.913       13.570      862.308
10/26/2014  13:27:00      -50.235       87.044       -2.917       49.884       81.428       39.864     2488.431     6630.451     1589.117        1.041        0.535      100.499       38.870        0.150      340.188       14.036      862.305
10/26/2014  13:28:00     -170.587      -42.546      -20.810       81.868       72.527       39.957     6702.405     5260.148     1596.555        2.245        0.678      175.813       38.546        0.048      340.345       14.299      862.297
10/26/2014  13:29:00     -165.210       32.614      -10.540      117.250      138.310       57.221    13747.518    19129.746     3274.274        3.230        1.808      168.398       50.155        0.089      340.125       13.928      862.311
10/26/2014  13:30:00     -132.345      -68.311       -0.773       94.002       83.398       53.800     8836.325     6955.164     2894.480        2.043        0.934      148.934       52.290        0.123      340.106       13.897      862.297
10/26/2014  13:31:00     -238.351       50.198      -16.763      151.541      161.224       69.868    22964.767    25993.080     4881.506        5.671        2.692      243.580       80.102        0.108      340.085       13.860      862.286
10/26/2014  13:32:00     -127.113      100.958      -31.170      112.021      175.989       54.490    12548.769    30972.196     2969.199        3.690        2.325      162.328       45.167        0.077      340.011       13.735      862.283
10/26/2014  13:33:00        5.522      216.414      -14.128       73.945      132.988       66.184     5467.807    17685.751     4380.281        3.729        1.377      216.484       70.221        0.105      340.289       14.206      862.287
10/26/2014  13:34:00     -139.122      261.661      -47.460       76.175      111.192       52.554     5802.579    12363.637     2761.906        5.550        1.046      296.347       37.162        0.016      340.042       13.787      862.301
10/26/2014  13:35:00      -95.429      409.828      -42.494       80.754      106.148       54.213     6521.130    11267.295     2939.025        9.980        1.036      420.792       46.259        0.012      339.809       13.395      862.313
10/26/2014  13:36:00      -68.093      322.080      -34.813       65.888       82.118       45.830     4341.187     6743.425     2100.345        6.138        0.659      329.199       34.753        0.011      339.854       13.468      862.300
10/26/2014  13:37:00      -41.923      209.581       -5.860       69.381      110.097       52.427     4813.779    12121.240     2748.571        3.270        0.984      213.733       55.133        0.067      340.142       13.955      862.282
10/26/2014  13:38:00     -111.747      185.471      -20.550       96.986      146.980       59.570     9406.243    21603.046     3548.618        4.093        1.728      216.533       76.759        0.126      340.124       13.927      862.279
10/26/2014  13:39:00      -40.784      277.287      -30.401       87.894       74.398       47.997     7725.333     5535.057     2303.672        4.752        0.778      280.270       42.663        0.023      339.822       13.414      862.284
10/26/2014  13:40:00       22.176       89.380       26.782       81.368       75.280       48.870     6620.747     5667.066     2388.309        1.193        0.734       92.090       46.440        0.254      340.188       14.036      862.230
10/26/2014  13:41:00       67.830      171.068       -2.880       80.778       96.308       65.001     6525.078     9275.159     4225.127        2.695        1.001      184.025       64.763        0.124      340.053       13.807      862.198
10/26/2014  13:42:00        2.549      251.659      -34.266       55.030       86.559       46.900     3028.316     7492.407     2199.609        3.861        0.636      251.672       43.612        0.030      339.747       13.287      862.159
10/26/2014  13:43:00      -69.660      261.240      -27.743       88.503      100.912       56.158     7832.778    10183.328     3153.665        4.752        1.058      270.368       50.471        0.035      340.077       13.845      862.158
10/26/2014  13:44:00      -89.416      264.496      -37.861       79.638      106.995       47.645     6342.256    11447.878     2270.067        4.972        1.003      279.202       39.647        0.020      339.959       13.647      862.183
10/26/2014  13:45:00      -86.978      218.517      -32.538       73.996       79.437       46.927     5475.426     6310.270     2202.110        3.518        0.699      235.191       45.326        0.037      339.737       13.272      862.187
10/26/2014  13:46:00      -50.918      352.485      -43.380      105.154      159.932       62.968    11057.346    25578.210     3964.980        8.465        2.030      356.144       69.028        0.038      339.868       13.494      862.164
10/26/2014  13:47:00     -155.550      401.647      -65.403      117.335      169.110       60.529    13767.543    28598.346     3663.753       11.790        2.301      430.716       54.726        0.016      339.973       13.669      862.174
10/26/2014  13:48:00      -59.631      140.378      -15.921      100.639      106.840       57.016    10128.268    11414.778     3250.806        2.415        1.240      152.518       66.483        0.190      340.174       14.011      862.183
10/26/2014  13:49:00      -37.069      207.840      -20.727       61.288      105.397       55.307     3756.164    11108.424     3058.916        3.146        0.896      211.120       52.869        0.063      340.070       13.834      862.154
10/26/2014  13:50:00      -38.436      470.857      -58.442       80.629      109.762       59.997     6500.988    12047.787     3599.643       12.437        1.107      472.424       49.614        0.011      339.914       13.570      862.129
10/26/2014  13:51:00     -175.858      233.892      -38.049      154.661      149.346       72.755    23919.872    22304.271     5293.319        6.929        2.576      292.629      102.946        0.124      340.168       14.002      862.140
10/26/2014  13:52:00     -246.884      225.400      -48.684      117.273      120.047       64.403    13753.025    14411.307     4147.742        7.321        1.616      334.300       61.274        0.034      339.936       13.608      862.149
10/26/2014  13:53:00     -106.192      204.296      -21.660       93.711      135.121       55.186     8781.818    18257.609     3045.451        4.178        1.504      230.247       67.513        0.086      339.902       13.551      862.136
10/26/2014  13:54:00        9.623       82.023        9.927       42.696      119.842       49.950     1822.912    14362.079     2494.959        1.280        0.934       82.586       68.610        0.690      340.322       14.261      862.085
10/26/2014  13:55:00      -44.213      358.093      -31.158      107.243      148.808       75.173    11501.139    22143.699     5650.958        8.522        1.965      360.813       73.429        0.041      340.130       13.934      862.098
10/26/2014  13:56:00     -145.324      311.889      -26.947      111.516      177.443       66.436    12435.746    31486.082     4413.735        8.372        2.417      344.084       79.192        0.053      339.964       13.656      862.103
10/26/2014  13:57:00      -55.335      347.531      -40.823       92.492      138.917       56.083     8554.783    19297.810     3145.260        7.825        1.550      351.909       56.290        0.026      339.873       13.501      862.083
10/26/2014  13:58:00      -54.541      152.757      -14.235       65.967       77.232       49.598     4351.706     5964.793     2459.950        1.964        0.639      162.202       37.468        0.053      340.163       13.993      862.049
10/26/2014  13:59:00       39.129      259.569      -22.641       76.800      122.426       59.917     5898.296    14988.139     3590.037        4.694        1.224      262.502       66.543        0.064      340.099       13.882      862.027
10/26/2014  14:00:00       79.541      195.978       -6.510      107.218      100.634       61.910    11495.599    10127.239     3832.854        3.511        1.273      211.504       60.425        0.082      340.201       14.055      862.006
10/26/2014  14:01:00      107.423      167.372        6.202      120.464      106.771       94.889    14511.498    11400.130     9003.938        3.725        1.746      198.880       73.325        0.136      340.255       14.148      862.003
10/26/2014  14:02:00      -57.002      328.687      -51.685      130.102      123.263       56.751    16926.434    15193.690     3220.728        7.464        1.767      333.594       57.482        0.030      340.165       13.994      861.994
10/26/2014  14:03:00     -147.239      274.893      -49.942       95.503      136.149       65.271     9120.771    18536.497     4260.299        6.582        1.596      311.842       72.436        0.054      340.351       14.308      861.990
10/26/2014  14:04:00     -131.438       85.704        3.863      121.020      164.295       56.616    14645.877    26992.893     3205.354        3.473        2.242      156.912       50.976        0.106      340.479       14.525      861.993
10/26/2014  14:05:00     -204.501       25.324      -27.899       98.851      149.671       60.588     9771.499    22401.449     3670.917        3.953        1.792      206.063       67.333        0.107      340.253       14.143      861.990
10/26/2014  14:06:00     -234.924       82.969      -46.843      172.955      184.645       49.149    29913.507    34093.821     2415.596        6.533        3.321      249.144       50.312        0.041      340.024       13.755      861.977
10/26/2014  14:07:00     -277.720       18.206      -44.298       85.491      129.590       68.438     7308.660    16793.666     4683.739        5.410        1.439      278.317       46.029        0.027      340.049       13.798      861.961
10/26/2014  14:08:00     -137.654      -20.495       -7.993      103.727       85.764       61.769    10759.341     7355.459     3815.390        2.068        1.097      139.171       60.535        0.189      340.294       14.213      861.952
10/26/2014  14:09:00      -31.358      236.939      -16.065       62.671      134.297       56.294     3927.697    18035.649     3169.044        4.125        1.257      239.005       58.568        0.060      340.282       14.193      862.005
10/26/2014  14:10:00      -90.091      182.392       -4.450       72.378      104.539       54.623     5238.507    10928.305     2983.689        3.027        0.958      203.429       54.468        0.072      340.322       14.261      861.998
10/26/2014  14:11:00     -184.455      287.473      -57.278      154.930      117.880       60.332    24003.152    13895.776     3639.911        8.073        2.077      341.562       82.459        0.058      340.079       13.851      861.984
10/26/2014  14:12:00     -108.573      127.135      -18.222       94.885       75.086       47.371     9003.195     5637.878     2243.984        2.258        0.844      167.187       43.177        0.067      340.243       14.128      861.953
10/26/2014  14:13:00      -33.493      441.724      -58.952       82.226      147.971       57.176     6761.070    21895.382     3269.091       11.582        1.596      442.992       70.621        0.025      339.957       13.642      861.945
10/26/2014  14:14:00      -76.938      278.239      -34.247      104.836      120.852       65.136    10990.543    14605.240     4242.692        5.717        1.492      288.681       60.926        0.045      340.244       14.129      861.910
10/26/2014  14:15:00     -100.267      262.800      -33.771       71.529       98.404       51.971     5116.459     9683.358     2701.030        4.888        0.875      281.279       43.953        0.024      340.287       14.201      861.902
10/26/2014  14:16:00      -67.448      216.945      -24.381       58.202       87.502       37.951     3387.416     7656.642     1440.262        3.234        0.624      227.189       37.875        0.028      340.377       14.353      861.896
10/26/2014  14:17:00      -23.409      191.023       -8.601       61.519      109.714       45.645     3784.624    12037.159     2083.510        2.750        0.895      192.452       54.976        0.082      340.336       14.285      861.889
10/26/2014  14:18:00      -37.803       87.624      -20.859       52.690       70.135       27.645     2776.270     4918.949      764.258        0.900        0.423       95.431       23.149        0.059      340.614       14.756      861.859
10/26/2014  14:19:00      -46.954      150.284      -17.149       68.240      101.915       48.406     4656.694    10386.591     2343.106        2.123        0.869      157.448       50.593        0.103      340.653       14.820      861.856
10/26/2014  14:20:00      -30.758      271.439      -28.288       83.682      121.169       46.386     7002.753    14682.030     2151.651        4.963        1.192      273.176       55.774        0.042      340.014       13.739      861.874
10/26/2014  14:21:00      -90.170      303.220      -37.415       88.353      107.466       54.873     7806.206    11548.853     3011.081        6.191        1.118      316.343       40.394        0.016      340.052       13.803      861.857
10/26/2014  14:22:00     -101.108      254.988      -24.247       71.175      124.996       49.189     5065.861    15624.077     2419.600        4.947        1.155      274.303       58.971        0.046      340.245       14.129      861.859
10/26/2014  14:23:00     -187.891       -0.670      -24.848      121.401       78.940       45.747    14738.224     6231.569     2092.773        2.949        1.153      187.892       45.804        0.059      340.226       14.097      861.848
10/26/2014  14:24:00       15.611      266.236      -32.250       69.381      124.252       66.600     4813.785    15438.498     4435.494        4.842        1.234      266.693       66.679        0.063      340.129       13.933      861.853
10/26/2014  14:25:00      -26.718      135.563      -13.602       66.999      105.094       51.184     4488.829    11044.727     2619.784        1.871        0.908      138.171       33.221        0.058      340.204       14.061      861.836
10/26/2014  14:26:00      -17.355      172.201       -5.576       75.958       98.543       43.872     5769.692     9710.712     1924.738        2.369        0.870      173.073       38.080        0.048      340.458       14.492      861.836
10/26/2014  14:27:00      -66.801      234.976      -27.106       74.161       88.906       57.762     5499.820     7904.341     3336.471        3.857        0.837      244.287       44.447        0.033      340.397       14.385      861.848
10/26/2014  14:28:00     -115.508      357.002      -39.752      106.046      130.369       61.073    11245.761    16996.190     3729.875        8.717        1.599      375.224       51.617        0.019      340.469       14.509      861.863
10/26/2014  14:29:00     -165.924      214.427      -31.254      116.549      124.582       72.680    13583.730    15520.565     5282.312        5.443        1.719      271.127       71.598        0.070      340.276       14.182      861.881
10/26/2014  14:30:00     -268.289      151.729      -55.873      111.180      157.301       71.328    12361.055    24743.733     5087.735        7.015        2.110      308.222       59.312        0.037      340.334       14.279      861.848
10/26/2014  14:31:00     -167.026      241.608      -25.509      103.849      132.142       75.338    10784.717    17461.568     5675.853        6.042        1.696      293.721       61.968        0.045      340.187       14.031      861.842
10/26/2014  14:32:00     -158.960      159.918      -31.535      148.371      142.117       67.798    22013.918    20197.332     4596.502        4.931        2.340      225.482       56.633        0.063      340.228       14.101      861.813
10/26/2014  14:33:00     -147.198      229.041      -34.641       89.632      113.451       63.031     8033.860    12871.083     3972.968        5.010        1.244      272.263       53.005        0.038      340.362       14.324      861.855
10/26/2014  14:34:00     -149.464      266.353      -43.584       93.628       98.590       52.459     8766.182     9719.963     2751.979        5.821        1.062      305.423       56.906        0.035      340.222       14.091      861.862
10/26/2014  14:35:00      -81.879      311.174      -42.552       98.302      135.555       47.029     9663.309    18375.041     2211.704        6.779        1.513      321.766       53.289        0.027      340.130       13.934      861.840
10/26/2014  14:36:00      -27.914      289.264      -23.331      102.787      144.863       64.508    10565.101    20985.393     4161.280        6.035        1.786      290.608       77.587        0.071      340.214       14.076      861.799
10/26/2014  14:37:00       -3.922      398.538      -39.543      107.684      146.434       67.211    11595.869    21442.831     4517.377        9.898        1.878      398.558       66.635        0.028      340.397       14.387      861.796
10/26/2014  14:38:00      -85.017      334.657      -23.257      113.044      177.466       69.491    12778.905    31494.162     4828.967        8.442        2.455      345.287       68.076        0.039      340.383       14.361      861.813
10/26/2014  14:39:00      -91.351      290.349      -26.294       82.375      121.170       65.710     6785.603    14682.275     4317.841        5.956        1.289      304.381       65.549        0.046      340.268       14.167      861.777
10/26/2014  14:40:00     -118.302      105.225       -7.316      101.389      168.641       61.457    10279.638    28439.706     3776.921        3.380        2.125      158.328       44.990        0.081      340.510       14.578      861.753
10/26/2014  14:41:00      -53.740      189.557        3.723       93.138      159.336       71.123     8674.723    25387.883     5058.444        3.897        1.956      197.028       89.762        0.208      340.482       14.532      861.749
10/26/2014  14:42:00      -69.719      474.514      -71.542      101.763      148.233       50.249    10355.783    21973.015     2524.958       13.499        1.743      479.608       54.940        0.013      340.069       13.832      861.744
10/26/2014  14:43:00      -44.205      338.249      -47.279       77.807       88.000       43.035     6053.998     7743.913     1852.038        6.712        0.782      341.125       31.563        0.009      340.204       14.058      861.725
10/26/2014  14:44:00      -24.616      250.335      -37.561       63.772      129.940       42.601     4066.849    16884.291     1814.826        4.372        1.138      251.543       43.128        0.029      340.327       14.267      861.714
10/26/2014  14:45:00     -143.732       89.663      -24.934      103.505      152.653       66.839    10713.251    23302.950     4467.389        3.389        1.924      169.406       56.467        0.111      340.604       14.736      861.689
10/26/2014  14:46:00     -264.848      347.274      -66.950       98.457      116.503       72.501     9693.825    13572.999     5256.447       11.187        1.426      436.742       55.596        0.016      340.186       14.029      861.702
10/26/2014  14:47:00     -183.780      433.845      -60.297      140.584      161.686       80.262    19763.790    26142.279     6442.041       13.898        2.617      471.165       80.653        0.029      340.083       13.855      861.714
10/26/2014  14:48:00      -85.949      435.780      -41.624      124.275      149.593       72.871    15444.349    22378.170     5310.113       12.107        2.157      444.175       72.663        0.027      339.991       13.699      861.686
10/26/2014  14:49:00      -47.185      554.815      -68.128      111.279      142.949       60.570    12383.069    20434.388     3668.736       17.558        1.824      556.818       48.664        0.008      340.099       13.882      861.661
10/26/2014  14:50:00     -159.344      254.828      -42.008      145.273      176.273       62.336    21104.248    31072.072     3885.830        7.407        2.803      300.545       78.077        0.067      340.240       14.121      861.670
10/26/2014  14:51:00     -102.448      524.833      -67.924       90.791      142.841       69.171     8243.079    20403.694     4784.616       16.199        1.672      534.738       70.284        0.017      339.984       13.688      861.680
10/26/2014  14:52:00      -57.870      308.413      -36.777       62.634      116.115       48.484     3923.013    13482.621     2350.743        5.978        0.988      313.796       54.941        0.031      340.035       13.774      861.653
10/26/2014  14:53:00     -151.382      387.685      -53.547      101.134      110.941       58.647    10228.002    12307.857     3439.451       10.102        1.299      416.192       49.976        0.014      340.206       14.062      861.655
10/26/2014  14:54:00      -88.692      427.792      -54.263      119.461      137.614       68.067    14270.985    18937.744     4633.089       11.582        1.892      436.889       68.225        0.024      340.108       13.897      861.657
10/26/2014  14:55:00      -91.055      387.866      -33.473       85.139      144.360       59.207     7248.683    20839.687     3505.519        9.572        1.580      398.410       63.294        0.025      340.185       14.028      861.635
10/26/2014  14:56:00     -120.030      192.994      -16.580      102.553      135.617       65.052    10517.192    18391.954     4231.712        4.253        1.657      227.275       78.210        0.118      340.349       14.305      861.637
10/26/2014  14:57:00     -108.288      442.732      -54.094      113.240      153.623       66.213    12823.370    23599.920     4384.105       12.573        2.040      455.783       64.646        0.020      340.062       13.820      861.640
10/26/2014  14:58:00     -277.337      342.674      -65.617      123.809      133.291       77.841    15328.719    17766.386     6059.153       11.889        1.958      440.842       87.652        0.040      340.133       13.941      861.667
10/26/2014  14:59:00     -156.919      235.167      -20.453      106.536       87.102       63.942    11350.016     7586.692     4088.541        5.168        1.151      282.714       58.077        0.042      340.234       14.110      861.659
10/26/2014  15:00:00      -90.462      263.774      -10.298       96.348      160.975       72.594     9282.935    25912.956     5269.865        5.916        2.023      278.854       84.854        0.093      340.253       14.144      861.634
10/26/2014  15:01:00     -111.516      196.556      -17.898       90.714       80.260       70.825     8229.108     6441.616     5016.115        3.553        0.984      225.987       64.028        0.080      340.298       14.220      861.618
10/26/2014  15:02:00     -133.396      246.032      -22.629      122.562      136.882       57.952    15021.545    18736.816     3358.429        5.797        1.856      279.868       53.761        0.037      340.264       14.160      861.612
10/26/2014  15:03:00      -59.060      500.649      -62.687       76.306      148.813       53.014     5822.621    22145.292     2810.452       14.442        1.539      504.120       60.388        0.014      340.185       14.027      861.636
10/26/2014  15:04:00     -199.043      217.313      -46.308      105.200      119.580       70.090    11067.028    14299.302     4912.646        5.963        1.514      294.691       56.204        0.036      340.380       14.357      861.670
10/26/2014  15:05:00     -102.529      353.608      -33.804       90.753      121.626       64.861     8236.081    14792.776     4207.013        8.196        1.362      368.172       58.846        0.026      340.194       14.043      861.687
10/26/2014  15:06:00     -185.715      265.803      -43.971       94.871      120.717       55.183     9000.524    14572.544     3045.179        6.684        1.331      324.255       49.985        0.024      340.351       14.307      861.676
10/26/2014  15:07:00     -139.578      105.822       -1.250       94.132       98.021       57.904     8860.819     9608.111     3352.828        2.625        1.091      175.158       48.436        0.076      340.472       14.515      861.659
10/26/2014  15:08:00     -154.806      214.024      -40.980       93.168      167.186       61.092     8680.304    27951.202     3732.251        5.590        2.018      264.142       72.381        0.075      340.364       14.330      861.647
10/26/2014  15:09:00      -47.286      319.835      -34.090       97.102      125.508       73.939     9428.876    15752.160     5466.993        6.816        1.532      323.312       57.566        0.032      340.349       14.304      861.672
10/26/2014  15:10:00     -102.033      177.126      -32.585       84.005      101.125       49.921     7056.908    10226.340     2492.065        3.131        0.989      204.412       41.364        0.041      340.543       14.632      861.663
10/26/2014  15:11:00      -33.810      366.106      -18.425       85.648      176.789       83.817     7335.628    31254.426     7025.248        9.056        2.281      367.664      106.993        0.085      340.278       14.187      861.674
10/26/2014  15:12:00     -124.439      187.484      -29.444       80.956       80.946       60.827     6553.908     6552.312     3699.871        3.415        0.840      225.023       42.862        0.036      340.210       14.070      861.659
10/26/2014  15:13:00      -90.763       95.197      -11.045      100.061       66.766       44.610    10012.139     4457.660     1990.045        1.694        0.823      131.530       47.728        0.132      340.462       14.498      861.625
10/26/2014  15:14:00     -152.000      146.582      -36.924       95.542       76.268       43.094     9128.241     5816.832     1857.101        3.137        0.840      211.164       39.505        0.035      340.381       14.359      861.630
10/26/2014  15:15:00     -186.810      220.180      -32.219       94.970      110.742       59.288     9019.251    12263.711     3515.068        5.460        1.240      288.751       61.552        0.045      340.416       14.419      861.647
10/26/2014  15:16:00     -143.271      169.617      -45.443       81.832       98.198       52.008     6696.412     9642.775     2704.820        3.520        0.952      222.029       63.239        0.081      340.585       14.704      861.688
10/26/2014  15:17:00     -117.321      209.776      -28.285      103.113      123.254       57.061    10632.388    15191.505     3255.975        4.382        1.454      240.354       54.586        0.052      340.491       14.546      861.711
10/26/2014  15:18:00     -208.662      225.826      -31.761      143.867      124.964       68.938    20697.830    15615.920     4752.477        6.830        2.053      307.469       59.544        0.038      340.276       14.182      861.713
10/26/2014  15:19:00     -147.433      134.731      -22.455      127.980      112.818       61.332    16378.922    12728.002     3761.672        3.662        1.643      199.722       75.701        0.144      340.338       14.288      861.728
10/26/2014  15:20:00      -48.972      176.965      -10.277       71.549      133.764       52.236     5119.207    17892.766     2728.639        2.978        1.287      183.616       64.275        0.123      340.380       14.360      861.715
10/26/2014  15:21:00      -73.862      218.872      -24.579       92.242      141.785       48.747     8508.616    20103.005     2376.264        4.247        1.549      230.999       58.202        0.063      340.313       14.245      861.727
10/26/2014  15:22:00      -42.143      370.101      -36.748      151.297      166.530       83.733    22890.839    27732.283     7011.286        9.886        2.882      372.492       93.513        0.063      340.362       14.328      861.717
10/26/2014  15:23:00     -168.029      446.599      -59.738      126.316      149.471       71.126    15955.643    22341.581     5058.963       13.730        2.168      477.163       79.719        0.028      340.034       13.772      861.766
10/26/2014  15:24:00     -110.426      337.755      -36.372       63.738      100.074       47.604     4062.537    10014.814     2266.116        7.197        0.817      355.348       49.203        0.019      340.056       13.811      861.746
10/26/2014  15:25:00     -134.007      231.329      -39.828       88.145       88.784       47.450     7769.616     7882.599     2251.494        4.548        0.895      267.340       49.396        0.034      340.294       14.212      861.737
10/26/2014  15:26:00      -90.461      389.639      -48.280       78.728      125.604       52.142     6198.126    15776.410     2718.756        9.351        1.235      400.002       47.051        0.014      340.119       13.915      861.742
10/26/2014  15:27:00      -55.199      213.426      -14.439       60.097       97.857       49.135     3611.598     9576.058     2414.226        3.220        0.780      220.449       48.977        0.049      340.281       14.191      861.709
10/26/2014  15:28:00      -77.788      379.449      -51.425       77.612      115.199       48.743     6023.615    13270.714     2375.908        8.717        1.084      387.340       54.495        0.020      340.208       14.066      861.706
10/26/2014  15:29:00      -51.940      302.035      -23.843       90.058      112.110       69.962     8110.386    12568.628     4894.741        6.003        1.279      306.468       73.392        0.057      340.308       14.235      861.699
10/26/2014  15:30:00      -74.152      301.366      -44.181      112.740      133.274       64.407    12710.200    17761.940     4148.244        6.644        1.731      310.355       67.225        0.047      340.272       14.175      861.723
10/26/2014  15:31:00      135.645      107.891        3.290       96.216      127.274       56.953     9257.491    16198.776     3243.587        2.937        1.435      173.320       53.927        0.097      340.301       14.225      861.743
10/26/2014  15:32:00      101.971      276.438      -44.073       98.040      187.662       82.070     9611.931    35216.888     6735.425        7.015        2.578      294.645       95.653        0.105      340.098       13.882      861.735
10/26/2014  15:33:00      111.046      202.899      -17.453       84.704      124.460       82.073     7174.715    15490.198     6736.046        4.160        1.470      231.299       75.154        0.106      340.156       13.979      861.754
10/26/2014  15:34:00      192.042      254.217        9.177      138.504      153.389      107.686    19183.376    23528.318    11596.173        7.794        2.715      318.601      101.325        0.101      340.021       13.752      861.766
10/26/2014  15:35:00      101.031      134.014       10.228      114.748      104.456       66.323    13167.145    10911.007     4398.791        2.837        1.424      167.830       57.475        0.117      340.032       13.770      861.755
10/26/2014  15:36:00      101.758      125.156       16.661      105.546       78.046       71.693    11139.932     6091.201     5139.849        2.433        1.119      161.303       50.693        0.099      340.146       13.963      861.747
10/26/2014  15:37:00       20.547      164.756      -11.245       91.003      131.313       56.845     8281.531    17243.169     3231.365        2.822        1.438      166.032       57.957        0.122      340.361       14.325      861.716
10/26/2014  15:38:00      -64.681      269.794      -27.150       94.540       76.706       51.263     8937.795     5883.831     2627.943        4.758        0.872      277.439       44.167        0.025      340.186       14.027      861.690
10/26/2014  15:39:00      -35.698      238.557      -28.834       74.148      107.396       49.010     5497.919    11533.970     2402.014        3.922        0.972      241.213       50.403        0.044      340.361       14.326      861.669
10/26/2014  15:40:00      124.534      142.385       23.947      139.141      111.635       69.173    19360.212    12462.406     4784.879        3.647        1.830      189.161       55.891        0.087      340.373       14.345      861.656
10/26/2014  15:41:00     -160.041      196.041      -30.538       82.346      118.245       49.289     6780.920    13981.763     2429.357        4.408        1.160      253.071       45.635        0.033      340.530       14.611      861.673
10/26/2014  15:42:00     -165.642      259.160      -31.100      131.927      141.647       72.389    17404.800    20063.788     5240.170        6.913        2.135      307.573       64.699        0.044      340.241       14.122      861.670
10/26/2014  15:43:00     -112.192      377.523      -62.080      199.724      154.232       76.835    39889.682    23787.657     5903.599       11.426        3.479      393.841       83.998        0.045      340.337       14.284      861.674
10/26/2014  15:44:00       17.551      300.158      -20.208      137.308      222.004      100.489    18853.606    49285.964    10097.966        8.451        3.912      300.670      115.463        0.147      340.248       14.135      861.686
10/26/2014  15:45:00      120.898      190.533        2.901      119.172      131.521       96.386    14201.990    17297.654     9290.172        4.585        2.039      225.653       84.156        0.139      340.196       14.047      861.712
10/26/2014  15:46:00       97.040      166.893        4.929      101.065      105.352       68.016    10214.155    11099.120     4626.123        3.161        1.297      193.055       64.277        0.111      340.175       14.010      861.715
10/26/2014  15:47:00      166.295      188.030       27.197      169.148      154.539      115.792    28610.946    23882.405    13407.680        6.481        3.295      251.017       89.800        0.128      340.071       13.835      861.716
10/26/2014  15:48:00        6.305      342.786      -41.406      139.968      126.578       80.587    19591.166    16021.945     6494.315        8.067        2.105      342.844       78.478        0.052      339.992       13.701      861.720
10/26/2014  15:49:00      180.186      279.620       -8.709      180.252      161.817       99.092    32490.871    26184.711     9819.239        8.960        3.425      332.647       91.983        0.076      339.952       13.634      861.715
10/26/2014  15:50:00      150.029      190.058       24.428      153.668      115.247      106.614    23613.942    13281.893    11366.450        5.374        2.413      242.138       78.929        0.106      339.896       13.539      861.710
10/26/2014  15:51:00      130.815      234.613        1.583      159.012      179.932      113.760    25284.964    32375.480    12941.428        7.137        3.530      268.619      105.993        0.156      339.849       13.462      861.725
10/26/2014  15:52:00      105.543      231.980       -0.639      122.116      173.403      107.216    14912.340    30068.583    11495.305        6.070        2.824      254.861      102.434        0.162      339.733       13.264      861.723
10/26/2014  15:53:00      179.218      223.079       15.138      178.452      144.566      102.691    31845.147    20899.191    10545.424        7.269        3.164      286.152       94.054        0.108      339.722       13.248      861.720
10/26/2014  15:54:00      142.444      146.974       23.453      148.214      101.709       76.627    21967.496    10344.676     5871.645        4.031        1.909      204.675       53.879        0.069      339.722       13.249      861.716
10/26/2014  15:55:00      138.608      221.044       -9.796      131.721      121.780       76.680    17350.542    14830.289     5879.899        5.311        1.903      260.908       64.308        0.061      339.811       13.396      861.742
10/26/2014  15:56:00      148.814      142.174       21.042      120.862       94.075       72.353    14607.709     8850.025     5234.987        3.574        1.435      205.813       50.559        0.060      339.696       13.204      861.703
10/26/2014  15:57:00      181.156      118.491       42.454       99.727       92.588       66.288     9945.438     8572.562     4394.116        3.578        1.146      216.467       44.732        0.043      339.853       13.469      861.683
10/26/2014  15:58:00      181.995      144.839       35.657      110.947       97.762       86.980    12309.241     9557.470     7565.537        4.240        1.472      232.596       60.835        0.068      339.843       13.452      861.708
10/26/2014  15:59:00       37.656      176.559        3.951      101.742      186.510       71.737    10351.345    34785.964     5146.218        4.143        2.514      180.530       78.750        0.190      340.021       13.753      861.730
10/26/2014  16:00:00      101.048      179.472       15.497      145.722      153.681      101.042    21234.775    23617.706    10209.581        4.885        2.753      205.964       86.566        0.177      339.931       13.600      861.734
10/26/2014  16:01:00      187.562      174.067       14.343      135.004      109.631       94.164    18226.030    12018.966     8866.837        5.239        1.956      255.888       63.741        0.062      339.875       13.505      861.725
10/26/2014  16:02:00      103.747      205.137        1.528      104.103      123.586       87.093    10837.340    15273.614     7585.257        4.326        1.685      229.880       81.599        0.126      339.844       13.453      861.731
10/26/2014  16:03:00       55.749      317.439      -25.935      107.665      185.572       93.662    11591.754    34437.024     8772.507        7.966        2.740      322.297      104.190        0.105      339.787       13.357      861.744
10/26/2014  16:04:00       76.967      323.940      -24.541      118.594      172.905       81.044    14064.586    29896.164     6568.087        8.099        2.526      332.958       89.783        0.073      339.724       13.251      861.752
10/26/2014  16:05:00       95.861      174.188       -2.282       87.547      102.194       82.181     7664.395    10443.605     6753.679        3.219        1.243      198.824       74.356        0.140      339.831       13.430      861.762
10/26/2014  16:06:00      131.680      201.822       -9.474      176.136      136.668       80.738    31023.943    18678.152     6518.665        5.718        2.811      240.980       73.863        0.094      339.760       13.312      861.753
10/26/2014  16:07:00      118.603      274.818      -19.419      111.396      140.163      105.409    12409.121    19645.690    11110.977        6.656        2.158      299.319      100.315        0.112      339.677       13.171      861.750
10/26/2014  16:08:00       95.620      205.901        3.080      101.132      123.184       96.888    10227.610    15174.185     9387.348        4.316        1.739      227.021       83.654        0.136      339.687       13.189      861.754
10/26/2014  16:09:00      136.082      225.643      -20.714      140.314      146.193      102.366    19688.016    21372.327    10478.730        6.069        2.577      263.501       94.381        0.128      339.685       13.184      861.772
10/26/2014  16:10:00      133.098      189.902        2.913      109.441      117.003       81.147    11977.311    13689.722     6584.761        4.301        1.613      231.901       79.619        0.118      339.633       13.097      861.775
10/26/2014  16:11:00       51.319      257.205      -16.243       91.294      133.986       80.981     8334.524    17952.171     6557.974        5.094        1.642      262.275       84.422        0.104      339.692       13.196      861.804
10/26/2014  16:12:00       58.891      366.425      -48.681      115.605      175.327       81.594    13364.586    30739.670     6657.569        9.542        2.538      371.127       80.637        0.047      339.602       13.045      861.815
10/26/2014  16:13:00       51.438      227.132      -34.992       66.989      165.212       67.672     4487.484    27295.028     4579.483        4.590        1.818      232.884       87.249        0.140      339.752       13.300      861.836
10/26/2014  16:14:00        4.744      264.514      -38.868       82.589      149.132       57.037     6821.024    22240.412     3253.174        5.190        1.616      264.557       72.083        0.074      339.861       13.481      861.880
10/26/2014  16:15:00       36.424      274.778      -15.251      116.286      155.223       82.346    13522.452    24094.334     6780.895        6.072        2.220      277.182       88.730        0.102      339.780       13.344      861.908
10/26/2014  16:16:00      -33.562      351.451      -44.332       86.138      134.914       54.806     7419.674    18201.729     3003.750        7.761        1.431      353.050       66.367        0.035      339.647       13.120      861.932
10/26/2014  16:17:00       53.489      308.762      -15.662      105.127      178.348       91.758    11051.762    31807.837     8419.466        7.485        2.564      313.361      106.376        0.115      339.619       13.074      861.935
10/26/2014  16:18:00      -25.059      371.643      -37.579      116.126      193.485       70.459    13485.214    37436.267     4964.521        9.801        2.794      372.487       78.977        0.045      339.555       12.966      861.923
10/26/2014  16:19:00       69.133      270.046      -10.127       95.301      201.466       93.038     9082.306    40588.417     8656.138        6.806        2.916      278.755      104.975        0.142      339.491       12.857      861.925
10/26/2014  16:20:00       68.333      223.826       -8.625      100.772      176.387       87.630    10154.994    31112.401     7679.009        5.188        2.447      234.024      105.681        0.204      339.570       12.991      861.907
10/26/2014  16:21:00      178.422      206.105        7.214      145.204      201.332       90.778    21084.075    40534.433     8240.733        7.210        3.493      272.606      100.231        0.135      339.602       13.045      861.893
10/26/2014  16:22:00      163.949      197.565        6.116      138.404      125.948       90.861    19155.570    15862.805     8255.766        5.460        2.164      256.732       81.832        0.102      339.510       12.889      861.911
10/26/2014  16:23:00      133.862      263.273        0.797      124.239      176.985      112.112    15435.440    31323.718    12569.104        7.327        2.966      295.351      111.142        0.142      339.438       12.770      861.935
10/26/2014  16:24:00      139.725      250.604      -15.883      111.560      132.281       93.291    12445.561    17498.339     8703.292        6.060        1.932      286.924       83.498        0.085      339.450       12.787      861.937
10/26/2014  16:25:00      246.246      167.372       46.018      157.670       94.489       91.860    24859.761     8928.104     8438.347        6.649        2.111      297.742       61.612        0.043      339.447       12.783      861.911
10/26/2014  16:26:00      322.245      213.693       30.961      148.107      105.834       89.959    21935.676    11200.791     8092.599        9.584        2.061      386.661       49.921        0.017      339.504       12.880      861.913
10/26/2014  16:27:00      292.221      185.615        7.668      138.044       89.221       83.524    19056.174     7960.431     6976.184        7.694        1.700      346.187       41.894        0.015      339.495       12.863      861.907
10/26/2014  16:28:00      285.565      169.416       75.807      117.977      106.149       83.268    13918.603    11267.505     6933.486        7.405        1.606      332.038       39.443        0.014      339.545       12.949      861.920
10/26/2014  16:29:00      117.629       93.251       14.854       96.608       82.054       65.280     9333.103     6732.923     4261.470        2.154        1.016      150.108       32.418        0.047      339.685       13.187      861.934
10/26/2014  16:30:00      122.701      109.889       18.744      121.377       81.447       54.998    14732.256     6633.593     3024.764        2.593        1.220      164.715       42.382        0.066      339.743       13.284      861.941
10/26/2014  16:31:00      173.222      132.403       33.936      103.854       73.543       56.044    10785.557     5408.538     3140.895        3.401        0.967      218.028       28.009        0.017      339.625       13.085      861.933
10/26/2014  16:32:00      243.403      164.175       38.411      130.870      120.466       80.232    17126.834    14511.989     6437.207        6.287        1.904      293.596       58.091        0.039      339.559       12.971      861.928
10/26/2014  16:33:00      119.819      100.454       18.418      114.538       85.297       59.742    13118.862     7275.644     3569.148        2.437        1.198      156.357       34.745        0.049      339.648       13.124      861.919
10/26/2014  16:34:00      139.884      151.991       18.980       98.674      103.912       75.814     9736.584    10797.783     5747.713        3.465        1.314      206.564       62.194        0.091      339.627       13.087      861.932
10/26/2014  16:35:00      230.260      197.495       18.290      124.885      110.575      102.098    15596.232    12226.770    10424.084        6.530        1.912      303.355       74.975        0.061      339.492       12.860      861.936
10/26/2014  16:36:00      150.966      177.693       16.201      124.176      112.255       83.541    15419.665    12601.143     6979.110        4.481        1.750      233.164       73.523        0.099      339.466       12.815      861.943
10/26/2014  16:37:00      100.836      223.107      -23.036       88.504      117.223       67.016     7833.040    13741.229     4491.207        4.327        1.303      244.836       61.428        0.063      339.549       12.955      861.941
10/26/2014  16:38:00      138.483      147.097       -6.773      124.051       87.794       58.584    15388.655     7707.811     3432.109        3.369        1.326      202.027       42.792        0.045      339.624       13.083      861.936
10/26/2014  16:39:00      104.502      159.927      -14.695      119.082       96.686       57.633    14180.496     9348.144     3321.548        3.178        1.343      191.043       49.180        0.066      339.618       13.072      861.937
10/26/2014  16:40:00      131.168      113.180       10.176      114.902       72.761       73.528    13202.490     5294.131     5406.416        2.701        1.195      173.248       42.886        0.061      339.638       13.106      861.954
10/26/2014  16:41:00      128.022      249.390       -1.989      112.361      157.968       98.478    12624.892    24953.873     9697.988        6.292        2.364      280.330       99.703        0.126      339.524       12.914      861.965
10/26/2014  16:42:00      106.228      139.135        7.009      112.957      130.729       83.649    12759.369    17090.199     6997.180        3.376        1.842      175.051       74.998        0.184      339.521       12.908      861.960
10/26/2014  16:43:00       82.706      206.207      -21.648       85.037      117.967       67.795     7231.239    13916.203     4596.102        3.778        1.287      222.174       72.935        0.108      339.575       12.999      861.978
10/26/2014  16:44:00       62.535      231.019      -42.185       87.476      112.098       65.840     7652.032    12565.962     4334.942        4.180        1.228      239.333       63.779        0.071      339.543       12.945      861.984
10/26/2014  16:45:00       44.871       52.316       14.041       92.359       66.542       48.885     8530.098     4427.823     2389.713        1.014        0.767       68.923       31.597        0.210      339.585       13.019      862.000
10/26/2014  16:46:00       24.754      193.589       -4.583       74.122      165.947       75.387     5494.039    27538.308     5683.257        3.841        1.936      195.165       82.978        0.181      339.589       13.023      862.016
10/26/2014  16:47:00       98.323      279.680      -24.757      104.006      179.525       94.987    10817.292    32229.395     9022.538        7.027        2.603      296.460      100.985        0.116      339.439       12.769      862.014
10/26/2014  16:48:00      128.120      154.564       -8.334      139.772      155.152      104.595    19536.246    24072.023    10940.180        4.745        2.727      200.761       86.987        0.188      339.366       12.647      862.014
10/26/2014  16:49:00      120.015      167.178        6.340      120.443      117.166       82.836    14506.432    13727.979     6861.784        3.874        1.755      205.796       69.153        0.113      339.354       12.626      862.024
10/26/2014  16:50:00       83.985      163.794        1.360      132.502       89.652       75.636    17556.876     8037.549     5720.869        3.259        1.566      184.070       59.506        0.105      339.406       12.715      862.033
10/26/2014  16:51:00       65.048      163.636       21.772       90.022      136.275       86.868     8103.988    18570.809     7546.052        3.284        1.711      176.091       80.297        0.208      339.377       12.668      862.020
10/26/2014  16:52:00      122.172      193.179      -10.710      110.821      112.408       60.951    12281.304    12635.517     3715.058        4.049        1.432      228.570       44.429        0.038      339.343       12.608      862.001
10/26/2014  16:53:00       37.530      227.402      -14.406       81.883      172.912       76.072     6704.848    29898.638     5787.004        4.785        2.120      230.478       96.469        0.175      339.385       12.680      862.011
10/26/2014  16:54:00       -6.079      422.817      -40.709       97.526      214.816       82.834     9511.375    46145.726     6861.469       12.148        3.126      422.861      105.500        0.062      339.266       12.478      862.019
10/26/2014  16:55:00      116.380      199.264       14.949      156.095      161.497       81.584    24365.617    26081.307     6656.028        5.528        2.855      230.760       86.760        0.141      339.355       12.628      862.043
10/26/2014  16:56:00      125.746      188.072      -15.030       96.326      114.112       72.223     9278.665    13021.435     5216.205        3.946        1.376      226.237       70.194        0.096      339.307       12.546      862.047
10/26/2014  16:57:00      244.751      177.077       20.390      124.776       77.273       67.988    15569.009     5971.177     4622.407        5.891        1.308      302.092       33.783        0.013      339.280       12.502      862.042
10/26/2014  16:58:00      146.639      122.788        5.605      127.994       73.861       54.334    16382.389     5455.386     2952.209        3.070        1.239      191.259       29.733        0.024      339.341       12.606      862.061
10/26/2014  16:59:00       91.188      136.703      -13.054       69.295       71.208       56.237     4801.811     5070.540     3162.605        2.010        0.652      164.326       42.694        0.068      339.431       12.760      862.093
10/26/2014  17:00:00       28.016      173.916      -21.096       49.760      104.021       41.329     2476.023    10820.391     1708.113        2.324        0.750      176.158       49.998        0.081      339.452       12.793      862.110
10/26/2014  17:01:00      111.202      194.328       -6.144      115.325      159.231       93.799    13299.872    25354.470     8798.345        4.880        2.373      223.895       86.523        0.149      339.317       12.566      862.122
10/26/2014  17:02:00       54.490      310.704      -29.042       89.026      182.647       87.617     7925.561    33359.866     7676.692        7.465        2.448      315.446      107.646        0.116      339.297       12.531      862.140
10/26/2014  17:03:00       88.683      144.101      -19.937       88.566       74.228       53.875     7843.885     5509.846     2902.516        2.264        0.813      169.203       48.018        0.081      339.358       12.634      862.141
10/26/2014  17:04:00       88.069      115.993        5.976      107.058       71.896       49.265    11461.323     5169.075     2427.049        2.015        0.953      145.639       31.336        0.046      339.352       12.625      862.130
10/26/2014  17:05:00        7.116      371.622      -57.820       72.177      114.460       50.208     5209.505    13101.123     2520.871        8.116        1.042      371.690       59.742        0.026      339.250       12.452      862.123
10/26/2014  17:06:00      143.559      160.629       -2.304      103.095      111.282       74.403    10628.508    12383.625     5535.872        3.748        1.427      215.432       72.707        0.114      339.270       12.486      862.113
10/26/2014  17:07:00      292.656      196.183       23.621      134.534       96.613       82.965    18099.287     9334.015     6883.115        7.950        1.716      352.328       61.297        0.030      339.168       12.313      862.090
10/26/2014  17:08:00      287.433      192.236       47.838      107.635       81.481       64.603    11585.272     6639.228     4173.522        7.212        1.120      345.792       47.401        0.019      339.161       12.302      862.096
10/26/2014  17:09:00      225.797      127.019       28.770      124.667       75.863       66.502    15541.774     5755.150     4422.471        4.683        1.286      259.072       45.926        0.031      339.173       12.322      862.090
10/26/2014  17:10:00      233.495      181.112       22.441      128.176      107.768       67.539    16429.164    11613.983     4561.550        6.021        1.630      295.502       57.219        0.037      339.170       12.318      862.115
10/26/2014  17:11:00      120.591      109.320       27.538       93.161       71.430       56.542     8678.952     5102.188     3197.031        2.211        0.849      162.767       45.165        0.077      339.217       12.398      862.123
10/26/2014  17:12:00       93.916       76.955       32.553       98.347       74.960       52.233     9672.187     5619.010     2728.335        1.691        0.901      121.418       35.381        0.085      339.228       12.417      862.128
10/26/2014  17:13:00      132.633      112.660       29.240      152.842      111.634       88.254    23360.587    12462.108     7788.818        3.737        2.181      174.023       61.450        0.125      339.204       12.375      862.170
10/26/2014  17:14:00       95.366      160.350       16.662      113.780      119.856       95.608    12945.784    14365.538     9140.967        3.576        1.823      186.565       82.848        0.197      339.125       12.240      862.171
10/26/2014  17:15:00      107.104      141.746        5.227       92.989       81.245       62.361     8646.988     6600.791     3888.867        2.536        0.957      177.660       46.126        0.067      339.131       12.251      862.165
10/26/2014  17:16:00      214.050      175.164       15.791      120.920       77.927       65.790    14621.738     6072.564     4328.264        5.088        1.251      276.585       36.135        0.017      339.149       12.282      862.183
10/26/2014  17:17:00       68.822      150.307        3.854       86.485      125.873       74.464     7479.725    15844.067     5544.883        2.810        1.443      165.314       69.451        0.176      339.123       12.238      862.204
10/26/2014  17:18:00       93.382      180.951       -7.239      118.368      136.273       90.054    14010.889    18570.401     8109.788        4.110        2.035      203.626       77.235        0.144      339.090       12.182      862.210
10/26/2014  17:19:00      107.994      245.673      -14.457      129.857      177.077       94.943    16862.844    31356.354     9014.207        6.472        2.862      268.361       96.883        0.130      339.042       12.101      862.221
10/26/2014  17:20:00       51.086      371.705      -47.524       95.610      158.997       78.734     9141.297    25279.923     6199.075        9.182        2.031      375.199       82.300        0.048      338.978       11.995      862.246
10/26/2014  17:21:00      132.613      140.383       34.432      133.187       92.832       83.906    17738.759     8617.808     7040.236        3.593        1.670      193.115       61.360        0.101      338.967       11.975      862.235
10/26/2014  17:22:00       66.180      166.858      -19.012       79.098       80.951       45.324     6256.438     6553.078     2054.304        2.372        0.743      179.503       37.132        0.043      338.975       11.991      862.233
10/26/2014  17:23:00       61.587      149.164      -17.876       83.166       97.639       64.162     6916.608     9533.400     4116.760        2.346        1.028      161.378       56.114        0.121      339.013       12.052      862.228
10/26/2014  17:24:00       86.645      187.186       -4.434       99.361      124.453       79.564     9872.671    15488.426     6330.481        3.712        1.585      206.267       71.340        0.120      338.998       12.029      862.222
10/26/2014  17:25:00      147.130      130.877        6.038      118.111      101.470       85.032    13950.194    10296.142     7230.484        3.514        1.574      196.916       69.199        0.123      338.985       12.007      862.212
10/26/2014  17:26:00       94.137      176.656       -4.036       90.360      102.647       64.392     8164.890    10536.369     4146.358        3.146        1.142      200.173       60.780        0.092      338.985       12.008      862.221
10/26/2014  17:27:00      163.722      167.724        9.848      144.014      101.717       77.302    20740.032    10346.282     5975.549        4.604        1.853      234.385       55.716        0.057      338.986       12.009      862.209
10/26/2014  17:28:00       31.672      229.391       -4.989       89.647      139.435       74.331     8036.577    19442.059     5525.039        4.332        1.650      231.567       74.759        0.104      338.988       12.012      862.198
10/26/2014  17:29:00       91.269      223.217       -9.269       98.972      148.486       75.830     9795.439    22048.000     5750.206        4.791        1.880      241.156       84.159        0.122      338.972       11.984      862.197
10/26/2014  17:30:00      162.802      190.171       13.868      135.199      118.421       92.635    18278.764    14023.610     8581.186        5.186        2.044      250.338       73.842        0.087      338.954       11.954      862.187
10/26/2014  17:31:00      122.037       86.036        8.345       94.510       61.349       52.888     8932.124     3763.656     2797.170        1.893        0.775      149.315       43.165        0.084      338.987       12.011      862.184
10/26/2014  17:32:00      111.667      207.898      -13.605      118.289      107.259       72.695    13992.181    11504.541     5284.584        4.332        1.539      235.989       55.440        0.055      338.930       11.912      862.183
10/26/2014  17:33:00      123.853      147.169        1.737       88.108       98.302       74.864     7763.012     9663.355     5604.563        3.001        1.152      192.349       65.647        0.116      338.919       11.897      862.173
10/26/2014  17:34:00      172.623      181.028        7.747      122.791       97.735       81.221    15077.541     9552.148     6596.849        4.692        1.561      250.139       63.123        0.064      338.894       11.851      862.161
10/26/2014  17:35:00       75.910      115.368        8.931       79.364      101.996       69.513     6298.632    10403.119     4831.988        2.034        1.077      138.102       58.152        0.177      338.884       11.836      862.157
10/26/2014  17:36:00       98.687      137.005       10.137       96.444      101.478       76.977     9301.511    10297.706     5925.520        2.706        1.276      168.847       62.053        0.135      338.870       11.813      862.174
10/26/2014  17:37:00      157.626      119.420       28.312      110.984       74.033       52.528    12317.385     5480.919     2759.215        3.023        1.028      197.755       36.698        0.034      338.843       11.768      862.179
10/26/2014  17:38:00      121.690      167.364      -11.270       83.478       98.330       63.707     6968.512     9668.775     4058.563        3.182        1.035      206.928       61.924        0.090      338.819       11.727      862.185
10/26/2014  17:39:00       86.159      145.172      -15.569       83.398       93.728       59.819     6955.269     8784.845     3578.328        2.403        0.966      168.815       60.350        0.128      338.827       11.742      862.215
10/26/2014  17:40:00      113.375      110.659        7.806      101.709       84.385       51.778    10344.774     7120.751     2680.940        2.265        1.007      158.428       49.962        0.099      338.823       11.734      862.244
10/26/2014  17:41:00      131.994      165.488       -0.045      130.513       90.898       73.782    17033.697     8262.370     5443.852        3.777        1.537      211.680       59.729        0.080      338.761       11.630      862.259
10/26/2014  17:42:00      188.069      137.995       29.038      134.197       91.555       80.767    18008.895     8382.231     6523.290        4.408        1.646      233.265       67.745        0.084      338.765       11.636      862.276
10/26/2014  17:43:00       83.712      225.613       -5.711      105.447      127.309       59.711    11119.147    16207.644     3565.411        4.441        1.545      240.642       65.014        0.073      338.767       11.639      862.291
10/26/2014  17:44:00       78.769       68.014       53.377       95.657       72.855       73.499     9150.264     5307.902     5402.157        1.677        0.993      104.070       46.438        0.199      338.752       11.616      862.260
10/26/2014  17:45:00       65.649       98.939        7.527       63.486       85.735       66.357     4030.492     7350.412     4403.187        1.497        0.789      118.737       52.555        0.196      338.742       11.598      862.273
10/26/2014  17:46:00       86.301       78.277       18.124       71.378       57.447       51.250     5094.875     3300.163     2626.562        1.246        0.551      116.512       36.767        0.100      338.726       11.572      862.272
10/26/2014  17:47:00       41.627       89.512       -5.969       63.537       61.307       35.958     4037.000     3758.603     1292.964        0.943        0.454       98.718       27.377        0.077      338.708       11.544      862.281
10/26/2014  17:48:00       50.759      117.475       -6.403       69.089       93.784       52.293     4773.238     8795.504     2734.605        1.636        0.815      127.972       52.813        0.170      338.694       11.517      862.298
10/26/2014  17:49:00       67.240      107.729       10.236       80.632       80.312       65.505     6501.487     6449.958     4290.868        1.673        0.862      126.991       51.515        0.165      338.680       11.495      862.304
10/26/2014  17:50:00       -2.085      280.472      -39.293       62.856       80.094       40.563     3950.879     6414.992     1645.380        4.611        0.601      280.480       30.529        0.012      338.690       11.509      862.307
10/26/2014  17:51:00      -14.530      204.674      -25.212       59.522       56.393       36.282     3542.815     3180.165     1316.391        2.539        0.402      205.189       35.158        0.029      338.691       11.512      862.311
10/26/2014  17:52:00      -18.474      154.194      -11.084       50.937       82.214       35.118     2594.590     6759.222     1233.251        1.741        0.529      155.296       39.989        0.066      338.666       11.471      862.309
10/26/2014  17:53:00       17.913      204.954      -19.265       59.707       71.151       41.883     3564.980     5062.532     1754.203        2.654        0.519      205.736       42.433        0.043      338.674       11.482      862.317
10/26/2014  17:54:00       18.415      158.034       -9.843       46.305       74.044       44.069     2144.162     5482.553     1942.089        1.749        0.478      159.104       45.656        0.082      338.658       11.457      862.316
10/26/2014  17:55:00       28.968      191.138      -25.342       44.920       70.431       35.730     2017.800     4960.584     1276.650        2.313        0.413      193.321       39.848        0.042      338.636       11.420      862.309
10/26/2014  17:56:00       -3.659       99.737       -9.033       45.961       92.536       42.859     2112.450     8562.910     1836.862        1.127        0.626       99.805       48.379        0.235      338.632       11.414      862.312
10/26/2014  17:57:00       83.075       90.365       10.443       59.483       50.924       42.218     3538.225     2593.282     1782.387        1.154        0.396      122.749       29.763        0.059      338.609       11.376      862.311
10/26/2014  17:58:00       26.601      194.491      -22.089       57.735       79.541       48.608     3333.341     6326.765     2362.785        2.552        0.601      196.301       46.440        0.056      338.588       11.339      862.322
10/26/2014  17:59:00       53.687      156.884      -20.489       66.616       91.927       49.493     4437.670     8450.530     2449.549        2.162        0.767      165.816       47.608        0.082      338.553       11.281      862.324
10/26/2014  18:00:00       39.684      118.915      -10.843       51.031       78.788       46.486     2604.183     6207.548     2160.963        1.340        0.549      125.362       45.760        0.133      338.566       11.304      862.324
10/26/2014  18:01:00        1.786      155.386      -15.520       70.196       59.243       35.185     4927.461     3509.762     1238.015        1.703        0.484      155.397       27.566        0.031      338.555       11.285      862.341
10/26/2014  18:02:00        9.023      155.107      -12.639       68.789       78.091       45.324     4731.929     6098.200     2054.286        1.859        0.644      155.370       45.812        0.087      338.576       11.320      862.359
10/26/2014  18:03:00       40.531      147.633      -11.847       68.047       97.420       52.403     4630.400     9490.725     2746.037        2.022        0.843      153.096       58.124        0.144      338.519       11.225      862.372
10/26/2014  18:04:00       32.774      129.406      -12.409       56.177       69.272       30.686     3155.837     4798.561      941.606        1.343        0.445      133.492       32.875        0.061      338.501       11.193      862.384
10/26/2014  18:05:00       20.739      161.462      -15.617       57.897       62.493       39.641     3352.067     3905.331     1571.410        1.778        0.441      162.788       41.811        0.066      338.532       11.245      862.394
10/26/2014  18:06:00      -18.370      295.760      -33.542       92.657      118.583       55.662     8585.249    14061.840     3098.267        5.734        1.287      296.330       59.191        0.040      338.506       11.201      862.380
10/26/2014  18:07:00       -6.214      241.891      -19.148       64.100      146.950       58.254     4108.833    21594.161     3393.492        4.400        1.455      241.971       78.533        0.105      338.472       11.145      862.389
10/26/2014  18:08:00       11.964      127.202       -2.104       60.383      116.371       63.801     3646.152    13542.133     4070.604        1.879        1.063      127.764       73.631        0.332      338.477       11.154      862.381
10/26/2014  18:09:00       -3.389      208.761      -26.395       41.698       45.945       34.171     1738.702     2110.948     1167.648        2.465        0.251      208.788       27.331        0.017      338.491       11.176      862.383
10/26/2014  18:10:00      -46.248      185.821      -18.930       70.709       70.625       34.560     4999.728     4987.918     1194.416        2.410        0.559      191.490       35.679        0.035      338.495       11.184      862.380
10/26/2014  18:11:00      -12.157      267.569      -31.560       52.419       85.567       43.582     2747.756     7321.668     1899.432        4.235        0.598      267.845       44.775        0.028      338.474       11.146      862.372
10/26/2014  18:12:00        9.481      199.659      -12.701       49.032       72.618       43.471     2404.100     5273.435     1889.721        2.484        0.478      199.884       44.293        0.049      338.441       11.093      862.360
10/26/2014  18:13:00      -21.156      123.091       -9.838       45.162       84.684       34.223     2039.612     7171.372     1171.244        1.304        0.519      124.896       32.759        0.069      338.501       11.194      862.359
10/26/2014  18:14:00      -24.236      139.298      -16.388       44.179       35.858       24.458     1951.818     1285.793      598.185        1.205        0.192      141.391       25.350        0.032      338.576       11.323      862.361
10/26/2014  18:15:00      -49.015      213.532      -28.400       43.349       47.169       35.018     1879.137     2224.877     1226.266        2.707        0.267      219.085       28.366        0.017      338.494       11.181      862.358
10/26/2014  18:16:00      -69.820      193.179      -19.126       49.170       37.395       26.430     2417.697     1398.374      698.564        2.354        0.226      205.409       20.361        0.010      338.505       11.202      862.358
10/26/2014  18:17:00      -79.263      137.929      -21.626       51.767       90.911       43.223     2679.796     8264.734     1868.268        1.929        0.641      159.082       45.774        0.083      338.486       11.169      862.367
10/26/2014  18:18:00      -79.134      121.542      -16.558       57.389       52.383       34.985     3293.516     2743.958     1223.985        1.428        0.363      145.034       33.520        0.053      338.475       11.153      862.370
10/26/2014  18:19:00     -145.316      200.014      -30.117       58.264       80.760       41.158     3394.744     6522.249     1693.971        3.682        0.581      247.230       37.066        0.022      338.435       11.080      862.370
10/26/2014  18:20:00      -80.190      106.524      -13.831       45.309       42.570       33.329     2052.932     1812.173     1110.792        1.147        0.249      133.333       22.881        0.029      338.436       11.085      862.360
10/26/2014  18:21:00      -77.103      147.133      -15.986       61.784       73.719       35.611     3817.257     5434.556     1268.139        1.918        0.526      166.111       35.345        0.045      338.428       11.071      862.356
10/26/2014  18:22:00      -50.722      126.356      -15.723       46.987       73.662       31.200     2207.746     5426.048      973.448        1.369        0.430      136.156       23.461        0.030      338.415       11.051      862.340
10/26/2014  18:23:00      -38.807      313.220      -47.414       65.766       97.671       38.526     4325.210     9539.660     1484.216        5.860        0.767      315.615       45.756        0.021      338.422       11.057      862.318
10/26/2014  18:24:00      -81.372      148.322      -18.407       65.868       79.242       38.931     4338.612     6279.342     1515.654        2.054        0.607      169.177       28.328        0.028      338.416       11.050      862.308
10/26/2014  18:25:00      -76.813      213.385      -19.693       68.970       87.305       46.122     4756.857     7622.153     2127.197        3.316        0.725      226.790       47.120        0.043      338.384       10.996      862.310
10/26/2014  18:26:00      -81.420      159.098      -26.975       52.799       77.475       36.669     2787.759     6002.317     1344.628        2.140        0.507      178.722       25.733        0.021      338.420       11.057      862.302
10/26/2014  18:27:00      -60.966      272.002      -28.829       58.768      109.214       40.164     3453.645    11927.655     1613.159        4.776        0.850      278.750       41.638        0.022      338.376       10.982      862.302
10/26/2014  18:28:00      -42.455      235.633      -25.726       58.188       67.295       32.436     3385.900     4528.556     1052.115        3.347        0.448      239.427       28.430        0.014      338.364       10.963      862.301
10/26/2014  18:29:00      -34.747      196.372      -30.012       37.015       49.342       26.698     1370.086     2434.618      712.770        2.259        0.226      199.423        7.766        0.002      338.365       10.965      862.298
10/26/2014  18:30:00      -97.951      206.705      -27.066       66.417      104.608       40.740     4411.225    10942.824     1659.715        3.503        0.851      228.739       47.101        0.042      338.330       10.905      862.317
10/26/2014  18:31:00      -49.432      142.809      -14.393       68.503       87.458       31.739     4692.640     7648.919     1007.349        1.819        0.667      151.122       34.318        0.052      338.293       10.844      862.333
10/26/2014  18:32:00      -94.493      203.274      -29.233       52.841       93.736       34.672     2792.166     8786.394     1202.168        3.194        0.639      224.163       33.888        0.023      338.322       10.890      862.342
10/26/2014  18:33:00      -44.187       79.428       -7.554       44.428       75.239       33.085     1973.853     5660.871     1094.624        0.852        0.436       90.892       24.621        0.073      338.260       10.791      862.358
10/26/2014  18:34:00      -81.665      121.543      -22.652       52.409       66.272       35.132     2746.699     4392.040     1234.245        1.516        0.419      146.431       35.718        0.059      338.220       10.722      862.361
10/26/2014  18:35:00      -34.017      132.212       -7.947       49.201       98.411       34.315     2420.726     9684.685     1177.528        1.599        0.664      136.518       29.674        0.047      338.157       10.617      862.362
10/26/2014  18:36:00      -68.959      187.796      -18.832       50.592       66.276       40.478     2559.570     4392.509     1638.429        2.448        0.430      200.057       33.078        0.027      338.093       10.508      862.354
10/26/2014  18:37:00      -43.154       80.467       -2.211       45.132       61.226       28.223     2036.897     3748.570      796.518        0.746        0.329       91.308       32.425        0.126      338.088       10.502      862.370
10/26/2014  18:38:00      -47.546      113.197      -11.808       51.999       85.477       41.310     2703.868     7306.343     1706.543        1.346        0.586      122.777       37.992        0.096      338.080       10.487      862.384
10/26/2014  18:39:00      -87.017      185.603      -30.615       85.164       85.410       35.834     7252.954     7294.867     1284.060        2.939        0.792      204.989       38.639        0.036      338.084       10.494      862.398
10/26/2014  18:40:00      -89.715      137.950      -22.235       62.836       58.783       38.689     3948.400     3455.481     1496.870        1.824        0.445      164.558       39.888        0.059      338.039       10.417      862.410
10/26/2014  18:41:00     -112.667       74.668      -24.680      104.356       44.162       41.951    10890.203     1950.258     1759.889        1.674        0.730      135.163       52.042        0.148      338.058       10.451      862.416
10/26/2014  18:42:00      -59.684       97.463      -13.019       50.248       55.707       33.221     2524.909     3103.323     1103.642        0.998        0.337      114.286       30.327        0.070      338.015       10.379      862.418
10/26/2014  18:43:00      -78.953      128.742      -21.958       50.707       56.567       30.269     2571.248     3199.835      916.194        1.499        0.334      151.024       34.444        0.052      337.963       10.291      862.443
10/26/2014  18:44:00      -96.011      108.321      -23.655       51.689       56.124       29.632     2671.723     3149.955      878.044        1.410        0.335      144.747       21.883        0.023      337.925       10.229      862.467
10/26/2014  18:45:00      -61.966       47.579        1.403       39.354       32.223       30.023     1548.738     1038.320      901.402        0.480        0.174       78.125       18.688        0.057      337.929       10.236      862.481
10/26/2014  18:46:00       13.647       11.943        9.897       10.908       18.260       15.585      118.988      333.439      242.900        0.056        0.035       18.135        9.801        0.292      337.904       10.193      862.480
10/26/2014  18:47:00      -29.549      139.211      -18.654       36.380       49.797       18.529     1323.472     2479.752      343.327        1.237        0.207      142.312       14.711        0.011      337.973       10.308      862.475
10/26/2014  18:48:00      -48.212       66.898       -9.849       31.528       52.434       21.631      994.042     2749.331      467.901        0.555        0.211       82.461       24.512        0.088      338.024       10.394      862.469
10/26/2014  18:49:00      -66.443      116.316      -13.691       35.672       49.297       26.756     1272.500     2430.154      715.876        1.127        0.221      133.955       16.546        0.015      338.041       10.423      862.456
10/26/2014  18:50:00      -46.941       28.755      -10.674       31.924       49.730       18.265     1019.111     2473.103      333.599        0.348        0.191       55.048       21.080        0.147      338.009       10.369      862.453
10/26/2014  18:51:00       -9.399       77.134       -7.026       25.769       27.654       19.182      664.053      764.752      367.943        0.394        0.090       77.704       16.223        0.044      337.950       10.270      862.449
10/26/2014  18:52:00      -63.287      112.639      -14.126       71.575       75.863       39.894     5122.922     5755.228     1591.519        1.468        0.623      129.200       54.809        0.180      337.917       10.213      862.458
10/26/2014  18:53:00      -83.879       91.343      -14.216       48.630       48.406       29.530     2364.915     2343.117      872.047        1.058        0.279      124.013       30.308        0.060      337.917       10.216      862.461
10/26/2014  18:54:00      -23.757       71.759        2.034       47.555       46.994       28.331     2261.434     2208.399      802.641        0.549        0.264       75.589       28.653        0.144      337.900       10.186      862.460
10/26/2014  18:55:00       -0.497       81.559       -9.605       41.527       59.510       31.990     1724.459     3541.409     1023.341        0.652        0.314       81.560       40.365        0.245      337.899       10.185      862.464
10/26/2014  18:56:00      -25.520      165.001      -17.793       39.228       47.151       29.258     1538.852     2223.174      856.055        1.640        0.231      166.963       25.612        0.024      337.867       10.131      862.459
10/26/2014  18:57:00      -15.882      187.283      -18.512       45.278       56.015       31.632     2050.095     3137.709     1000.569        2.093        0.309      187.955       29.318        0.024      337.797       10.013      862.478
10/26/2014  18:58:00      -22.459       83.718        3.692       44.900       54.664       31.239     2016.041     2988.137      975.885        0.675        0.299       86.679       30.619        0.125      337.724        9.893      862.475
10/26/2014  18:59:00      -21.754      114.173      -10.696       32.887       28.406       22.392     1081.531      806.920      501.412        0.801        0.119      116.227       19.617        0.028      337.783        9.989      862.496
10/26/2014  19:00:00       20.287      120.050       -9.017       29.425       55.492       29.188      865.856     3079.365      851.948        0.985        0.240      121.752       33.028        0.074      337.748        9.931      862.504
10/26/2014  19:01:00        6.481      123.013      -13.767       25.930       37.142       25.674      672.372     1379.528      659.143        0.904        0.136      123.183       23.581        0.037      337.742        9.921      862.517
10/26/2014  19:02:00        8.568      131.210      -18.282       22.658       38.226       19.350      513.373     1461.195      374.410        0.999        0.117      131.490       19.645        0.022      337.743        9.924      862.525
10/26/2014  19:03:00        8.801      133.983      -20.337       27.418       29.814       17.197      751.734      888.874      295.735        1.019        0.097      134.272        7.525        0.003      337.696        9.844      862.518
10/26/2014  19:04:00      -34.024      116.644      -12.024       27.891       52.698       19.360      777.921     2777.050      374.818        0.942        0.196      121.505       19.512        0.026      337.826       10.063      862.512
10/26/2014  19:05:00      -61.992      151.478      -28.751       54.604       81.015       34.001     2981.602     6563.386     1156.045        1.916        0.535      163.672       35.410        0.047      337.762        9.954      862.507
10/26/2014  19:06:00      -99.951      137.965      -31.040       50.926       54.970       25.329     2593.457     3021.703      641.534        1.812        0.313      170.366       25.152        0.022      337.715        9.873      862.500
10/26/2014  19:07:00      -60.998      107.153      -12.561       35.380       59.279       31.468     1251.764     3513.984      990.208        1.056        0.288      123.298       24.082        0.038      337.704        9.858      862.501
10/26/2014  19:08:00      -59.990      112.889       -9.767       25.882       38.079       23.283      669.882     1450.010      542.114        0.955        0.133      127.839       10.311        0.007      337.745        9.926      862.524
10/26/2014  19:09:00      -95.456      121.680      -20.201       59.527       66.801       34.680     3543.501     4462.419     1202.698        1.677        0.460      154.654       34.841        0.051      337.705        9.859      862.535
10/26/2014  19:10:00      -53.162       81.283       -6.582       59.309       61.764       29.190     3517.522     3814.807      852.070        0.883        0.409       97.124       26.508        0.074      337.684        9.824      862.537
10/26/2014  19:11:00      -48.061       77.005       -6.703       34.495       40.583       25.240     1189.905     1646.962      637.047        0.588        0.174       90.773       23.118        0.065      337.674        9.807      862.535
10/26/2014  19:12:00     -110.033       61.006      -25.531       40.919       70.928       25.448     1674.387     5030.767      647.600        1.192        0.368      125.813       18.433        0.021      337.749        9.934      862.552
10/26/2014  19:13:00      -80.990      108.607      -20.246       62.196       57.670       30.675     3868.371     3325.824      940.941        1.345        0.407      135.480       28.898        0.045      337.646        9.760      862.560
10/26/2014  19:14:00      -85.203      202.932      -30.319      111.180       76.160       42.558    12361.098     5800.293     1811.218        3.466        0.999      220.094       49.766        0.051      337.672        9.804      862.586
10/26/2014  19:15:00      -42.574       59.277       -7.767       42.293       53.569       30.207     1788.727     2869.627      912.480        0.548        0.279       72.982       26.575        0.133      337.624        9.726      862.594
10/26/2014  19:16:00      -52.476       67.866      -15.542       67.493       48.802       29.434     4555.244     2381.631      866.365        0.770        0.390       85.787       31.322        0.133      337.722        9.887      862.619
10/26/2014  19:17:00      -35.601      126.939      -16.517       59.847       51.436       37.878     3581.630     2645.655     1434.723        1.266        0.383      131.837       31.004        0.055      337.667        9.795      862.625
10/26/2014  19:18:00      -47.221      104.533        2.629       69.918       71.910       43.179     4888.467     5171.089     1864.394        1.254        0.596      114.704       56.017        0.239      337.634        9.741      862.642
10/26/2014  19:19:00     -133.730       89.764      -37.551       45.612       46.840       28.352     2080.467     2193.953      803.827        1.621        0.254      161.063       23.488        0.021      337.732        9.906      862.647
10/26/2014  19:20:00      -95.491      121.758      -28.577       64.001       67.014       45.610     4096.141     4490.869     2080.252        1.771        0.533      154.738       45.393        0.086      337.665        9.791      862.671
10/26/2014  19:21:00      -86.096       87.235      -16.409       47.224       61.986       27.677     2230.076     3842.254      766.004        1.106        0.342      122.566       19.728        0.026      337.707        9.862      862.679
10/26/2014  19:22:00     -159.735      125.547      -37.212       57.447       77.117       40.370     3300.131     5947.039     1629.768        2.677        0.544      203.168       38.937        0.037      337.726        9.892      862.686
10/26/2014  19:23:00     -109.704      159.171      -30.212       57.157       66.239       38.122     3266.977     4387.621     1453.297        2.369        0.455      193.314       35.088        0.033      337.658        9.779      862.700
10/26/2014  19:24:00     -154.122      231.884      -45.202       61.683       96.086       36.728     3804.779     9232.549     1348.973        4.697        0.719      278.431       39.592        0.020      337.684        9.822      862.689
10/26/2014  19:25:00      -22.416       93.010      -18.330       48.295       35.701       25.129     2332.397     1274.540      631.470        0.686        0.212       95.673       18.489        0.037      337.657        9.778      862.694
10/26/2014  19:26:00      -67.696      148.308      -10.367       81.359       96.395       40.458     6619.361     9292.058     1636.851        2.211        0.877      163.027       42.839        0.069      337.659        9.779      862.699
10/26/2014  19:27:00     -127.623      109.100      -16.816       67.910       69.825       34.797     4611.711     4875.540     1210.821        1.958        0.535      167.900       26.402        0.025      337.682        9.820      862.705
10/26/2014  19:28:00      -60.250      179.199      -15.349       55.322       64.849       42.817     3060.568     4205.440     1833.269        2.254        0.455      189.056       43.284        0.052      337.680        9.815      862.719
10/26/2014  19:29:00      -12.380      175.814      -17.845       31.955       54.507       31.319     1021.111     2971.027      980.895        1.818        0.249      176.249       25.190        0.020      337.641        9.752      862.731
10/26/2014  19:30:00      -27.054       63.768        0.002       59.814       34.941       33.054     3577.747     1220.895     1092.571        0.534        0.295       69.270       30.195        0.190      337.628        9.730      862.757
10/26/2014  19:31:00      -22.415      190.156      -17.581       59.354       94.133       40.092     3522.912     8861.075     1607.384        2.548        0.700      191.472       50.267        0.069      337.583        9.653      862.770
10/26/2014  19:32:00      -33.467      183.071      -12.579       43.105       97.464       38.474     1858.078     9499.312     1480.221        2.381        0.642      186.105       41.882        0.051      337.599        9.680      862.800
10/26/2014  19:33:00       10.669       99.229      -20.622       28.803       46.941       19.971      829.587     2203.464      398.840        0.691        0.172       99.801       15.980        0.026      337.583        9.657      862.823
10/26/2014  19:34:00        0.379       97.856      -14.056       33.395       37.294       24.978     1115.255     1390.832      623.883        0.645        0.156       97.857       15.758        0.026      337.570        9.634      862.868
10/26/2014  19:35:00       -7.968       51.862      -18.908       32.298       45.856       16.883     1043.141     2102.747      285.043        0.327        0.172       52.470       20.505        0.153      337.621        9.719      862.898
10/26/2014  19:36:00       -2.988       87.010       -9.915       47.009       50.121       21.228     2209.833     2512.099      450.642        0.642        0.259       87.061       23.680        0.074      337.566        9.626      862.922
10/26/2014  19:37:00      -40.020       34.686      -10.350       31.764       35.270       14.886     1008.930     1243.981      221.583        0.269        0.124       52.960       20.206        0.146      337.649        9.764      862.941
10/26/2014  19:38:00        0.242       39.848       -6.230       25.625       32.492       18.698      656.657     1055.713      349.632        0.184        0.103       39.849       20.686        0.269      337.543        9.588      862.941
10/26/2014  19:39:00       27.264       54.407        0.363       30.008       29.285       21.384      900.488      857.618      457.291        0.296        0.111       60.856       18.500        0.092      337.466        9.458      862.942
10/26/2014  19:40:00       26.856       66.028        3.376       43.783       35.507       32.458     1916.915     1260.739     1053.518        0.466        0.212       71.281       22.637        0.101      337.462        9.452      862.946
10/26/2014  19:41:00       17.730       69.032        4.495       39.254       43.929       27.906     1540.866     1929.730      778.770        0.467        0.212       71.272       24.393        0.117      337.442        9.419      862.928
10/26/2014  19:42:00       37.334       55.364        2.749       31.755       29.730       25.355     1008.379      883.869      642.868        0.350        0.127       66.776       20.070        0.090      337.444        9.422      862.916
10/26/2014  19:43:00       20.230       72.367       -2.773       22.235       23.187       17.304      494.414      537.647      299.432        0.349        0.067       75.141       13.628        0.033      337.431        9.398      862.915
10/26/2014  19:44:00       18.148       65.605        4.164       45.143       33.905       29.376     2037.895     1149.557      862.969        0.435        0.203       68.069       29.511        0.188      337.417        9.377      862.904
10/26/2014  19:45:00       14.584       46.781       -1.777       30.108       38.058       16.333      906.464     1448.446      266.763        0.251        0.131       49.001       20.997        0.184      337.341        9.249      862.908
10/26/2014  19:46:00       27.489      125.004      -19.111       29.383       30.892       19.577      863.332      954.346      383.267        0.947        0.110      127.991       14.866        0.013      337.313        9.204      862.919
10/26/2014  19:47:00       11.037      132.568      -26.377       26.956       45.802       18.469      726.599     2097.841      341.108        1.078        0.158      133.026       20.821        0.024      337.360        9.280      862.922
10/26/2014  19:48:00      -22.648      144.246      -16.408       22.087       38.472       17.031      487.823     1480.118      290.057        1.192        0.113      146.013       20.340        0.019      337.348        9.262      862.936
10/26/2014  19:49:00      -38.456       66.897       -3.952       31.936       33.765       19.743     1019.880     1140.070      389.797        0.426        0.127       77.163        9.463        0.015      337.464        9.456      862.960
10/26/2014  19:50:00      -88.426       97.178      -24.602       24.176       31.662       19.184      584.484     1002.502      368.022        0.991        0.098      131.388       14.871        0.013      337.395        9.339      862.978
10/26/2014  19:51:00      -67.919       81.774      -20.191       33.607       27.234       17.757     1129.404      741.666      315.299        0.695        0.109      106.302       14.500        0.019      337.474        9.472      862.985
10/26/2014  19:52:00      -67.826      102.884      -18.917       39.429       37.661       23.131     1554.676     1418.343      535.034        0.952        0.175      123.230       20.119        0.027      337.427        9.392      862.994
10/26/2014  19:53:00      -66.451      106.643      -22.036       33.591       27.801       18.522     1128.352      772.892      343.063        0.926        0.112      125.652       14.855        0.014      337.414        9.373      863.001
10/26/2014  19:54:00      -23.624       97.090      -10.242       31.148       28.395       18.286      970.208      806.268      334.386        0.610        0.106       99.923       12.708        0.016      337.513        9.539      862.989
10/26/2014  19:55:00      -78.851       44.085      -11.974       28.915       29.134       18.666      836.076      848.794      348.432        0.517        0.102       90.338       11.954        0.018      337.563        9.621      862.971
10/26/2014  19:56:00      -77.660       45.508      -11.956       38.900       26.615       17.090     1513.222      708.361      292.084        0.538        0.126       90.011        9.320        0.011      337.548        9.596      862.975
10/26/2014  19:57:00      -71.480       58.421      -16.014       46.537       35.139       17.605     2165.737     1234.751      309.932        0.624        0.186       92.317        9.237        0.010      337.531        9.568      862.960
10/26/2014  19:58:00      -41.573       41.344       -9.241       22.398       22.714       14.504      501.656      515.911      210.379        0.238        0.061       58.631       12.035        0.042      337.558        9.613      862.957
10/26/2014  19:59:00      -35.093       43.705       -7.561       32.365       30.098       11.873     1047.480      905.885      140.972        0.265        0.105       56.050        5.448        0.009      337.479        9.480      862.968
10/26/2014  20:00:00      -21.837       48.386       -3.848       37.699       29.163       20.160     1421.190      850.501      406.437        0.275        0.134       53.085       18.738        0.125      337.478        9.476      862.986
10/26/2014  20:01:00      -96.698       84.484      -17.209       40.763       50.362       28.114     1661.620     2536.317      790.421        1.089        0.249      128.406       25.638        0.040      337.426        9.391      863.030
10/26/2014  20:02:00      -94.029       41.504       -6.679       46.528       30.532       20.410     2164.818      932.228      416.572        0.706        0.176      102.782       14.458        0.020      337.396        9.342      863.073
10/26/2014  20:03:00     -117.013       58.951      -26.343       41.899       44.299       24.017     1755.562     1962.411      576.812        1.108        0.215      131.024       25.620        0.038      337.421        9.381      863.093
10/26/2014  20:04:00     -103.341       63.310      -16.033       38.460       31.265       23.766     1479.168      977.530      564.843        0.898        0.151      121.192       16.746        0.019      337.332        9.235      863.110
10/26/2014  20:05:00     -105.088      -15.934      -19.407       43.064       42.097       20.943     1854.501     1772.157      438.597        0.787        0.203      106.289        8.260        0.006      337.381        9.316      863.111
10/26/2014  20:06:00     -108.106       -4.056      -17.131       38.547       31.711       17.793     1485.858     1005.606      316.582        0.740        0.140      108.182       17.088        0.025      337.366        9.292      863.105
10/26/2014  20:07:00     -159.423      -15.950      -14.412       53.272       53.572       30.432     2837.921     2869.954      926.095        1.625        0.332      160.219       30.416        0.036      337.331        9.231      863.073
10/26/2014  20:08:00      -62.185       27.535       -9.874       29.909       32.366       21.589      894.530     1047.554      466.105        0.356        0.120       68.009       13.910        0.042      337.319        9.211      863.068
10/26/2014  20:09:00      -50.072       -1.395      -16.804       24.907       22.255       17.691      620.364      495.291      312.965        0.211        0.071       50.092       15.650        0.098      337.359        9.280      863.055
10/26/2014  20:10:00      -61.337       10.102      -13.141       26.870       50.187       19.804      721.983     2518.752      392.195        0.383        0.182       62.163       25.184        0.164      337.395        9.340      863.053
10/26/2014  20:11:00      -59.275       19.129      -12.576       32.759       32.501       20.896     1073.147     1056.311      436.663        0.330        0.128       62.285       22.622        0.132      337.386        9.325      863.091
10/26/2014  20:12:00      -78.108       97.708      -15.603       35.661       40.393       26.941     1271.714     1631.600      725.795        0.976        0.181      125.091       19.816        0.025      337.330        9.230      863.091
10/26/2014  20:13:00     -108.466       64.046      -18.223       29.123       40.115       21.557      848.132     1609.175      464.699        0.956        0.146      125.963       17.928        0.020      337.319        9.211      863.090
10/26/2014  20:14:00      -66.726      113.317      -25.166       37.300       52.086       23.032     1391.317     2713.000      530.457        1.128        0.232      131.503       23.638        0.032      337.264        9.120      863.084
10/26/2014  20:15:00      -79.125       35.768      -13.691       32.877       33.049       14.033     1080.909     1092.229      196.919        0.505        0.119       86.834       14.799        0.029      337.266        9.124      863.082
10/26/2014  20:16:00      -75.816       47.742       -7.369       38.475       34.621       24.578     1480.291     1198.630      604.093        0.568        0.164       89.596       22.741        0.064      337.262        9.117      863.060
10/26/2014  20:17:00      -91.881       87.234      -19.385       36.414       36.262       24.351     1326.011     1314.965      592.995        0.983        0.162      126.696       17.163        0.018      337.161        8.948      863.043
10/26/2014  20:18:00      -71.010       11.834       -6.798       17.468       21.238       14.494      305.141      451.061      210.072        0.310        0.048       71.989        8.828        0.015      337.213        9.037      863.051
10/26/2014  20:19:00      -76.852       -0.048       -8.381       30.403       17.267       13.601      924.351      298.143      184.996        0.369        0.070       76.852       15.025        0.038      337.217        9.041      863.033
10/26/2014  20:20:00     -104.116        3.555      -17.450       38.303       19.991       24.275     1467.146      399.655      589.300        0.681        0.123      104.176       22.765        0.048      337.136        8.907      863.031
10/26/2014  20:21:00      -76.381       -8.994       -7.817       37.116       41.765       16.696     1377.615     1744.288      278.756        0.469        0.170       76.909       12.247        0.025      337.071        8.798      863.035
10/26/2014  20:22:00      -72.159      -35.756        4.471       68.182       52.902       28.663     4648.788     2798.608      821.565        0.739        0.413       80.532       33.463        0.173      337.019        8.710      863.028
10/26/2014  20:23:00      -83.125       -8.010       -0.458       35.467       35.828       20.163     1257.906     1283.649      406.561        0.496        0.147       83.510       19.826        0.056      336.988        8.656      863.020
10/26/2014  20:24:00     -110.218      -14.542       -3.199       53.473       36.633       28.711     2859.371     1341.950      824.313        0.870        0.251      111.173       24.822        0.050      336.900        8.512      863.021
10/26/2014  20:25:00     -131.475      -26.522       -7.631       46.939       43.514       24.978     2203.291     1893.497      623.877        1.138        0.236      134.124       14.696        0.012      336.946        8.586      863.023
10/26/2014  20:26:00     -150.429      -68.770      -12.549       39.735       43.075       21.957     1578.857     1855.439      482.108        1.572        0.196      165.403       20.319        0.015      336.863        8.451      863.016
10/26/2014  20:27:00     -121.821      -38.297       -2.088       43.483       36.062       25.950     1890.731     1300.467      673.380        1.009        0.193      127.699       22.276        0.030      336.768        8.293      863.028
10/26/2014  20:28:00     -147.877      -41.798       -6.851       27.455       33.681       20.312      753.795     1134.391      412.565        1.298        0.115      153.671       14.143        0.008      336.807        8.356      863.039
10/26/2014  20:29:00      -79.705      -21.735       -9.557       37.236       34.183       18.155     1386.494     1168.496      329.593        0.490        0.144       82.615       12.289        0.022      336.867        8.457      863.043
10/26/2014  20:30:00     -131.563      -53.707      -17.038       33.511       26.143       22.313     1122.964      683.478      497.878        1.139        0.115      142.103       18.588        0.017      336.793        8.332      863.039
10/26/2014  20:31:00     -173.328      -53.016      -18.851       32.483       33.762       20.026     1055.119     1139.901      401.023        1.790        0.130      181.254       16.524        0.008      336.760        8.278      863.019
10/26/2014  20:32:00     -132.990      -57.373      -16.617       46.408       43.854       22.459     2153.716     1923.188      504.398        1.292        0.229      144.838       16.679        0.013      336.800        8.344      863.012
10/26/2014  20:33:00     -121.925      -68.545      -11.419       50.652       35.662       23.586     2565.648     1271.793      556.296        1.204        0.220      139.872       12.638        0.008      336.734        8.235      863.001
10/26/2014  20:34:00     -102.520      -50.385        2.391       54.347       54.234       27.453     2953.588     2941.339      753.650        0.985        0.332      114.233       30.342        0.071      336.685        8.154      862.996
10/26/2014  20:35:00     -128.319      -27.665      -12.887       56.184       31.659       23.926     3156.684     1002.314      572.472        1.106        0.237      131.267       23.481        0.032      336.697        8.174      863.007
10/26/2014  20:36:00      -87.550      -11.494       -6.918       28.789       25.275       17.575      828.807      638.826      308.871        0.481        0.089       88.301        9.687        0.012      336.703        8.184      863.020
10/26/2014  20:37:00      -62.753      -16.943        2.998       48.758       43.550       25.698     2377.386     1896.596      660.373        0.458        0.247       65.000       15.884        0.060      336.738        8.241      863.016
10/26/2014  20:38:00      -96.800      -24.808      -14.962       43.168       32.545       17.920     1863.477     1059.159      321.131        0.673        0.162       99.929       17.773        0.032      336.691        8.166      863.009
10/26/2014  20:39:00     -128.370      -49.495      -10.925       31.899       32.629       18.013     1017.571     1064.644      324.458        1.073        0.120      137.581       12.498        0.008      336.597        8.007      862.996
10/26/2014  20:40:00      -95.521      -18.532       -8.537       39.919       22.366       16.416     1593.516      500.218      269.498        0.595        0.118       97.302       18.510        0.036      336.679        8.142      862.995
10/26/2014  20:41:00      -82.301      -34.610       -2.697       25.430       25.049       16.179      646.662      627.442      261.755        0.476        0.077       89.283        9.128        0.010      336.673        8.132      862.969
10/26/2014  20:42:00      -82.528      -23.450        1.326       48.688       24.117       19.407     2370.482      581.641      376.636        0.534        0.166       85.794       21.963        0.066      336.717        8.207      862.944
10/26/2014  20:43:00      -99.942      -37.597      -13.696       16.841       29.913       13.727      283.628      894.811      188.431        0.648        0.068      106.780        8.610        0.007      336.706        8.188      862.947
10/26/2014  20:44:00      -65.306      -48.720       -1.611       33.265       27.203       24.002     1106.583      740.011      576.110        0.453        0.121       81.477       20.265        0.062      336.751        8.264      862.938
10/26/2014  20:45:00      -89.951      -45.392       -7.446       33.131       31.381       14.644     1097.651      984.758      214.432        0.625        0.115      100.755        9.498        0.009      336.782        8.314      862.939
10/26/2014  20:46:00      -97.704      -31.969      -10.370       31.075       20.597       15.404      965.677      424.233      237.298        0.615        0.081      102.801       10.954        0.011      336.698        8.176      862.966
10/26/2014  20:47:00      -59.312      -33.882       -7.447       28.951       21.811       14.966      838.158      475.711      223.968        0.313        0.077       68.308       10.397        0.023      336.809        8.362      862.988
10/26/2014  20:48:00      -75.511      -32.808       -4.781       17.570       16.231       12.417      308.716      263.458      154.176        0.376        0.036       82.330        9.301        0.013      336.697        8.174      863.018
10/26/2014  20:49:00      -64.854      -37.651      -12.596       29.621       17.054       15.792      877.430      290.837      249.379        0.360        0.071       74.991       15.501        0.043      336.773        8.300      863.042
10/26/2014  20:50:00      -50.431      -42.709        4.845       28.420       22.435       19.839      807.711      503.339      393.569        0.305        0.085       66.086       18.156        0.075      336.801        8.346      863.045
10/26/2014  20:51:00      -71.447      -25.928       -9.458       18.372       21.145       12.406      337.516      447.098      153.900        0.340        0.047       76.007       11.351        0.022      336.766        8.289      863.034
10/26/2014  20:52:00      -72.906      -42.568       -2.991       19.934       22.606       13.423      397.379      511.019      180.170        0.411        0.054       84.423        8.084        0.009      336.790        8.327      863.017
10/26/2014  20:53:00      -60.059      -32.321      -10.831       27.512       18.082       13.910      756.931      326.954      193.497        0.302        0.064       68.204       12.632        0.034      336.841        8.414      863.003
10/26/2014  20:54:00      -62.019      -41.270        2.523       41.826       28.275       19.133     1749.424      799.459      366.086        0.423        0.146       74.496       23.657        0.101      336.837        8.409      862.990
10/26/2014  20:55:00      -67.945      -44.225       -2.644       35.904       29.240       20.865     1289.115      854.978      435.328        0.458        0.129       81.070       18.989        0.055      336.827        8.391      862.969
10/26/2014  20:56:00      -93.344      -57.953       -7.034       23.448       24.714       15.708      549.830      610.757      246.749        0.676        0.070      109.871       14.277        0.017      336.819        8.379      862.957
10/26/2014  20:57:00      -95.943      -50.138      -13.180       32.272       19.665       14.922     1041.462      386.716      222.661        0.677        0.083      108.254       12.466        0.013      336.840        8.411      862.947
10/26/2014  20:58:00      -58.520      -33.551       -7.984       39.457       22.325       20.766     1556.860      498.387      431.209        0.355        0.124       67.456       23.009        0.116      336.863        8.451      862.930
10/26/2014  20:59:00      -81.727      -56.074       -5.885       17.015       20.394       13.597      289.494      415.923      184.889        0.537        0.045       99.114        7.360        0.006      336.879        8.477      862.921
10/26/2014  21:00:00      -17.935      -21.163        9.051       35.237       19.011       17.264     1241.655      361.400      298.046        0.138        0.095       27.741       16.473        0.353      336.795        8.337      862.922
10/26/2014  21:01:00      -21.213      -18.251        6.535       27.623       25.953       23.400      763.005      673.561      547.576        0.140        0.099       27.984       19.597        0.490      336.789        8.327      862.934
10/26/2014  21:02:00      -58.661      -55.409        4.509       44.912       26.653       23.605     2017.087      710.370      557.184        0.491        0.164       80.692       25.969        0.104      336.767        8.290      862.951
10/26/2014  21:03:00      -39.562      -27.034        6.099       30.240       29.386       21.756      914.476      863.518      473.330        0.229        0.113       47.916       18.270        0.145      336.797        8.341      862.959
10/26/2014  21:04:00      -28.325      -19.129        8.550       37.395       23.285       19.527     1398.363      542.172      381.290        0.178        0.116       34.179       17.711        0.269      336.817        8.374      862.964
10/26/2014  21:05:00      -94.076      -44.952       -3.897       40.396       19.097       16.928     1631.801      364.696      286.549        0.658        0.114      104.264       13.895        0.018      336.812        8.366      862.954
10/26/2014  21:06:00     -114.873      -29.760       -8.655       25.243       17.631       15.572      637.220      310.851      242.483        0.767        0.060      118.666       13.886        0.014      336.803        8.351      862.944
10/26/2014  21:07:00      -99.280      -52.026       -0.225       55.248       28.044       19.140     3052.387      786.454      366.348        0.838        0.210      112.086       22.422        0.040      336.788        8.325      862.948
10/26/2014  21:08:00     -115.131      -68.732       -3.828       36.637       31.724       25.471     1342.263     1006.426      648.787        1.050        0.150      134.087       24.041        0.032      336.711        8.197      862.945
10/26/2014  21:09:00      -77.848      -57.856       -0.372       39.620       32.048       19.538     1569.756     1027.091      381.715        0.619        0.149       96.993       20.454        0.044      336.741        8.247      862.940
10/26/2014  21:10:00      -64.260      -25.315        0.688       42.737       28.024       17.006     1826.460      785.361      289.220        0.384        0.145       69.067       18.051        0.068      336.818        8.374      862.948
10/26/2014  21:11:00      -61.889      -28.332       -5.965       38.826       20.725       12.431     1507.445      429.505      154.526        0.338        0.105       68.066        8.595        0.016      336.842        8.415      862.969
10/26/2014  21:12:00      -61.866      -49.230       -0.142       28.554       31.835       15.698      815.340     1013.457      246.426        0.416        0.104       79.063       13.693        0.030      336.794        8.336      862.987
10/26/2014  21:13:00      -68.106      -44.848       -6.165       16.265       27.572       12.646      264.550      760.193      159.931        0.394        0.059       81.546        8.118        0.010      336.729        8.227      862.989
10/26/2014  21:14:00      -92.708        7.691      -12.792       22.522       19.798       14.930      507.236      391.963      222.918        0.497        0.056       93.027       12.226        0.017      336.636        8.074      862.981
10/26/2014  21:15:00     -124.460      -17.818      -11.709       23.691       17.193       17.335      561.261      295.615      300.500        0.855        0.058      125.729       13.770        0.012      336.554        7.936      862.981
10/26/2014  21:16:00      -63.435      -29.042       -2.634       34.413       24.201       13.745     1184.287      585.686      188.928        0.342        0.098       69.768       11.125        0.025      336.578        7.974      862.984
10/26/2014  21:17:00      -89.293      -29.806       -9.813       27.005       22.262       14.673      729.257      495.607      215.291        0.520        0.072       94.137       11.908        0.016      336.772        8.299      863.014
10/26/2014  21:18:00      -38.719      -40.764       -0.495       23.112       18.082       16.673      534.153      326.944      277.985        0.215        0.057       56.221       12.176        0.047      336.851        8.429      863.031
10/26/2014  21:19:00      -58.240      -44.338       -2.824       29.994       27.247       15.583      899.614      742.390      242.831        0.362        0.094       73.197       16.419        0.050      336.867        8.456      863.036
10/26/2014  21:20:00      -64.678      -42.745       -4.610       15.702       15.215       10.072      246.549      231.491      101.436        0.331        0.029       77.527        8.298        0.011      336.812        8.365      863.034
10/26/2014  21:21:00       -7.943      -24.749       -1.294       19.828       12.146        9.660      393.146      147.531       93.308        0.066        0.032       25.993        9.448        0.132      336.818        8.375      863.032
10/26/2014  21:22:00        3.002      -45.271       -5.311        9.591       11.132       10.426       91.997      123.924      108.710        0.121        0.016       45.371        6.907        0.023      336.941        8.581      863.029
10/26/2014  21:23:00       -6.132      -21.464        1.503       18.673       17.401       11.612      348.672      302.798      134.844        0.064        0.039       22.323       10.709        0.230      336.862        8.449      863.027
10/26/2014  21:24:00      -42.740      -17.992       -2.539       16.253       12.980        9.916      264.147      168.491       98.336        0.134        0.027       46.373        7.459        0.026      336.832        8.398      863.020
10/26/2014  21:25:00      -32.196      -24.366       -0.138       21.964       20.884        9.677      482.421      436.158       93.648        0.132        0.051       40.376       11.555        0.082      336.709        8.193      863.018
10/26/2014  21:26:00      -60.499      -39.963       -4.878       14.769       17.256        7.936      218.123      297.776       62.980        0.293        0.029       72.506        5.913        0.007      336.725        8.221      863.021
10/26/2014  21:27:00      -74.537      -37.642      -10.512       15.042       22.818       11.230      226.276      520.679      126.109        0.398        0.044       83.503        8.990        0.012      336.739        8.242      863.024
10/26/2014  21:28:00      -55.890      -49.176       -5.334       27.082       17.627       15.279      733.435      310.727      233.451        0.342        0.064       74.444       14.047        0.036      336.820        8.377      863.024
10/26/2014  21:29:00      -47.434      -34.205        1.554       16.208       11.902       14.261      262.703      141.652      203.374        0.201        0.030       58.481       11.576        0.039      336.779        8.312      863.039
10/26/2014  21:30:00      -13.255       -9.841       11.003       17.577       18.920       14.833      308.949      357.954      220.018        0.064        0.044       16.509       10.764        0.425      336.677        8.141      863.053
10/26/2014  21:31:00      -16.511      -26.508        8.336       26.311       15.342       12.975      692.247      235.377      168.347        0.107        0.055       31.230       10.871        0.121      336.694        8.169      863.056
10/26/2014  21:32:00      -11.345      -12.850        4.874       21.480       10.025        7.858      461.380      100.498       61.744        0.047        0.031       17.142        3.361        0.038      336.736        8.238      863.062
10/26/2014  21:33:00      -45.971      -27.222       -2.291       20.546       14.080        6.800      422.137      198.253       46.235        0.176        0.033       53.426        6.602        0.015      336.743        8.251      863.063
10/26/2014  21:34:00      -32.490      -24.479        7.249       23.154       16.496       13.195      536.127      272.106      174.119        0.134        0.049       40.680       12.572        0.096      336.751        8.265      863.071
10/26/2014  21:35:00      -69.167      -39.605       -6.008       18.648       13.980       10.802      347.758      195.444      116.680        0.352        0.033       79.704        5.857        0.005      336.796        8.339      863.101
10/26/2014  21:36:00      -68.969      -24.115       -6.766        9.492       10.789        7.759       90.096      116.394       60.195        0.283        0.013       73.063        5.038        0.005      336.698        8.176      863.118
10/26/2014  21:37:00      -54.911      -32.530       -0.125       17.245       15.440        8.604      297.389      238.409       74.023        0.234        0.030       63.823        8.804        0.019      336.705        8.187      863.137
10/26/2014  21:38:00       -1.524      -31.778       -8.742       23.185       11.415        9.437      537.525      130.303       89.060        0.092        0.038       31.815        7.251        0.052      336.688        8.158      863.147
10/26/2014  21:39:00      -10.645      -24.512       -5.493       15.035       10.262       12.290      226.041      105.311      151.045        0.061        0.024       26.724        6.558        0.060      336.668        8.125      863.153
10/26/2014  21:40:00       -9.671      -23.669       -8.694       20.090       13.688       17.239      403.615      187.350      297.195        0.081        0.044       25.569       14.108        0.304      336.586        7.989      863.163
10/26/2014  21:41:00        5.312       -9.886      -10.640       11.743       11.324       12.719      137.891      128.226      161.761        0.033        0.021       11.223        5.602        0.249      336.604        8.018      863.180
10/26/2014  21:42:00      -15.629       -8.479        3.431       12.745        8.429        5.468      162.425       71.050       29.903        0.030        0.013       17.781        6.290        0.125      336.619        8.045      863.198
10/26/2014  21:43:00      -32.605      -13.855       -1.376       10.789        6.639        6.574      116.410       44.083       43.219        0.073        0.010       35.427        6.078        0.029      336.696        8.173      863.210
10/26/2014  21:44:00      -17.307      -17.598       -0.510       12.896        7.747        6.627      166.302       60.019       43.919        0.044        0.014       24.682        5.241        0.045      336.690        8.162      863.222
10/26/2014  21:45:00      -16.122       -8.099        3.290       16.384       11.459        8.995      268.439      131.308       80.904        0.041        0.024       18.042        9.680        0.288      336.565        7.953      863.223
10/26/2014  21:46:00      -23.868       -7.821       -3.175        5.960       10.829        3.879       35.525      117.262       15.048        0.040        0.008       25.117        2.109        0.007      336.699        8.178      863.214
10/26/2014  21:47:00      -33.367        0.676      -11.692        8.685        6.483        7.565       75.424       42.027       57.235        0.071        0.009       33.374        3.511        0.011      336.842        8.416      863.201
10/26/2014  21:48:00       -6.654       16.909       -3.540       11.299       13.916        7.234      127.677      193.661       52.334        0.036        0.019       18.171        6.659        0.134      336.967        8.623      863.203
10/26/2014  21:49:00      -39.942        0.856       -4.043       13.422        7.004        9.458      180.140       49.057       89.447        0.097        0.016       39.951        8.192        0.042      336.794        8.336      863.208
10/26/2014  21:50:00      -24.332      -12.197       -3.821        7.232        9.428        5.366       52.299       88.884       28.794        0.046        0.008       27.218        5.082        0.035      336.747        8.258      863.220
10/26/2014  21:51:00      -29.998      -11.938       -3.157       15.931       10.693        5.101      253.793      114.340       26.018        0.072        0.020       32.286        7.427        0.053      336.712        8.199      863.232
10/26/2014  21:52:00      -43.345      -11.682       -7.869        6.473        7.019        5.517       41.900       49.264       30.435        0.110        0.006       44.892        3.949        0.008      336.623        8.050      863.233
10/26/2014  21:53:00      -36.900      -15.518       -9.431        8.863        6.716        5.042       78.548       45.106       25.419        0.092        0.007       40.030        3.113        0.006      336.672        8.132      863.231
10/26/2014  21:54:00       -7.380      -19.062       -0.341       13.035        8.668        6.162      169.901       75.136       37.966        0.035        0.014       20.441        7.215        0.125      336.742        8.249      863.219
10/26/2014  21:55:00      -24.881      -12.244       -5.027       11.373       10.724        8.055      129.344      115.006       64.877        0.055        0.015       27.731        8.472        0.093      336.710        8.196      863.219
10/26/2014  21:56:00      -36.251        2.712        1.992       12.631       16.643       11.119      159.533      276.973      123.628        0.094        0.028       36.352        8.995        0.061      336.870        8.462      863.240
10/26/2014  21:57:00      -25.216       -0.286       -1.560       17.826       14.570        7.186      317.749      212.284       51.643        0.061        0.029       25.217        4.868        0.037      336.791        8.329      863.268
10/26/2014  21:58:00      -34.228       -8.344       -4.685        5.946        6.568        3.891       35.357       43.133       15.139        0.068        0.005       35.230        3.444        0.010      336.610        8.028      863.292
10/26/2014  21:59:00      -35.669        5.892       -3.978        8.010        9.797        8.081       64.153       95.972       65.307        0.077        0.011       36.153        5.025        0.019      336.633        8.067      863.293
10/26/2014  22:00:00      -41.770       40.307       -4.775       15.026       21.612       16.256      225.774      467.061      264.272        0.217        0.048       58.046       11.544        0.040      336.734        8.236      863.292
10/26/2014  22:01:00      -18.336       26.666       -0.554       19.336       19.291       10.856      373.883      372.139      117.855        0.096        0.043       32.361       12.119        0.140      336.623        8.051      863.279
10/26/2014  22:02:00       -6.220       21.212       -5.230       12.750       11.707        8.752      162.560      137.058       76.596        0.045        0.019       22.105        4.034        0.033      336.657        8.106      863.263
10/26/2014  22:03:00       -1.353       13.275        2.718        7.706       11.560        7.682       59.386      133.640       59.013        0.022        0.013       13.344        5.481        0.169      336.593        8.001      863.263
10/26/2014  22:04:00       13.282       -1.967        4.267       10.918        8.829        9.238      119.200       77.954       85.341        0.024        0.014       13.427        6.543        0.237      336.419        7.708      863.281
10/26/2014  22:05:00        0.158       -2.844       -5.699        9.317        8.374        6.697       86.810       70.121       44.847        0.012        0.010        2.848        2.829        0.987      336.421        7.711      863.303
10/26/2014  22:06:00        3.752      -22.986        2.006        8.774        9.076        5.989       76.989       82.372       35.870        0.037        0.010       23.290        1.249        0.003      336.462        7.778      863.323
10/26/2014  22:07:00       22.640       13.597       16.634        9.150       19.175        9.508       83.727      367.686       90.411        0.076        0.027       26.409        9.512        0.130      336.299        7.509      863.333
10/26/2014  22:08:00       18.186       11.961        7.242        9.985       13.109       11.982       99.698      171.849      143.567        0.047        0.021       21.767        8.037        0.136      336.133        7.228      863.331
10/26/2014  22:09:00       29.998       13.247        5.661       16.904       12.632        9.683      285.750      159.563       93.761        0.082        0.027       32.792        7.850        0.057      336.281        7.476      863.314
10/26/2014  22:10:00       18.621       16.234       10.288       12.018        8.523       12.161      144.433       72.642      147.887        0.054        0.018       24.705        6.504        0.069      336.363        7.615      863.302
10/26/2014  22:11:00       16.661        9.015        9.577        8.651        6.159        8.091       74.843       37.930       65.467        0.031        0.009       18.943        2.361        0.016      336.334        7.565      863.297
10/26/2014  22:12:00        9.323       -4.732       -2.256        9.926        9.397        4.819       98.521       88.313       23.222        0.016        0.011       10.455        5.687        0.296      336.333        7.565      863.292
10/26/2014  22:13:00      -11.881        4.958       -1.867        5.833        5.736        6.765       34.026       32.899       45.763        0.014        0.006       12.874        4.097        0.101      336.353        7.597      863.287
10/26/2014  22:14:00      -26.313        0.548       -2.402       13.757       10.564        6.072      189.263      111.609       36.865        0.052        0.017       26.319        5.048        0.037      336.351        7.595      863.288
10/26/2014  22:15:00      -35.935      -14.229       -2.355        8.197        8.183        6.301       67.190       66.965       39.708        0.084        0.009       38.649        5.581        0.021      336.260        7.441      863.295
10/26/2014  22:16:00      -25.210       -9.245       -6.684       14.422        6.296       11.475      207.981       39.640      131.680        0.057        0.019       26.852        6.256        0.054      336.446        7.754      863.304
10/26/2014  22:17:00      -44.333       -9.186       -8.210        7.636        6.408        8.144       58.311       41.064       66.318        0.114        0.008       45.275        5.379        0.014      336.153        7.265      863.314
10/26/2014  22:18:00      -48.935       -8.309       -6.240        6.880        7.926        6.899       47.334       62.820       47.599        0.133        0.008       49.636        3.653        0.005      336.256        7.436      863.323
10/26/2014  22:19:00      -58.055      -15.765       -8.271        8.319        7.693        4.646       69.204       59.176       21.588        0.192        0.007       60.158        2.868        0.002      336.197        7.337      863.332
10/26/2014  22:20:00      -40.905        0.614       -4.331       12.754        8.940        7.810      162.674       79.916       60.999        0.100        0.015       40.910        6.394        0.024      336.094        7.165      863.347
10/26/2014  22:21:00      -36.460       -4.322       -3.513       11.011        9.644        7.714      121.249       92.997       59.511        0.082        0.014       36.715        5.230        0.020      336.186        7.319      863.365
10/26/2014  22:22:00      -40.307       -7.348       -4.996        9.021       11.301        7.095       81.370      127.720       50.343        0.098        0.013       40.971        5.291        0.017      336.266        7.453      863.371
10/26/2014  22:23:00      -51.952      -23.190       -2.921        8.206        8.514        7.848       67.336       72.493       61.597        0.172        0.010       56.892        4.895        0.007      336.242        7.411      863.369
10/26/2014  22:24:00      -45.266      -23.973       -6.987        7.690       10.350        8.261       59.131      107.117       68.240        0.145        0.012       51.222        6.653        0.017      336.154        7.265      863.364
10/26/2014  22:25:00      -38.061      -32.260       -5.126       18.059        9.064       11.149      326.126       82.163      124.300        0.152        0.027       49.893        8.419        0.028      336.109        7.187      863.359
10/26/2014  22:26:00      -74.582      -27.232       -9.163       17.096       13.929       12.368      292.286      194.014      152.978        0.351        0.032       79.398       11.736        0.022      335.808        6.688      863.349
10/26/2014  22:27:00      -99.760      -44.541       -9.959       13.967       14.170        6.209      195.091      200.794       38.552        0.623        0.022      109.252        4.906        0.002      335.912        6.861      863.339
10/26/2014  22:28:00      -80.901      -34.661       -5.933       16.857       18.263        7.400      284.165      333.524       54.762        0.423        0.034       88.013        5.096        0.003      336.077        7.138      863.330
10/26/2014  22:29:00      -74.113      -39.109       -9.365       12.985        9.481        9.409      168.611       89.897       88.532        0.373        0.017       83.799        6.967        0.007      336.117        7.205      863.336
10/26/2014  22:30:00      -81.649      -22.454      -10.574       10.881       10.682        7.645      118.390      114.109       58.449        0.379        0.015       84.681        5.960        0.005      336.106        7.184      863.360
10/26/2014  22:31:00      -91.399      -22.993      -10.944        8.146       11.847        6.637       66.360      140.362       44.045        0.463        0.013       94.247        2.724        0.001      336.135        7.233      863.385
10/26/2014  22:32:00      -72.974      -15.882       -8.087       21.627       14.973       11.003      467.722      224.201      121.071        0.323        0.041       74.683        7.578        0.010      336.138        7.238      863.418
10/26/2014  22:33:00     -100.846        0.348      -13.136       16.794       12.296        9.593      282.024      151.200       92.033        0.543        0.026      100.846        4.251        0.002      336.132        7.230      863.448
10/26/2014  22:34:00      -67.916      -17.095       -3.297       19.554       18.307       14.222      382.375      335.135      202.264        0.292        0.046       70.035       13.443        0.037      335.971        6.960      863.466
10/26/2014  22:35:00      -68.708       -8.958       -4.191       20.329       16.158       12.925      413.259      261.077      167.046        0.283        0.042       69.290       11.490        0.027      335.869        6.791      863.473
10/26/2014  22:36:00      -51.962      -15.051       -9.013       21.518       20.849       13.342      463.007      434.673      178.003        0.204        0.054       54.098       10.464        0.037      335.895        6.833      863.463
10/26/2014  22:37:00      -35.565      -26.866        0.607       17.654       19.801       11.104      311.668      392.086      123.306        0.141        0.041       44.572       11.294        0.064      335.894        6.832      863.430
10/26/2014  22:38:00      -63.672      -14.620       -7.078       16.550       12.316        6.826      273.905      151.696       46.589        0.239        0.024       65.329        4.767        0.005      335.965        6.948      863.400
10/26/2014  22:39:00      -81.642      -26.072       -8.209        9.005       11.673        7.064       81.095      136.267       49.902        0.384        0.013       85.704        3.407        0.002      335.856        6.769      863.393
10/26/2014  22:40:00      -71.349      -37.184       -7.307       11.662       14.288        8.009      135.994      204.145       64.150        0.347        0.020       80.457        5.279        0.004      335.781        6.645      863.394
10/26/2014  22:41:00      -91.645      -39.801       -6.499       15.443       10.036        9.190      238.482      100.725       84.463        0.522        0.021       99.915        6.595        0.004      335.804        6.683      863.408
10/26/2014  22:42:00      -62.439      -38.875        6.742       26.018       18.589       18.297      676.914      345.547      334.788        0.341        0.068       73.552       17.631        0.057      335.674        6.465      863.429
10/26/2014  22:43:00      -90.875      -45.173       -4.530       34.436       17.787       20.488     1185.813      316.374      419.744        0.612        0.096      101.483       18.787        0.034      335.691        6.494      863.457
10/26/2014  22:44:00      -91.682      -52.431       -8.140       27.647       23.072       17.649      764.363      532.330      311.486        0.641        0.080      105.615       13.713        0.017      335.526        6.220      863.472
10/26/2014  22:45:00     -108.194      -40.580      -14.976       18.843       16.968       11.469      355.054      287.921      131.529        0.718        0.039      115.554        6.614        0.003      335.565        6.284      863.471
10/26/2014  22:46:00      -55.095      -28.910       -0.336       29.435       22.109       14.782      866.423      488.795      218.515        0.272        0.079       62.220       11.066        0.032      335.543        6.246      863.456
10/26/2014  22:47:00      -83.901      -36.511       -3.374       27.172       17.666       16.134      738.325      312.074      260.293        0.485        0.066       91.501       14.353        0.025      335.597        6.337      863.438
10/26/2014  22:48:00      -86.330      -46.501       -1.471       27.306       18.299       18.670      745.630      334.863      348.587        0.552        0.071       98.057       17.933        0.033      335.575        6.300      863.429
10/26/2014  22:49:00      -74.336      -37.919        1.241       38.604       22.890       16.183     1490.286      523.965      261.877        0.462        0.114       83.449       21.010        0.063      335.550        6.259      863.430
10/26/2014  22:50:00      -26.963      -31.575        2.676       31.538       24.188       17.961      994.669      585.061      322.596        0.182        0.095       41.521       11.685        0.079      335.525        6.218      863.457
10/26/2014  22:51:00      -31.622      -45.534        6.890       32.147       31.941       21.272     1033.416     1020.216      452.518        0.281        0.125       55.437       24.608        0.197      335.607        6.354      863.498
10/26/2014  22:52:00       -5.995      -13.109       10.295       16.897       13.551       12.487      285.496      183.619      155.925        0.047        0.031       14.415       10.535        0.534      335.556        6.268      863.548
10/26/2014  22:53:00      -27.935      -27.918        6.006       24.076       23.638       12.255      579.672      558.765      150.190        0.144        0.064       39.494       12.144        0.095      335.650        6.426      863.594
10/26/2014  22:54:00      -30.232      -29.304       11.377       34.400       16.860       15.142     1183.380      284.253      229.282        0.180        0.085       42.103       18.891        0.201      335.584        6.315      863.610
10/26/2014  22:55:00      -45.984      -29.949       -0.145       23.235       16.389       13.284      539.865      268.583      176.472        0.200        0.049       54.876        7.727        0.020      335.559        6.274      863.609
10/26/2014  22:56:00      -36.760      -24.490        0.925       39.028       20.556       15.669     1523.193      422.560      245.518        0.207        0.110       44.171       14.972        0.115      335.541        6.242      863.589
10/26/2014  22:57:00      -43.602      -39.598        1.357       34.112       27.845       16.788     1163.634      775.319      281.851        0.285        0.111       58.899       17.846        0.092      335.504        6.182      863.565
10/26/2014  22:58:00      -75.546      -48.529       -4.546       44.646       17.858       18.338     1993.277      318.916      336.298        0.537        0.132       89.790       23.489        0.068      335.529        6.224      863.536
10/26/2014  22:59:00      -54.989      -37.754        1.573       28.429       19.403       19.091      808.217      376.458      364.449        0.300        0.077       66.702       16.948        0.065      335.458        6.106      863.519
10/26/2014  23:00:00      -49.560      -16.215       -1.982       29.726       16.121       17.242      883.624      259.884      297.271        0.208        0.072       52.145       15.580        0.089      335.433        6.063      863.514
10/26/2014  23:01:00      -52.307      -43.198       -3.473       33.724       23.033       15.517     1137.317      530.540      240.769        0.326        0.095       67.839       15.353        0.051      335.420        6.041      863.511
10/26/2014  23:02:00      -76.501      -47.191       -2.070       31.419       29.239       18.416      987.146      854.934      339.158        0.513        0.109       89.886       14.243        0.025      335.471        6.126      863.499
10/26/2014  23:03:00      -81.251      -54.899        5.233       38.775       27.766       20.001     1503.523      770.958      400.034        0.616        0.134       98.059       15.267        0.024      335.435        6.065      863.507
10/26/2014  23:04:00      -65.078      -49.646        3.678       48.342       21.294       22.915     2336.977      453.418      525.102        0.501        0.166       81.853       17.710        0.047      335.525        6.216      863.507
10/26/2014  23:05:00      -66.743      -47.759        0.022       45.488       21.615       14.890     2069.161      467.190      221.706        0.475        0.138       82.070       13.578        0.027      335.573        6.298      863.503
10/26/2014  23:06:00      -95.016      -51.844       -8.677       31.073       23.919       20.756      965.532      572.126      430.807        0.688        0.098      108.240       13.045        0.015      335.503        6.180      863.497
10/26/2014  23:07:00     -121.210       -9.440       -7.130       35.345       32.264       20.341     1249.291     1040.955      413.763        0.877        0.135      121.577       19.971        0.027      335.222        5.712      863.498
10/26/2014  23:08:00     -114.976      -43.345        0.285       22.693       22.716       15.555      514.973      516.025      241.973        0.819        0.064      122.875       11.226        0.008      335.333        5.897      863.493
10/26/2014  23:09:00      -83.627      -71.886        2.499       37.124       40.532       17.666     1378.179     1642.830      312.097        0.775        0.167      110.277       23.277        0.045      335.472        6.129      863.514
10/26/2014  23:10:00     -101.153      -66.753        0.252       45.114       34.070       23.560     2035.298     1160.797      555.076        0.922        0.188      121.194       22.858        0.036      335.455        6.098      863.554
10/26/2014  23:11:00     -125.339      -34.244      -11.386       31.179       34.671       19.405      972.151     1202.107      376.567        0.978        0.128      129.933       10.980        0.007      335.298        5.839      863.583
10/26/2014  23:12:00     -133.597      -45.587       -4.288       34.500       30.823       19.926     1190.253      950.040      397.026        1.124        0.127      141.160       19.052        0.018      335.273        5.796      863.595
10/26/2014  23:13:00      -73.336      -50.996        9.663       46.711       32.264       19.200     2181.881     1040.937      368.652        0.583        0.180       89.324       19.249        0.046      335.361        5.943      863.599
10/26/2014  23:14:00      -75.802      -34.730        5.766       37.278       27.061       21.964     1389.615      732.325      482.425        0.479        0.130       83.380       18.197        0.048      335.399        6.007      863.598
10/26/2014  23:15:00      -82.461      -17.988       -0.300       38.015       26.841       20.199     1445.129      720.417      408.001        0.485        0.129       84.400       20.941        0.062      335.384        5.981      863.597
10/26/2014  23:16:00     -109.010      -15.326       -6.315       34.593       18.944       18.915     1196.664      358.884      357.776        0.704        0.096      110.082       18.375        0.028      335.303        5.846      863.605
10/26/2014  23:17:00     -119.757      -10.781       -7.019       26.927       19.907       19.699      725.061      396.290      388.042        0.801        0.075      120.241       16.785        0.019      335.255        5.767      863.602
10/26/2014  23:18:00     -137.638      -19.017       -9.671       32.455       26.582       17.386     1053.338      706.598      302.267        1.073        0.103      138.946       11.871        0.007      335.241        5.743      863.595
10/26/2014  23:19:00     -149.492      -51.512       -6.811       35.252       22.345       20.507     1242.707      499.278      420.543        1.360        0.108      158.118       22.032        0.019      335.134        5.567      863.589
10/26/2014  23:20:00     -146.675      -47.516       -6.591       23.019       21.734       18.092      529.893      472.347      327.330        1.257        0.066      154.179       14.324        0.009      335.149        5.590      863.582
10/26/2014  23:21:00     -125.306      -56.396       -4.836       35.770       23.090       19.722     1279.460      533.159      388.964        1.055        0.110      137.412       20.492        0.022      335.141        5.578      863.570
10/26/2014  23:22:00     -119.666      -54.043       -6.656       23.281       21.785       14.887      542.021      474.582      221.633        0.926        0.062      131.303        7.439        0.003      335.176        5.636      863.558
10/26/2014  23:23:00     -109.487      -52.741      -11.606       12.501       12.028       10.429      156.276      144.669      108.767        0.766        0.020      121.528        4.321        0.001      335.148        5.589      863.564
10/26/2014  23:24:00      -95.716      -35.787       -7.543       20.764       19.526       12.112      431.139      381.255      146.706        0.573        0.048      102.188       11.153        0.012      335.162        5.612      863.571
10/26/2014  23:25:00     -102.883      -15.862       -3.170       35.729       24.670       21.974     1276.564      608.627      482.854        0.661        0.118      104.098       23.103        0.049      335.054        5.436      863.569
10/26/2014  23:26:00      -91.196      -37.369       -3.710       25.595       25.912       18.908      655.102      671.430      357.525        0.571        0.084       98.555       13.324        0.018      335.075        5.469      863.571
10/26/2014  23:27:00      -80.283      -42.802       -6.122       31.547       23.106       13.922      995.190      533.867      193.816        0.502        0.086       90.980       14.287        0.025      335.139        5.576      863.568
10/26/2014  23:28:00      -74.610      -10.114       -8.654       27.355       23.050       15.362      748.272      531.291      235.998        0.363        0.076       75.293       14.682        0.038      335.140        5.577      863.572
10/26/2014  23:29:00      -90.153      -20.694      -11.367       22.630       30.411       17.094      512.123      924.827      292.213        0.521        0.086       92.497       11.227        0.015      335.124        5.550      863.569
10/26/2014  23:30:00      -97.879       -8.016       -3.188       43.352       33.213       21.895     1879.390     1103.112      479.395        0.656        0.173       98.206       23.530        0.057      335.073        5.465      863.575
10/26/2014  23:31:00     -130.421       19.821      -12.680       33.297       25.845       17.046     1108.699      667.985      290.552        0.981        0.103      131.919       12.427        0.009      335.075        5.469      863.553
10/26/2014  23:32:00     -115.655       -5.752       -7.721       34.936       36.272       19.239     1220.508     1315.636      370.121        0.819        0.145      115.798       19.131        0.027      335.073        5.464      863.520
10/26/2014  23:33:00      -86.055        6.986       -7.639       39.737       29.366       20.924     1579.027      862.376      437.811        0.520        0.144       86.338       17.833        0.043      335.080        5.477      863.482
10/26/2014  23:34:00      -77.164       -0.295       -1.109       50.836       36.962       22.776     2584.322     1366.225      518.727        0.521        0.223       77.165       22.866        0.088      335.155        5.601      863.465
10/26/2014  23:35:00     -106.908       13.069       -8.983       38.574       24.728       19.244     1487.967      611.476      370.327        0.707        0.123      107.704       19.762        0.034      335.103        5.514      863.439
10/26/2014  23:36:00      -82.376       19.729       -5.645       28.697       22.070       20.322      823.492      487.087      412.990        0.446        0.086       84.705       12.070        0.020      335.026        5.387      863.416
10/26/2014  23:37:00      -84.800       22.122       -9.572       28.257       21.957       16.388      798.485      482.130      268.581        0.466        0.077       87.638        9.340        0.011      335.027        5.388      863.416
10/26/2014  23:38:00     -103.952       26.061       -5.443       34.633       29.331       20.001     1199.433      860.323      400.051        0.699        0.123      107.169       16.612        0.024      335.105        5.518      863.413
10/26/2014  23:39:00     -119.353       32.587      -13.115       38.827       33.138       24.153     1507.513     1098.158      583.368        0.933        0.159      123.722       16.725        0.018      335.128        5.556      863.416
10/26/2014  23:40:00     -171.919       51.318       -9.274       48.257       25.375       17.327     2328.690      643.897      300.226        1.777        0.164      179.415       12.643        0.005      335.183        5.647      863.414
10/26/2014  23:41:00     -150.101       31.371       -4.386       22.681       24.277       14.315      514.409      589.359      204.917        1.242        0.065      153.344        9.879        0.004      335.145        5.584      863.410
10/26/2014  23:42:00     -105.310       41.582       -4.157       48.043       20.932       20.379     2308.121      438.132      415.302        0.800        0.158      113.222       17.691        0.024      335.070        5.461      863.416
10/26/2014  23:43:00      -89.037       27.045       -1.581       32.810       21.354       13.135     1076.474      455.998      172.518        0.518        0.085       93.053       10.044        0.012      335.103        5.515      863.434
10/26/2014  23:44:00      -98.914       37.492      -11.214       36.993       23.384       15.401     1368.487      546.805      237.177        0.673        0.108      105.781        2.237        0.000      335.161        5.610      863.444
10/26/2014  23:45:00     -118.680       41.839       -8.377       33.358       19.434       18.326     1112.748      377.676      335.833        0.887        0.091      125.839       10.914        0.008      335.254        5.765      863.459
10/26/2014  23:46:00     -114.454       26.100      -12.465       27.527       22.866       15.849      757.729      522.854      251.196        0.773        0.077      117.392       10.729        0.008      335.316        5.867      863.491
10/26/2014  23:47:00      -64.211        6.695       -7.060       29.241       22.874       15.971      855.024      523.204      255.058        0.293        0.082       64.559       16.850        0.068      335.231        5.727      863.514
10/26/2014  23:48:00      -58.851       -1.280      -11.220       27.414       20.244       17.410      751.544      409.819      303.106        0.253        0.073       58.865       15.237        0.067      335.232        5.728      863.534
10/26/2014  23:49:00     -102.047       17.051       -8.344       33.537       28.605       16.561     1124.720      818.253      274.267        0.650        0.111      103.462       11.987        0.013      335.240        5.743      863.566
10/26/2014  23:50:00     -107.569        2.143      -15.950       36.290       18.051       13.032     1316.956      325.850      169.824        0.682        0.091      107.590        8.175        0.006      335.265        5.783      863.573
10/26/2014  23:51:00      -71.956      -28.302       -1.994       26.878       26.628       14.012      722.418      709.042      196.332        0.380        0.081       77.322       11.991        0.024      335.156        5.602      863.581
10/26/2014  23:52:00      -89.881      -18.478      -13.238       18.756       14.974       11.338      351.792      224.224      128.545        0.465        0.035       91.761        7.551        0.007      335.142        5.579      863.582
10/26/2014  23:53:00      -62.303      -26.126       -1.173       17.261       22.605       12.198      297.933      510.973      148.797        0.276        0.048       67.559       10.733        0.025      335.082        5.480      863.583
10/26/2014  23:54:00      -64.464      -21.466       -7.499       18.262       19.783       12.778      333.515      391.380      163.270        0.278        0.044       67.944       10.729        0.025      335.087        5.488      863.581
10/26/2014  23:55:00      -81.898       -1.997      -13.754       25.749       15.484       10.201      663.033      239.740      104.053        0.395        0.050       81.922       11.957        0.021      334.970        5.294      863.565
10/26/2014  23:56:00      -77.733       -9.430      -12.465       19.327       14.322       13.536      373.536      205.123      183.218        0.352        0.038       78.303       10.377        0.018      334.836        5.071      863.542
10/26/2014  23:57:00      -82.463       -5.744      -16.198       18.565       16.988       13.236      344.648      288.605      175.196        0.395        0.040       82.663        7.721        0.009      334.784        4.986      863.517
10/26/2014  23:58:00      -83.719       -1.796      -16.482       24.503       16.201       11.461      600.399      262.487      131.346        0.414        0.050       83.738        5.944        0.005      334.821        5.046      863.496
10/26/2014  23:59:00     -112.229      -10.595      -14.679       17.927       18.055       13.376      321.389      325.975      178.927        0.687        0.041      112.728        8.541        0.006      334.719        4.878      863.472
